GFSMW_prec_cloud_003.txt.gz
Cloud_Cover
51 100 98 9 7 9 33 7 5 0 0 0 0 0 0 0 2 5 0 0 0 0 0 0 0 0 0 5 5 3 4 5 5 5 4 4 5 5 5 5 5 4 0
51 9 5 5 3 0 3 0 4 0 0 0 0 0 0 0 0 0 0 0 0 0 0 0 0 5 10 68 80 5 7 5 5 8 30 59 14 4 5 1 0 0 4
7 5 3 0 0 0 0 0 0 0 0 0 1 4 5 5 2 0 0 0 0 0 0 0 5 5 6 5 5 15 22 29 18 33 100 100 27 5 5 4 5 4 0
5 0 0 0 0 0 0 0 0 0 4 5 5 5 5 5 5 5 5 5 5 2 0 1 0 5 5 5 22 81 99 100 100 100 100 98 53 56 75 12 5 5 17
0 0 0 0 0 0 0 0 0 5 0 0 5 5 6 5 5 0 2 5 4 1 5 5 22 11 29 24 56 97 100 100 100 100 100 100 98 55 100 100 5 40 100
0 1 0 0 0 0 5 4 2 5 5 5 5 5 2 5 4 5 5 5 6 6 13 42 45 68 69 56 84 100 100 94 100 100 100 100 100 99 100 98 92 13 69
4 5 5 5 5 5 5 5 5 5 5 5 5 1 5 5 5 5 14 69 73 5 5 5 5 27 95 100 100 100 100 64 12 38 89 100 100 100 100 100 100 100 94
0 0 5 5 5 5 5 5 5 5 5 5 5 5 5 5 5 5 5 5 1 5 5 15 92 97 96 100 72 30 62 11 30 30 5 37 92 100 100 100 100 100 100
5 2 3 5 4 5 5 5 5 5 5 5 5 5 5 4 0 5 5 5 29 12 55 39 67 93 81 97 100 76 72 5 0 1 5 73 58 87 68 99 100 100 100
5 5 1 3 6 10 19 24 34 12 5 5 5 5 5 12 5 5 5 5 20 56 92 100 100 100 100 96 32 16 5 4 3 5 40 35 30 45 98 54 85 100 100
1 4 5 5 46 79 49 5 5 10 64 15 5 5 3 5 5 10 46 63 37 22 10 46 88 58 12 10 4 1 0 0 0 3 5 5 5 5 5 5 5 86 100
6 56 70 43 6 31 100 100 31 12 47 93 49 44 40 34 51 94 99 92 76 49 10 5 5 5 5 0 0 0 0 0 1 16 0 0 0 0 1 4 5 32 93
85 14 6 5 5 5 26 14 88 75 21 51 82 100 100 98 64 42 38 15 5 5 5 5 4 1 0 0 0 1 0 0 12 38 16 0 0 0 0 0 0 1 5
85 38 10 5 5 5 6 7 10 11 20 32 11 29 76 64 93 46 4 5 4 1 0 0 0 0 0 0 0 0 0 0 0 0 0 1 5 0 0 3 20 25 39
5 5 7 31 61 91 89 92 81 11 60 96 51 10 5 2 1 0 0 0 0 0 0 0 3 5 5 5 5 5 6 3 1 2 4 2 4 2 5 5 1 31 28
5 9 64 93 82 67 54 17 5 5 5 5 5 5 4 0 0 0 0 2 4 5 6 6 50 7 34 95 68 5 8 91 99 6 2 1 6 1 6 4 8 85 100
98 97 28 5 5 5 5 5 5 5 5 5 5 5 5 4 4 4 3 4 5 5 5 5 4 5 5 5 19 100 100 96 86 65 41 22 42 54 50 63 9 7 9
5 6 13 28 5 5 5 5 19 12 5 5 5 5 5 2 0 0 1 1 4 5 8 21 82 79 40 5 95 100 100 97 84 77 64 23 5 5 5 93 100 100 97
5 28 71 68 96 58 88 65 7 5 5 5 5 5 5 0 0 0 0 2 0 0 0 5 5 5 5 5 87 96 21 5 5 5 5 6 5 5 4 99 100 100 100
93 97 99 29 30 70 12 23 17 5 5 5 5 5 5 5 0 0 0 0 0 0 0 0 0 0 0 4 5 0 0 0 0 5 5 5 48 5 16 100 100 100 100
100 98 89 96 5 5 5 5 5 5 5 5 5 5 5 3 0 0 0 0 0 0 0 0 0 0 0 0 0 0 0 0 6 5 14 5 16 74 100 100 100 100 100
92 98 97 33 5 43 5 5 5 5 5 5 5 5 1 0 0 0 0 0 0 0 0 0 0 0 0 0 0 2 5 6 85 66 22 5 10 96 100 71 100 100 100
95 100 100 56 88 44 5 5 5 5 2 5 5 5 0 0 0 0 0 0 0 0 0 0 0 3 0 0 0 5 12 83 97 82 5 11 100 100 100 100 100 100 100
100 100 90 100 100 56 75 96 54 5 5 5 2 0 0 0 0 0 0 0 0 0 1 5 5 5 5 5 12 17 29 46 5 5 6 98 100 100 100 100 100 100 100
100 94 100 100 95 87 93 100 31 5 4 0 0 0 0 0 0 0 0 0 0 5 67 34 83 90 49 41 73 91 99 78 100 81 90 100 100 100 100 100 100 100 100
94 99 99 100 85 45 21 30 5 2 0 0 0 0 0 0 0 0 0 0 4 5 7 61 98 97 100 100 100 100 70 100 97 100 100 100 100 100 100 100 100 100 100

GFSMW_prec_cloud_006.txt.gz
Cloud_Cover
0 2 2 1 5 2 0 5 68 100 100 100 16 18 1 0 0 0 0 0 0 5 5 4 0 0 0 5 5 3 0 4 4 47 5 5 5 21 5 22 83 53 7
7 5 7 5 5 8 27 58 88 72 9 5 5 1 0 0 0 1 4 0 4 0 0 0 0 5 5 5 5 1 8 37 75 100 100 100 88 5 5 5 6 12 46
8 5 19 36 42 49 46 5 5 5 4 7 52 0 0 3 1 5 5 5 5 5 5 5 5 5 5 7 5 5 10 99 100 100 100 100 100 80 76 24 5 11 42
100 84 16 5 47 72 100 52 5 2 5 3 2 0 4 4 0 5 5 5 5 5 5 5 5 5 5 5 5 78 36 98 100 100 100 100 100 100 100 100 99 64 44
38 5 5 5 51 65 7 0 0 0 0 0 0 0 5 5 5 13 15 22 19 5 5 5 14 28 22 27 93 94 100 49 82 96 98 99 100 100 100 100 72 36 38
0 1 5 5 7 0 0 0 0 0 0 0 4 5 5 21 46 35 52 44 31 24 5 5 5 5 5 17 16 13 52 84 80 100 100 100 100 100 100 100 100 98 66
0 0 0 0 0 0 0 0 0 3 5 5 5 5 34 44 66 49 15 5 5 5 5 5 5 0 2 5 13 5 7 30 22 12 29 90 100 100 100 100 100 100 99
0 0 0 0 0 0 5 0 5 5 5 16 80 99 100 38 5 5 5 5 5 5 5 5 5 5 2 5 5 16 93 6 5 6 70 100 93 7 27 70 100 100 100
0 0 0 0 5 37 5 5 5 5 5 5 5 5 5 5 5 5 5 5 5 4 5 2 5 5 5 5 5 5 5 13 56 7 5 4 5 5 25 5 5 52 100
0 4 5 5 14 10 5 5 5 5 5 5 5 5 5 4 5 5 6 5 5 6 5 3 2 0 2 4 1 5 5 2 0 5 2 3 3 3 2 1 4 11 93
5 6 12 5 5 5 5 42 46 5 5 26 19 7 45 75 96 90 69 60 18 1 1 3 17 52 55 30 4 0 0 0 0 0 0 2 5 5 5 5 5 5 13
5 5 5 5 5 66 56 80 93 58 28 23 33 56 57 21 14 22 22 51 96 99 54 24 21 2 0 0 0 1 0 0 1 5 5 5 5 4 2 0 1 11 6
100 100 95 70 82 66 41 20 66 90 68 61 28 26 6 16 44 16 24 25 5 4 0 0 0 0 0 3 5 7 5 5 10 58 5 5 5 5 10 5 19 18 14
100 100 100 100 100 100 100 88 68 29 16 5 5 12 85 100 94 41 17 0 0 0 0 0 0 0 0 0 3 4 3 5 5 10 69 64 99 100 100 91 100 100 100
100 100 100 100 79 46 11 5 5 5 8 70 97 79 17 4 4 3 0 0 0 0 0 0 0 0 0 4 5 5 5 57 91 100 100 100 100 100 95 70 6 89 100
0 0 0 1 5 5 5 5 22 12 6 5 5 5 5 5 5 2 0 0 0 0 0 0 0 0 0 4 5 5 5 5 5 39 66 100 100 100 98 96 100 100 69
2 5 30 25 33 5 5 5 5 5 5 5 5 5 5 5 5 0 0 0 0 0 0 0 0 0 0 0 0 0 5 5 5 83 86 60 78 100 100 100 100 100 97
8 24 5 5 5 26 5 72 5 5 5 5 5 5 5 4 1 0 0 0 0 0 0 0 0 0 0 0 0 0 4 5 5 11 5 14 7 5 99 18 5 8 84
3 4 5 14 18 78 99 97 18 5 5 5 5 5 5 4 1 0 0 0 0 0 0 0 0 0 0 0 0 0 0 0 0 0 0 5 5 7 55 73 8 18 100
5 88 71 89 100 99 64 5 5 5 5 5 5 5 5 0 0 0 0 0 0 0 0 0 0 0 0 0 0 2 5 5 5 6 5 10 62 54 19 49 52 100 100
12 54 99 96 66 100 52 50 72 39 5 5 5 5 5 5 2 1 0 0 0 0 0 0 0 0 0 0 4 5 71 61 100 68 26 5 5 5 5 82 100 100 100
75 92 100 87 48 100 85 91 40 5 5 5 5 5 5 5 1 0 0 1 2 3 0 0 1 4 5 5 5 90 100 100 100 92 24 12 12 6 98 100 100 100 100
100 100 100 100 100 100 96 9 5 5 5 5 5 5 4 5 5 34 20 5 5 1 0 5 56 22 5 5 5 78 100 74 99 88 92 71 70 100 100 100 100 100 100
100 100 100 100 99 86 89 5 5 5 3 0 0 4 5 14 75 45 3 0 0 3 24 100 100 96 34 72 6 99 35 26 43 45 10 33 99 90 98 76 98 100 100
100 100 100 93 95 50 5 4 3 5 0 1 5 24 10 5 2 0 0 0 3 65 100 91 100 100 97 38 100 100 99 99 100 100 5 15 6 32 52 65 100 100 100
100 78 45 5 23 26 4 4 5 0 0 0 1 2 0 0 0 0 0 0 5 18 79 88 100 100 100 100 100 100 100 100 100 36 51 90 72 97 94 100 100 100 100

GFSMW_prec_cloud_009.txt.gz
Cloud_Cover
5 2 0 0 0 0 0 0 0 0 2 14 62 98 100 82 73 72 5 0 0 0 0 0 0 0 5 13 16 15 19 15 26 100 100 100 43 5 5 5 5 6 32
5 5 0 0 0 0 2 8 10 5 5 8 15 10 14 16 37 15 5 0 0 0 0 1 5 5 27 11 0 2 31 49 46 100 100 100 99 55 5 5 5 5 9
46 5 4 17 26 30 5 15 49 74 51 25 13 9 6 5 4 5 3 0 2 0 0 0 5 4 14 20 29 28 52 72 79 100 100 100 100 99 100 73 81 67 28
100 100 100 100 100 66 5 5 5 14 56 50 5 5 13 8 5 1 0 0 0 2 5 5 12 15 14 36 40 53 100 100 100 100 100 100 100 100 100 100 100 100 100
94 70 68 78 52 5 5 24 19 98 88 26 5 1 0 1 0 0 0 5 2 5 5 5 5 23 66 86 98 72 48 80 99 100 100 100 100 100 100 100 100 100 100
4 5 4 8 62 13 1 2 42 70 18 0 0 0 0 4 17 86 100 100 90 52 83 100 100 87 46 5 5 5 5 5 5 9 5 14 46 94 100 100 100 100 94
0 0 0 0 0 0 0 0 0 0 0 0 3 5 5 6 59 41 87 100 99 100 92 54 28 6 5 13 14 6 5 15 5 5 5 24 5 1 8 21 17 15 5
0 0 0 0 0 0 0 0 0 0 0 5 5 5 15 67 58 66 54 48 40 9 26 60 73 91 57 13 8 6 50 95 53 11 5 5 4 5 5 12 69 80 48
0 0 0 0 0 0 0 0 2 5 5 5 9 34 5 11 72 69 62 85 55 49 54 90 84 38 5 5 5 5 5 4 3 4 2 0 0 3 5 5 14 61 100
0 1 0 0 0 0 0 4 5 5 5 5 6 61 87 72 47 12 16 42 31 24 14 6 5 5 5 15 5 5 3 0 0 0 0 0 4 5 5 16 98 100 99
5 5 5 0 1 4 9 5 5 30 22 41 68 74 76 42 25 16 6 53 46 63 43 79 77 15 5 5 4 1 0 0 1 0 0 0 1 3 6 71 100 100 100
72 5 5 5 32 6 5 36 54 64 46 93 68 47 30 8 33 8 36 98 95 100 100 11 8 4 0 0 0 0 0 1 0 0 0 2 4 11 16 9 65 98 100
99 84 100 100 100 100 94 71 82 21 5 5 5 5 10 22 48 72 100 100 100 75 2 0 0 0 0 0 0 0 0 0 0 0 2 5 63 17 16 84 55 87 74
100 100 100 100 100 99 100 100 90 36 5 5 5 14 98 98 100 99 77 21 2 0 0 0 0 0 0 0 0 0 0 0 1 1 5 5 5 5 6 41 77 92 94
100 100 100 100 100 100 95 31 5 5 5 6 6 11 5 5 3 0 0 0 0 0 0 0 0 0 0 0 0 0 0 2 0 0 0 5 5 5 6 63 6 41 75
100 100 100 95 6 19 12 5 5 5 5 5 5 3 5 5 5 5 0 0 0 0 0 0 0 0 0 0 0 0 0 1 0 0 0 4 5 4 3 6 5 51 99
49 53 76 66 31 5 5 5 5 65 99 96 12 5 5 5 5 5 1 5 1 0 0 0 0 0 0 0 0 0 0 0 0 0 0 0 1 4 5 5 7 48 65
1 1 4 1 1 5 5 40 86 77 54 5 5 5 5 5 5 5 5 5 0 0 0 0 0 0 0 0 0 0 0 3 4 5 0 5 5 5 5 74 100 99 5
5 5 0 5 5 11 79 98 89 51 43 56 76 58 7 5 5 5 5 0 0 0 0 0 0 4 5 10 5 5 5 5 5 5 5 16 5 8 96 99 100 5 5
6 5 5 36 100 100 72 7 29 100 87 29 64 59 5 5 4 0 0 0 0 0 0 0 0 0 0 1 5 31 56 68 71 72 94 5 5 95 100 100 97 100 100
32 11 68 72 88 67 100 100 100 100 66 83 10 5 2 0 0 0 0 0 0 0 0 0 0 0 5 5 14 82 98 85 100 58 49 7 71 100 92 100 100 100 100
7 5 7 46 88 86 100 100 92 55 13 5 4 4 0 0 0 0 0 0 0 0 0 0 1 5 5 5 12 100 100 100 100 98 90 85 100 100 100 94 99 100 100
5 8 70 23 56 100 100 65 5 5 5 4 0 0 0 0 0 0 0 0 0 0 1 5 47 72 5 5 5 40 99 89 73 95 100 99 70 90 26 55 97 100 98
8 6 39 100 100 97 44 5 5 5 5 0 0 0 0 0 0 0 0 0 0 0 5 70 99 83 72 64 6 96 67 14 21 100 77 5 5 92 81 78 98 100 96
100 100 100 100 79 5 5 5 5 8 1 0 0 0 0 0 0 0 0 0 0 18 99 97 99 100 94 80 100 100 93 100 100 100 11 5 84 100 100 92 100 96 100
100 100 81 6 5 5 5 5 5 0 0 0 0 0 0 0 0 0 0 1 5 5 68 100 100 100 100 100 100 100 100 100 100 100 20 76 100 100 100 99 97 100 100

GFSMW_prec_cloud_012.txt.gz
Cloud_Cover
93 100 99 8 4 0 0 0 0 0 0 0 0 0 0 0 5 9 18 26 5 5 5 5 2 0 0 0 3 64 90 83 55 100 95 65 6 6 40 5 5 2 1
93 99 100 79 5 0 0 0 0 3 5 0 0 0 3 5 5 26 21 6 3 2 5 5 4 0 2 8 27 96 98 100 100 100 100 100 62 55 11 5 5 3 5
46 67 100 54 4 2 0 2 47 32 3 1 2 5 5 6 6 5 4 5 0 2 0 1 0 0 8 37 26 42 72 94 70 100 100 100 100 100 45 52 24 80 99
6 100 99 100 100 100 100 100 100 93 25 5 5 35 76 27 5 1 0 0 0 0 0 0 2 5 5 5 5 5 5 9 13 5 27 75 95 100 100 100 100 96 53
33 20 100 100 100 100 100 89 5 21 85 97 56 6 5 5 2 0 0 0 0 1 5 5 5 5 5 5 5 5 5 5 5 5 2 5 5 5 25 43 5 23 26
37 12 73 94 94 22 19 35 83 73 19 5 5 6 5 1 0 0 5 5 5 8 18 9 7 16 40 41 28 17 22 28 36 61 58 9 5 10 29 63 57 51 8
83 5 0 0 0 0 0 0 0 0 0 0 0 0 0 2 3 5 5 5 5 5 6 34 17 5 5 7 9 5 5 5 5 5 5 5 5 5 11 8 20 90 42
79 5 0 0 0 0 0 0 0 0 0 0 0 1 5 5 3 5 5 5 38 7 15 7 5 5 19 17 5 5 5 5 5 5 5 4 0 1 0 0 82 94 62
69 7 0 0 0 0 0 0 0 0 0 0 0 0 2 5 5 14 35 47 58 25 6 26 62 44 5 5 5 5 5 5 5 1 0 0 0 0 2 73 32 30 50
6 18 5 0 4 1 0 0 3 16 5 5 4 4 5 5 20 35 6 22 43 44 48 6 5 5 5 12 42 22 5 2 0 0 0 0 0 0 19 12 58 75 98
12 2 5 5 8 8 20 54 62 30 39 27 21 42 92 100 98 78 64 13 5 5 5 5 51 41 55 12 0 0 0 0 0 0 0 0 1 39 7 42 56 71 89
5 5 5 84 99 100 100 100 100 100 97 72 72 74 91 69 12 5 5 5 5 5 23 6 1 0 0 0 0 0 0 0 0 0 0 2 3 5 5 5 5 5 85
19 42 17 99 100 100 100 100 100 90 10 33 7 11 5 5 6 5 5 5 5 5 5 0 0 0 0 0 0 0 0 0 0 5 0 0 0 0 0 0 4 10 100
72 40 86 100 100 100 100 88 32 74 18 39 24 7 16 38 10 12 28 5 4 3 0 0 0 0 0 0 0 0 0 0 4 2 5 2 0 0 0 1 4 40 26
91 100 100 100 100 96 76 78 99 99 46 5 6 9 16 5 5 5 5 5 1 0 0 0 0 0 0 0 0 0 0 0 0 0 5 5 5 5 5 46 6 21 68
100 100 100 100 99 100 98 26 10 53 9 5 52 58 5 5 5 5 0 0 0 0 0 0 0 0 0 0 0 0 4 0 0 4 0 0 4 5 30 34 72 90 100
100 93 90 95 98 96 43 28 8 5 32 76 55 18 5 5 5 5 5 0 0 0 0 0 0 0 0 0 0 5 5 5 5 5 5 5 20 86 28 5 70 81 96
100 100 88 40 61 55 29 5 32 93 100 14 5 9 5 5 5 4 0 0 0 0 0 0 0 0 0 0 5 5 5 5 5 5 5 80 26 5 98 92 91 100 20
87 63 72 56 78 12 45 16 17 34 6 59 76 6 5 4 0 0 0 3 5 5 1 0 0 0 0 0 5 42 5 5 5 5 6 86 26 71 100 100 79 5 18
82 54 25 6 14 9 9 52 5 5 22 97 7 5 2 0 5 5 5 5 1 0 0 0 0 0 0 3 36 81 94 42 5 51 69 5 93 100 100 100 100 98 5
40 8 61 26 8 65 100 80 5 22 64 5 4 0 1 5 5 3 5 0 0 0 0 0 0 0 5 5 58 99 100 91 100 50 5 5 65 100 99 99 100 100 100
33 6 5 86 100 100 62 11 60 38 4 0 5 6 16 4 3 5 0 0 0 0 0 0 1 5 50 8 46 100 100 100 100 60 5 83 100 100 15 61 100 100 100
58 44 33 68 24 5 43 51 5 0 0 3 5 20 6 5 5 0 0 0 0 0 0 5 45 94 83 28 5 12 93 95 100 11 98 76 96 7 5 66 93 85 69
17 5 93 97 100 100 65 4 0 6 26 22 5 5 5 5 1 0 0 0 0 0 7 99 96 93 94 82 8 93 81 64 51 94 100 45 10 5 21 51 59 96 100
5 14 58 100 100 46 2 5 5 5 5 0 5 5 5 0 0 0 0 0 0 26 100 96 100 97 96 73 100 100 100 100 100 100 55 5 19 76 95 99 100 100 100
67 53 100 95 13 5 5 5 5 4 1 5 5 5 0 0 0 0 0 4 6 61 7 74 100 100 100 100 100 100 100 100 100 37 17 90 100 100 100 100 100 100 100

GFSMW_prec_cloud_015.txt.gz
Cloud_Cover
70 86 100 98 96 53 39 1 0 0 0 0 0 0 0 0 0 0 0 0 5 78 99 61 12 5 5 3 0 6 9 21 87 95 59 69 9 3 1 5 5 5 5
5 87 100 99 71 48 56 5 2 0 0 0 4 1 0 0 0 0 2 5 16 28 10 5 5 3 0 0 0 0 0 3 5 89 98 67 4 8 6 13 13 40 41
5 18 96 99 66 27 96 93 74 68 20 5 4 0 0 2 5 5 5 13 5 5 4 0 0 0 0 0 0 0 0 0 1 0 42 32 3 0 5 33 36 18 5
5 5 97 92 56 5 44 100 98 67 65 5 4 4 1 5 5 5 5 5 5 1 0 0 0 4 0 0 0 0 2 5 5 5 5 0 0 0 1 0 0 1 2
5 5 64 96 6 5 5 19 42 96 84 86 65 34 20 5 5 5 5 4 0 0 0 0 0 0 0 0 2 5 5 5 5 5 11 54 59 5 5 13 1 0 0
63 22 5 82 17 68 92 27 5 1 4 71 100 98 37 4 1 0 0 0 0 0 0 0 0 0 3 10 40 23 5 5 4 3 0 10 64 97 76 5 1 0 0
5 5 5 0 5 100 98 99 11 4 5 2 0 0 0 0 0 0 0 3 4 1 0 4 5 5 5 5 5 4 3 5 5 5 4 18 20 5 2 5 5 13 38
2 0 0 0 0 4 18 91 16 5 5 5 5 5 1 0 1 5 5 5 5 7 81 57 5 10 28 5 5 5 5 5 5 0 0 0 0 0 0 1 71 58 26
0 0 0 0 0 0 5 71 6 35 28 5 5 5 10 69 70 31 10 13 60 78 56 62 67 53 9 50 6 5 5 5 0 0 0 0 0 3 5 64 82 33 96
0 3 0 0 0 0 5 5 5 5 37 5 76 28 49 51 41 5 12 85 99 54 46 67 20 57 21 5 5 5 0 0 0 0 0 0 0 3 3 7 5 61 84
0 0 0 0 0 4 5 54 12 5 5 7 61 68 72 25 39 29 34 5 5 9 4 3 5 5 5 5 3 3 0 0 0 0 0 5 4 0 0 0 0 0 3
0 0 0 1 5 20 100 6 5 10 28 76 90 100 100 76 6 16 5 5 5 4 5 5 5 5 5 2 0 0 0 0 0 0 5 0 0 0 0 0 1 5 7
0 0 4 5 5 42 74 49 46 96 100 93 92 73 7 10 5 5 5 5 5 5 5 5 5 5 1 0 0 0 0 0 0 0 0 0 0 0 1 5 5 77 70
0 5 5 11 79 98 66 82 100 100 72 90 99 38 17 12 8 5 5 5 5 5 5 4 0 0 0 0 0 0 0 0 0 0 0 2 5 5 8 39 88 66 5
5 5 5 84 100 88 99 100 84 56 76 83 63 63 84 56 31 18 5 5 5 5 0 0 0 0 0 0 0 0 0 0 1 5 5 5 5 5 86 100 98 82 8
71 21 52 83 100 100 61 69 78 80 94 99 96 99 85 5 5 5 5 5 4 0 0 0 0 0 0 0 0 5 5 5 5 5 5 5 5 49 98 70 99 100 100
99 100 97 97 99 57 58 53 74 88 100 100 98 20 5 5 4 2 5 0 0 0 0 0 0 1 0 0 0 5 5 19 5 40 5 5 68 89 5 14 86 54 58
100 100 100 97 100 85 92 98 82 100 100 42 5 5 5 0 0 0 0 0 0 0 0 0 0 0 0 0 5 24 49 17 67 97 8 88 82 17 100 35 100 5 0
99 98 100 100 100 86 46 94 100 100 11 5 5 4 0 0 0 0 0 0 0 0 0 0 0 0 0 2 25 82 69 19 72 14 61 91 6 80 100 100 30 5 5
100 100 100 97 56 67 100 100 100 28 5 5 3 2 0 0 0 0 0 4 0 0 0 0 0 0 0 5 72 93 44 27 30 68 88 15 57 100 100 100 84 7 5
100 99 100 95 100 100 100 100 83 8 5 3 0 1 0 0 0 0 0 0 1 0 0 0 0 0 5 30 77 100 100 78 96 98 21 23 12 100 100 100 46 70 100
99 97 100 100 100 100 100 78 5 5 1 0 5 0 0 0 0 0 0 0 0 0 0 0 3 5 19 62 87 100 100 100 100 85 38 46 100 88 98 24 92 100 97
41 77 100 58 100 100 68 68 5 1 2 4 0 0 0 0 0 0 0 0 0 0 0 5 14 8 5 24 52 88 97 100 100 92 100 93 8 31 34 14 84 96 86
100 57 29 54 62 100 98 25 5 5 5 0 0 0 0 0 0 0 0 0 0 4 5 52 85 74 6 64 12 99 96 90 93 100 36 5 5 87 93 5 32 100 100
50 18 16 19 83 100 53 4 4 2 0 0 0 0 0 0 0 0 0 0 5 22 77 65 99 95 99 57 100 100 100 100 100 100 5 4 84 69 5 45 100 100 100
98 57 80 100 82 5 3 0 0 0 0 0 0 0 0 0 0 0 0 5 5 11 32 91 100 100 100 100 100 100 100 100 100 91 13 62 95 97 100 100 100 100 100

GFSMW_prec_cloud_018.txt.gz
Cloud_Cover
0 0 5 5 100 86 5 23 5 5 4 0 0 0 0 0 0 0 0 0 0 0 0 0 1 29 54 41 5 5 0 0 0 0 0 0 0 7 0 35 70 3 2
0 0 3 5 5 83 97 89 53 5 46 95 91 100 73 5 0 0 1 4 5 8 33 60 66 65 16 5 4 0 0 0 0 0 0 0 3 4 4 5 5 5 5
5 1 5 5 10 86 73 100 100 90 7 34 7 24 76 12 2 0 5 5 5 5 5 5 5 5 5 4 0 0 0 0 3 0 0 0 0 0 5 5 5 5 0
0 0 0 2 5 33 22 8 80 35 17 42 12 13 2 2 1 0 0 2 0 2 5 5 5 5 0 0 0 0 0 0 0 1 5 2 0 4 1 5 4 5 5
6 5 2 3 5 64 95 96 92 96 100 60 5 5 5 6 5 5 5 5 29 5 0 0 0 0 0 0 0 0 0 0 0 4 5 5 5 0 1 4 0 0 0
38 5 5 5 70 22 16 5 70 38 34 22 38 97 97 27 5 5 5 3 1 0 0 0 1 0 0 2 5 5 5 5 5 3 0 0 2 5 4 4 4 0 0
5 5 5 5 2 0 5 5 2 4 3 17 69 12 6 5 23 2 0 0 0 1 5 5 5 8 5 5 5 5 5 5 5 4 4 5 5 1 0 0 0 0 1
0 0 0 0 0 0 0 0 0 5 5 4 5 5 5 10 8 5 4 5 5 48 42 55 43 11 23 36 5 5 5 5 5 5 5 5 2 0 0 5 5 5 48
0 0 0 0 0 0 0 0 3 2 1 1 5 6 85 85 26 10 5 79 98 92 100 81 15 36 10 5 5 5 5 2 5 5 1 0 0 0 0 5 4 52 5
0 0 0 0 0 0 0 3 47 20 5 6 5 50 96 50 49 73 88 91 100 99 52 13 5 5 5 5 5 5 5 5 2 4 2 0 0 0 0 0 0 2 16
0 0 0 0 0 0 0 1 6 9 5 5 5 5 63 100 69 50 61 39 8 5 5 5 5 5 5 5 5 4 0 0 3 0 0 0 0 0 0 0 1 4 18
0 0 0 0 0 0 0 0 0 5 5 82 11 67 81 32 5 9 6 20 5 3 5 5 7 5 5 3 2 0 0 0 0 0 0 0 0 0 0 5 5 65 90
0 0 0 0 0 0 0 0 5 5 13 50 66 78 18 52 76 38 5 5 5 5 3 5 2 1 4 0 0 0 0 0 0 0 0 1 5 5 5 13 80 94 100
0 0 0 0 0 5 5 5 5 44 48 54 41 5 5 7 14 23 46 23 5 5 5 3 0 0 0 0 0 0 0 0 0 0 5 5 5 10 37 68 98 92 74
0 0 1 3 5 5 5 5 60 65 84 36 5 5 60 55 29 51 36 46 5 1 3 2 0 0 0 0 0 0 0 0 4 5 5 5 22 38 89 100 99 98 18
5 5 4 2 5 5 34 64 89 94 29 5 40 28 26 100 67 67 5 3 0 4 0 0 0 0 0 0 0 5 5 5 5 7 13 66 77 85 100 100 100 100 100
2 0 5 5 5 64 98 25 74 49 49 25 62 51 67 21 5 5 1 2 0 0 0 0 0 0 0 0 0 5 5 25 70 75 89 86 97 99 100 100 97 92 97
2 4 5 39 100 95 90 76 100 85 70 29 21 38 46 9 2 0 0 0 0 0 0 0 0 0 0 0 5 15 16 66 83 95 99 98 99 100 100 67 87 97 100
30 86 100 100 100 100 100 100 71 85 79 41 51 5 5 0 0 0 0 0 0 0 0 0 0 0 0 0 23 63 69 87 89 95 100 100 100 100 100 100 100 99 58
100 100 100 100 100 100 97 98 39 100 57 18 5 5 0 0 0 0 0 0 0 0 0 0 0 0 0 2 64 88 100 96 97 96 100 100 100 100 100 100 68 93 6
100 100 100 100 100 98 29 77 100 100 40 8 5 1 0 0 0 0 0 0 0 0 0 0 0 0 4 12 58 100 100 100 56 72 66 97 100 100 100 100 100 100 100
100 100 99 96 58 67 96 100 100 22 5 3 2 0 0 0 0 0 0 0 0 0 0 0 0 5 5 57 68 99 100 100 100 69 55 94 100 100 100 100 100 100 100
100 98 50 24 42 98 100 6 6 5 5 4 0 0 0 0 0 0 0 0 0 0 0 0 5 5 53 80 96 100 100 100 100 100 100 100 100 100 84 100 100 100 87
80 78 79 82 100 93 32 5 5 5 2 0 0 0 0 0 0 0 0 0 0 0 1 5 5 12 75 96 94 77 36 58 88 99 99 41 100 98 100 96 76 91 100
100 94 76 64 28 5 5 5 5 3 0 0 0 0 0 0 0 0 0 0 0 5 5 5 67 93 89 99 100 100 99 100 100 100 10 82 100 99 78 74 82 89 98
96 16 6 5 5 5 5 4 0 0 0 0 2 4 0 0 0 0 0 0 5 6 25 62 99 90 100 100 100 100 100 100 100 99 100 100 100 100 95 91 98 100 100

GFSMW_prec_cloud_021.txt.gz
Cloud_Cover
5 0 0 0 0 0 0 100 88 8 90 85 66 5 5 2 2 0 3 0 0 0 0 0 0 0 0 0 1 4 41 54 12 9 5 5 0 0 0 0 4 5 5
0 0 0 0 0 2 5 5 96 100 87 96 86 43 41 99 96 8 5 0 0 0 1 5 4 5 12 37 48 61 68 59 27 5 3 0 1 1 0 0 0 5 5
0 0 0 0 0 4 5 52 77 46 96 88 79 100 100 100 76 6 5 4 0 0 0 2 5 5 6 12 5 5 2 4 6 1 0 0 2 5 5 6 56 48 22
1 0 0 0 0 4 5 64 65 64 46 70 68 70 19 5 5 5 4 5 5 5 5 5 4 4 0 0 2 1 0 0 0 0 0 0 0 0 0 5 5 7 52
5 0 3 5 5 5 5 92 100 99 66 5 7 36 5 2 5 5 5 29 37 61 10 22 0 1 0 1 5 5 5 3 0 0 0 4 5 46 5 4 1 0 0
2 2 10 86 14 5 55 61 68 5 5 5 4 0 0 0 0 0 0 0 0 0 1 4 5 25 44 16 4 5 4 0 4 1 0 4 1 2 0 3 3 0 0
1 3 5 5 5 72 47 5 5 0 0 0 0 0 0 0 0 0 4 5 5 4 5 5 5 17 6 5 5 10 10 6 5 5 4 5 5 0 2 0 0 0 0
0 3 5 2 5 7 2 5 1 0 0 2 4 2 5 2 5 2 5 5 5 7 68 7 5 5 13 38 5 5 6 5 5 5 5 13 5 4 0 0 0 2 0
0 0 4 0 4 1 0 0 0 1 2 0 0 4 0 5 5 5 5 8 94 35 5 60 57 26 5 5 5 36 5 5 7 5 5 0 0 0 0 0 0 0 0
0 0 0 3 0 0 0 0 0 0 0 0 0 0 0 5 5 5 18 98 73 47 100 100 72 52 75 20 6 8 43 5 2 0 0 0 0 0 0 0 0 0 2
0 0 0 0 0 0 0 0 0 0 0 0 0 0 5 5 5 53 92 80 99 100 86 74 55 52 68 63 7 5 5 4 0 0 0 0 0 0 0 0 2 5 23
0 0 0 0 0 0 0 0 0 0 0 0 0 5 5 6 95 60 84 100 68 67 70 64 95 92 6 11 5 5 0 0 0 0 0 0 0 0 5 5 5 58 65
0 0 0 0 0 0 0 0 0 0 0 0 5 5 5 58 5 29 60 47 53 65 54 96 33 5 5 4 0 0 0 0 0 0 0 0 5 5 5 55 50 5 41
0 0 0 0 0 0 0 0 1 0 0 2 5 5 5 80 29 24 55 26 9 5 22 6 5 4 0 0 0 0 0 0 0 0 1 5 5 5 5 5 43 76 96
0 0 0 0 0 0 0 1 1 4 5 8 61 46 5 52 54 42 5 5 5 5 5 4 0 0 0 0 0 0 0 0 4 4 5 5 31 68 100 100 92 66 75
0 0 1 5 5 3 2 5 3 5 26 80 47 5 98 100 26 5 5 5 5 5 0 0 0 0 0 0 0 0 5 5 5 5 5 5 5 64 97 100 100 100 100
0 5 5 5 0 0 0 5 5 64 95 62 75 100 100 92 34 5 7 5 5 1 0 0 0 0 0 0 0 5 5 5 6 5 5 5 5 96 33 35 95 100 100
0 5 5 3 0 2 5 66 100 85 71 96 100 100 88 10 5 5 5 2 0 0 0 0 0 0 0 0 0 14 5 5 5 50 77 65 32 22 100 100 96 91 86
5 5 4 4 31 73 96 100 100 99 99 100 100 71 6 5 2 1 0 0 1 1 0 0 0 0 0 0 4 22 5 5 5 99 100 98 95 97 100 100 100 23 5
5 12 86 74 100 100 100 100 100 93 98 58 5 5 5 4 0 0 2 5 1 0 0 0 0 0 0 0 5 48 80 66 84 64 85 100 100 100 100 100 100 97 7
95 97 94 100 100 100 100 98 90 13 5 5 10 5 2 0 0 5 2 0 0 0 0 0 0 0 0 5 11 76 99 100 85 92 53 76 100 100 100 100 100 98 100
100 100 100 100 100 98 96 77 58 41 37 53 5 5 5 3 4 0 0 0 0 0 0 0 0 0 1 5 5 88 100 100 100 98 75 97 100 100 100 100 100 100 99
100 100 100 100 96 69 88 93 76 88 62 5 5 5 1 0 5 0 0 0 0 0 0 0 0 3 5 5 32 92 100 100 100 100 100 100 98 85 74 96 100 100 97
97 95 81 51 84 100 98 70 79 90 5 5 5 3 5 5 3 0 0 0 0 0 0 2 5 5 5 7 6 23 89 87 92 90 98 47 98 82 98 70 30 76 100
100 77 94 100 96 100 100 100 81 6 5 5 5 5 5 0 0 0 0 0 0 1 5 5 23 67 52 25 100 100 100 100 100 100 65 61 39 94 72 72 87 100 100
10 24 94 100 100 100 100 74 21 5 5 5 5 5 4 3 0 0 0 0 0 2 5 26 94 89 100 100 100 100 100 100 100 100 84 99 100 100 100 100 100 100 100

GFSMW_prec_cloud_024.txt.gz
Cloud_Cover
100 100 100 6 6 45 14 40 5 53 36 7 5 8 66 57 66 29 5 0 5 40 30 5 4 0 0 0 0 0 1 4 1 5 10 39 55 40 94 96 26 32 2
45 98 67 61 83 10 3 0 5 8 28 100 82 94 68 95 97 100 100 100 100 85 5 0 0 0 0 0 0 3 2 4 4 6 7 38 72 5 5 5 3 1 5
44 42 92 76 5 0 0 5 5 5 5 5 8 23 11 5 5 5 31 5 5 4 5 4 4 4 5 5 3 5 5 4 3 4 1 5 14 5 7 7 5 5 5
36 100 80 4 0 1 5 5 5 5 5 5 5 5 5 5 5 5 5 5 0 2 2 0 0 0 1 0 1 5 9 5 6 5 5 3 0 1 4 37 35 69 93
96 68 5 1 0 5 5 5 5 5 5 5 5 5 5 1 0 0 0 0 0 0 0 2 0 0 0 0 0 5 5 0 5 5 5 7 17 5 1 2 1 2 3
57 6 5 5 0 5 16 8 5 5 5 12 5 5 5 3 3 0 0 0 0 0 0 2 5 5 5 54 21 5 1 0 1 3 4 5 5 5 5 5 3 1 5
67 5 5 5 4 16 65 97 87 66 100 26 2 0 0 1 0 0 0 0 0 4 5 5 5 5 7 5 5 5 5 28 36 53 59 24 22 16 26 5 2 1 0
77 30 5 5 2 5 5 5 7 12 3 0 0 0 0 0 0 0 0 0 3 5 5 5 5 5 5 5 5 5 6 5 35 78 94 36 63 47 5 2 0 0 0
36 10 5 2 5 5 5 5 5 2 0 0 0 0 0 0 0 0 0 5 6 46 58 57 23 5 5 5 5 5 5 15 28 84 92 50 6 5 4 0 0 0 3
5 5 5 5 0 0 3 5 5 0 1 0 0 0 0 0 0 4 5 7 60 6 61 88 5 5 5 5 18 78 61 35 37 5 5 5 4 0 0 0 0 1 5
7 5 5 0 0 0 0 0 0 0 0 0 0 0 0 0 4 5 11 60 48 73 75 72 61 5 38 91 77 42 32 6 5 5 2 0 0 0 0 0 3 5 11
5 5 3 0 0 0 0 0 0 0 0 0 0 0 0 3 5 5 52 10 53 61 100 70 92 100 68 19 5 5 23 5 4 0 0 0 0 0 0 5 5 5 5
4 5 3 0 0 0 0 0 0 0 0 0 0 0 0 5 5 41 87 73 91 94 72 83 47 67 15 5 21 54 5 0 0 0 0 0 0 3 5 5 5 5 25
0 0 0 0 0 0 0 0 0 0 0 0 0 1 3 16 67 98 83 100 100 98 96 100 96 46 5 5 4 0 0 0 0 0 0 0 5 22 9 6 56 100 100
0 0 0 0 0 0 0 0 4 0 2 3 2 5 78 88 100 100 100 100 100 100 100 49 5 5 3 0 0 0 0 0 0 0 3 5 5 62 89 100 93 100 89
5 0 0 0 0 0 5 5 3 0 0 5 40 99 100 88 100 100 100 100 99 49 27 5 1 0 0 0 0 0 0 0 0 5 5 5 20 75 98 100 100 100 100
0 0 0 0 1 5 5 3 0 4 27 95 100 100 85 100 100 100 99 38 5 5 4 0 0 0 0 0 0 0 5 5 5 5 5 5 5 46 5 13 95 100 96
4 1 0 0 5 5 5 0 5 9 81 100 100 100 100 100 100 39 5 5 5 5 0 1 0 0 0 0 0 1 5 5 5 5 7 74 8 84 100 97 100 78 85
2 4 5 5 5 5 8 71 98 100 100 100 100 100 100 66 5 12 46 18 5 2 0 0 0 0 0 0 0 5 5 5 5 15 100 100 80 97 100 100 100 78 51
5 18 56 92 99 96 100 100 100 100 100 100 100 93 6 5 19 5 5 5 0 0 0 0 0 0 0 0 2 5 54 74 68 60 82 72 100 100 100 100 96 98 6
60 62 62 98 99 100 100 100 100 100 100 74 6 12 7 5 5 5 5 5 4 1 0 0 0 0 0 0 5 17 99 100 84 99 93 70 56 100 100 100 100 100 100
53 98 100 100 100 80 84 100 98 63 7 10 27 5 5 18 31 5 5 5 0 0 0 0 0 0 1 5 9 92 100 100 100 97 39 36 99 100 100 100 100 100 100
100 100 100 95 99 100 80 84 99 85 76 40 5 71 100 52 5 5 3 0 0 0 0 0 0 4 5 5 7 98 100 99 100 84 86 98 100 97 50 72 100 100 93
100 100 100 100 100 96 86 63 85 86 21 90 100 97 8 5 5 5 5 5 1 0 0 0 5 5 5 5 9 98 58 79 56 90 100 66 48 28 53 20 98 100 100
100 100 100 82 20 35 67 81 96 100 100 91 42 5 5 5 5 5 5 3 0 0 0 5 5 68 33 33 100 100 100 100 100 100 44 5 16 70 93 100 100 100 100
90 18 7 5 20 62 99 100 100 91 45 5 5 5 5 5 5 5 2 0 0 0 2 5 52 56 96 100 100 100 100 100 100 90 13 83 100 100 100 100 100 100 100

GFSMW_prec_cloud_027.txt.gz
Cloud_Cover
7 7 85 97 100 100 100 100 100 100 60 37 5 5 5 41 8 13 78 96 64 88 71 93 64 20 5 2 0 0 0 0 0 0 0 0 2 3 1 5 4 5 5
7 76 100 97 100 96 92 78 11 71 37 5 5 5 5 5 12 5 10 12 47 24 16 5 5 5 1 5 4 0 0 0 0 0 0 3 2 1 0 2 0 0 4
3 100 88 38 21 48 74 71 97 69 28 5 5 5 5 1 2 1 2 5 33 65 45 5 2 0 0 0 0 0 0 0 0 0 0 0 2 28 52 8 21 5 5
8 98 5 38 96 91 20 16 53 4 5 5 5 5 1 0 5 5 3 4 1 4 0 0 0 0 0 0 0 0 0 0 0 2 0 0 0 0 1 47 88 99 100
8 63 55 80 34 6 5 17 5 2 3 5 1 5 3 55 92 54 0 5 1 0 0 0 0 0 4 5 5 4 5 0 0 0 0 0 0 0 0 0 0 0 3
5 24 52 86 72 8 5 5 2 4 0 5 5 57 51 5 0 0 0 0 0 0 0 0 0 5 5 5 5 5 5 5 0 0 0 0 0 0 0 0 0 1 2
5 5 47 79 32 7 5 5 3 3 5 5 8 19 5 0 0 0 0 0 0 0 0 0 4 5 5 5 5 5 5 3 0 0 0 0 0 0 0 0 0 0 0
11 19 100 68 17 6 5 5 5 5 1 3 0 0 0 0 0 0 0 0 0 0 3 5 5 5 5 5 5 5 5 5 5 5 5 5 5 3 0 0 0 0 0
5 63 57 29 5 5 7 8 4 0 0 0 0 0 0 0 0 0 0 0 1 5 5 5 12 5 5 5 5 5 5 5 5 5 5 5 5 3 5 5 0 0 5
5 10 9 5 5 5 30 5 5 0 0 0 1 0 0 0 0 0 0 0 5 5 5 63 39 10 5 7 32 5 21 48 49 10 5 6 2 0 0 0 0 0 2
18 5 5 5 5 5 5 5 5 2 1 5 2 0 0 0 0 0 3 5 5 5 59 90 76 75 68 56 34 80 96 99 59 11 5 1 0 0 0 0 0 3 74
6 21 5 5 5 5 5 5 5 5 5 2 0 0 0 0 0 0 5 12 80 83 60 77 79 80 90 100 100 96 11 5 5 0 0 0 0 0 0 3 5 5 5
5 5 3 2 5 5 5 5 4 1 3 0 0 0 0 1 5 5 33 100 70 82 83 86 100 96 100 95 28 5 5 5 0 0 0 0 0 1 5 5 22 12 90
5 1 2 5 5 5 5 5 0 0 0 0 2 5 1 4 39 55 100 87 100 100 100 96 93 99 53 5 5 5 2 0 0 0 0 0 1 5 48 11 75 99 71
5 5 0 5 5 5 5 0 5 2 1 5 4 1 9 75 50 94 73 98 100 100 82 88 95 17 5 5 0 0 0 0 0 0 0 0 5 43 98 100 95 88 37
0 0 0 4 5 5 1 0 4 5 5 5 0 5 30 98 82 83 100 100 86 100 100 32 7 5 2 0 0 0 0 0 0 4 5 5 5 5 99 98 100 100 100
5 2 3 5 5 3 0 5 5 5 5 2 5 38 100 100 100 100 100 97 100 86 33 12 5 4 3 5 1 0 1 5 5 5 5 5 5 25 35 15 94 82 96
1 0 1 4 5 4 5 5 5 13 66 67 100 89 100 100 100 100 100 49 5 5 5 5 5 5 3 0 0 1 5 5 5 5 5 38 40 53 100 94 96 98 99
4 5 1 4 5 10 5 5 10 98 93 99 100 100 100 100 100 95 28 5 5 5 5 6 5 0 0 0 0 5 5 5 5 5 6 100 52 87 100 100 100 89 8
5 5 5 5 5 7 71 100 93 79 98 100 100 100 100 100 98 14 5 5 5 5 6 3 5 0 0 0 5 74 6 5 5 6 10 42 95 100 100 100 100 84 5
5 5 6 5 58 43 11 16 65 96 100 100 100 100 100 94 39 6 5 5 5 5 5 5 2 0 0 0 7 71 100 84 81 58 54 5 30 100 100 100 78 76 100
10 41 56 25 74 60 46 31 57 93 100 94 100 94 57 5 5 19 56 25 5 5 5 0 0 0 0 0 4 80 100 100 100 99 30 44 100 100 100 93 100 100 100
45 77 54 52 54 60 89 65 98 69 100 100 91 43 44 63 82 39 12 5 5 4 0 0 0 0 1 4 0 7 100 100 100 99 98 90 84 54 6 61 100 100 72
100 100 100 100 100 98 71 59 92 100 98 32 22 95 100 94 66 5 5 5 1 0 0 0 5 5 5 5 13 96 83 71 64 89 76 5 5 44 22 18 84 100 100
100 100 100 100 94 50 82 83 97 42 9 80 100 97 72 16 5 6 5 1 0 0 0 5 5 5 5 12 100 100 99 100 100 100 6 14 88 97 89 100 100 100 100
100 100 95 13 5 57 41 10 5 74 100 70 68 22 5 5 5 5 1 0 0 0 0 5 5 5 38 94 100 100 100 100 100 86 53 100 100 100 100 100 100 100 100

GFSMW_prec_cloud_030.txt.gz
Cloud_Cover
0 0 0 36 100 100 100 100 100 100 100 100 100 100 100 100 100 100 69 3 5 5 0 15 60 62 8 5 5 5 8 16 3 0 0 0 0 0 0 0 0 0 0
0 0 0 3 5 25 92 84 100 100 100 100 100 100 94 43 100 70 1 0 0 0 0 3 0 0 2 0 0 0 0 0 0 0 0 0 2 5 4 5 5 0 0
0 0 0 5 5 5 5 77 64 51 100 100 100 50 41 53 59 1 0 5 5 2 0 0 0 0 0 0 0 0 0 0 0 0 0 0 0 1 36 30 6 2 0
0 0 3 5 5 34 22 56 56 59 63 82 73 5 28 40 0 2 5 5 5 0 0 0 0 0 0 0 0 0 0 2 5 3 0 0 0 0 0 1 2 0 5
0 0 3 5 64 68 95 22 5 49 90 77 55 5 5 3 5 4 4 5 0 0 0 0 0 0 0 0 0 0 0 2 0 0 0 0 0 0 0 0 0 0 0
0 0 3 5 80 43 12 31 80 66 5 8 5 5 5 5 5 2 0 0 0 0 0 0 0 0 0 0 0 5 5 4 3 0 0 0 0 0 0 0 0 0 0
1 0 3 5 23 21 66 62 30 5 44 5 5 5 5 0 0 0 0 0 0 0 0 0 0 0 0 1 5 5 5 5 3 0 1 1 0 0 0 0 0 0 0
0 0 15 55 51 9 75 18 5 43 7 5 5 5 0 0 0 0 0 0 0 0 0 0 0 0 5 5 5 5 4 5 5 5 5 0 0 0 0 0 0 0 0
0 0 49 10 8 5 15 59 63 28 5 5 5 4 2 5 3 0 0 0 0 0 0 0 0 4 5 5 5 5 5 5 5 5 5 5 5 5 3 0 0 2 5
0 0 61 20 5 5 26 35 6 5 5 5 5 1 5 5 2 0 0 0 0 0 1 5 5 5 5 5 5 5 5 5 5 5 5 5 5 1 0 0 0 0 5
0 0 38 5 5 33 68 24 22 8 5 5 5 5 5 5 0 0 0 0 0 4 5 5 5 5 5 5 5 5 5 5 5 5 5 4 0 0 0 0 0 4 5
0 5 50 6 34 71 28 5 15 35 5 5 5 5 5 2 2 5 5 5 4 2 5 19 57 5 5 5 43 60 7 5 5 5 0 1 0 0 0 0 5 5 5
0 6 26 17 61 12 34 63 11 5 5 5 5 5 4 2 5 5 0 1 5 10 71 14 19 49 64 95 96 19 5 5 4 4 5 5 1 0 0 5 5 5 78
4 34 64 5 5 17 84 68 16 5 5 5 5 5 5 5 5 0 4 6 82 96 9 49 83 79 81 27 5 3 5 5 4 4 5 0 2 0 17 76 54 100 71
5 5 20 59 46 77 73 12 5 5 5 5 5 5 5 5 16 36 32 99 72 24 75 84 58 51 6 5 5 5 5 5 4 0 0 5 5 5 99 100 100 97 96
5 5 55 89 66 41 7 5 4 5 5 5 5 10 5 40 100 90 85 87 49 85 68 60 30 5 5 5 5 5 5 0 0 4 5 3 5 18 100 99 100 100 100
17 51 23 47 50 8 5 5 4 5 5 5 62 63 68 100 89 64 88 100 100 89 90 89 28 5 5 5 5 4 2 5 5 4 1 5 5 23 8 5 75 7 81
60 37 49 66 67 27 5 4 5 5 5 73 77 78 100 80 95 98 84 98 45 78 98 38 5 5 5 5 1 4 5 4 0 0 5 61 8 5 100 88 72 100 24
5 18 57 16 5 5 5 5 5 5 76 85 80 100 97 91 76 93 30 36 98 57 5 5 5 5 5 2 3 5 5 5 5 5 70 70 39 47 100 100 60 79 7
48 5 5 5 5 5 5 5 25 72 65 100 100 48 61 80 6 62 100 92 6 7 41 5 5 5 5 0 5 25 5 5 5 22 68 79 84 100 100 100 98 42 4
5 5 5 5 5 5 5 11 90 100 99 46 5 44 52 17 100 99 31 5 40 43 21 5 5 2 0 0 5 67 100 24 92 16 59 5 49 100 100 100 61 54 100
5 4 4 5 5 26 84 99 88 14 5 5 62 44 39 90 65 16 5 5 5 5 5 5 5 1 0 0 4 87 100 100 92 87 45 73 99 100 98 65 100 100 100
5 5 5 5 7 20 10 6 5 5 5 5 41 64 62 6 5 5 5 5 5 5 5 4 0 0 0 3 2 66 100 100 100 85 100 100 90 7 5 64 100 100 96
5 5 5 5 5 5 5 5 5 5 8 62 77 32 5 5 5 5 5 5 5 5 0 0 1 5 5 5 13 99 88 100 80 90 60 5 5 5 28 38 24 100 100
5 5 5 5 5 5 5 5 5 43 80 43 5 5 7 5 5 5 7 39 5 2 2 5 5 5 5 16 100 100 100 100 100 100 5 5 33 82 68 92 96 100 100
5 19 15 5 5 5 5 5 23 51 5 5 16 12 5 5 5 72 99 24 5 13 5 0 5 5 10 66 99 100 100 100 100 72 41 99 100 100 100 100 100 100 100

GFSMW_prec_cloud_033.txt.gz
Cloud_Cover
0 0 0 0 0 0 0 32 56 29 72 94 100 100 100 100 100 100 100 100 100 100 52 5 5 0 0 0 0 0 0 0 0 0 0 0 0 0 0 0 3 2 0
0 0 0 0 0 0 0 0 44 100 97 100 100 100 100 100 100 100 100 100 99 75 6 5 2 0 0 0 0 0 0 0 0 0 0 0 1 0 2 4 1 0 0
0 0 0 0 0 0 0 0 7 68 96 100 100 100 100 100 100 100 100 90 73 10 5 3 0 0 0 0 0 0 0 0 0 0 0 0 0 0 1 0 0 0 0
0 0 0 0 0 0 0 0 5 24 56 100 100 100 100 100 100 99 31 68 24 28 5 0 0 0 0 0 0 0 0 0 0 0 0 0 0 0 0 0 0 4 4
0 0 0 0 0 0 0 4 5 27 64 58 81 100 100 72 71 59 73 89 19 5 0 0 0 0 0 0 0 0 0 0 0 0 0 0 0 0 0 0 0 0 5
0 0 0 0 0 0 0 5 15 80 73 46 80 65 54 48 54 90 74 5 5 0 0 0 0 0 0 0 0 0 0 0 0 4 0 0 0 0 0 0 0 0 0
0 0 0 0 0 0 0 5 46 70 21 5 6 18 81 61 89 75 5 5 0 0 0 0 0 0 0 0 0 0 0 0 0 0 0 0 0 0 0 0 0 0 0
0 0 0 0 0 0 0 5 36 16 5 5 5 38 25 11 88 8 5 5 0 0 0 0 0 0 0 0 0 0 0 2 5 4 4 0 1 1 0 0 0 3 0
0 0 2 0 0 4 2 5 5 8 6 5 5 5 7 48 5 5 5 5 0 0 0 0 0 0 0 0 0 3 5 5 5 5 5 5 5 1 0 0 0 5 5
0 0 0 0 9 6 5 5 5 5 5 5 5 5 6 10 5 5 5 5 0 0 0 0 0 0 0 5 5 5 5 5 5 5 5 5 0 0 0 0 0 0 5
0 4 2 2 18 5 5 24 7 5 5 1 5 5 46 26 5 5 5 1 0 0 0 0 1 4 5 5 5 5 5 5 8 5 5 3 0 2 4 0 0 4 5
0 4 5 5 5 5 5 5 5 3 0 7 13 67 59 38 5 5 3 1 4 1 0 2 5 12 20 5 5 65 57 6 5 5 5 5 5 1 0 0 5 5 5
0 6 7 5 5 5 5 5 2 0 5 30 81 95 16 7 5 5 5 5 5 0 5 5 46 67 20 62 80 43 5 5 5 5 4 2 0 1 3 5 5 22 95
17 99 8 5 5 5 5 1 4 5 70 91 70 31 13 5 5 5 5 32 4 5 5 5 8 20 67 26 5 5 5 5 5 5 0 0 0 0 6 5 67 87 52
98 100 5 5 5 5 5 5 22 66 52 44 24 6 5 5 5 5 97 12 6 5 5 62 77 20 5 5 5 5 5 5 1 0 0 0 2 5 67 100 56 82 86
100 40 4 4 5 5 5 59 42 14 5 6 5 31 6 5 15 99 75 21 6 27 28 6 5 7 49 5 5 5 5 5 3 0 0 0 0 5 16 72 100 100 100
100 51 3 5 5 16 66 27 6 14 30 66 82 12 11 36 100 98 71 65 14 5 5 5 48 61 5 5 5 5 5 3 0 0 0 1 5 5 5 10 56 99 98
62 5 5 5 5 5 19 24 54 65 59 34 25 9 78 99 99 56 47 5 33 47 61 96 20 5 5 5 3 5 5 2 0 0 3 5 5 48 100 85 100 9 5
34 51 9 32 38 5 23 24 33 53 38 12 5 66 99 99 45 6 5 64 72 94 86 7 5 5 5 1 2 5 5 5 5 5 92 66 87 98 100 100 84 70 5
6 17 5 5 5 12 52 19 5 5 20 14 89 100 88 5 5 5 50 92 100 64 5 5 5 5 0 1 3 5 5 5 6 90 6 64 82 100 100 100 95 66 6
28 44 19 12 5 5 5 5 10 68 70 91 97 36 5 5 10 86 100 73 7 5 5 5 4 2 4 5 4 5 32 5 98 14 24 5 46 100 100 100 66 44 100
67 8 16 5 5 6 20 29 30 55 64 30 9 5 5 55 82 92 15 5 5 5 5 5 5 5 8 5 5 34 98 100 85 73 9 43 100 100 87 45 99 100 98
5 5 5 5 5 5 30 16 8 5 5 5 5 5 5 68 40 5 5 5 5 5 5 5 5 5 5 5 5 7 100 100 100 97 100 93 70 7 5 50 100 94 57
75 72 74 70 26 53 14 81 44 5 5 5 5 47 72 5 5 5 16 6 5 5 5 6 6 5 5 5 11 88 92 97 98 95 44 5 5 5 15 42 43 62 100
100 100 100 99 69 91 82 9 5 5 5 42 85 23 5 5 5 5 5 5 21 37 8 5 5 5 5 19 98 100 100 100 100 100 5 5 16 68 78 73 87 100 100
100 96 64 25 9 24 5 5 5 5 35 48 36 14 5 5 5 5 44 42 66 52 15 5 5 5 5 42 87 100 100 100 100 66 25 95 100 100 100 100 100 100 100

GFSMW_prec_cloud_036.txt.gz
Cloud_Cover
0 0 0 0 0 0 0 0 0 0 0 0 4 5 5 56 100 100 100 100 100 100 87 88 74 98 100 84 5 5 60 3 0 0 0 0 0 0 0 0 0 0 0
0 0 0 0 0 0 0 0 0 0 0 0 0 5 27 100 100 100 100 100 100 100 97 100 100 97 49 11 24 49 5 0 0 0 0 0 0 0 0 0 0 0 0
0 0 0 0 0 0 0 0 0 0 0 0 0 4 100 100 100 100 100 100 100 94 100 78 56 54 75 46 54 8 0 0 0 0 0 0 0 0 0 1 1 0 0
0 0 0 0 0 0 0 0 0 0 0 0 4 5 58 100 100 100 100 100 100 100 83 58 32 61 73 49 6 5 0 0 0 0 0 0 0 0 0 0 0 0 0
0 0 0 0 0 2 3 0 0 0 0 0 5 76 40 90 100 100 100 40 15 15 50 52 68 88 49 5 5 0 0 0 0 0 0 0 0 0 0 0 0 0 5
0 0 0 0 0 0 0 0 0 0 0 0 14 68 83 100 100 100 65 8 34 68 35 50 72 16 5 5 0 0 0 0 0 0 0 0 0 0 0 0 0 0 0
0 0 0 0 0 0 0 0 0 0 0 71 100 100 100 100 80 14 19 24 50 49 64 41 32 5 5 4 0 0 0 0 0 1 0 0 0 0 0 0 0 0 0
1 0 0 0 0 0 0 4 0 0 94 100 100 100 79 23 5 5 5 19 62 36 76 60 5 5 4 0 0 0 0 0 0 2 5 5 5 1 0 0 0 2 0
5 0 0 0 0 0 0 0 0 32 51 95 69 99 42 6 5 5 5 49 56 26 65 23 5 3 0 0 0 5 5 5 5 5 5 5 5 5 2 0 0 3 5
5 2 0 0 0 1 0 5 16 21 27 5 42 73 35 5 4 5 5 5 42 41 22 5 3 5 0 0 3 5 5 5 5 5 5 5 4 0 0 1 1 4 5
5 0 0 0 0 0 0 20 86 99 42 5 68 62 20 5 5 5 17 11 17 5 5 4 5 4 0 5 5 5 5 5 5 5 4 0 1 1 0 4 5 4 5
5 5 0 0 0 0 1 48 100 80 30 5 72 60 61 5 29 5 13 5 5 5 5 5 5 0 5 5 5 5 5 5 5 5 5 5 1 0 0 0 3 5 5
12 5 5 0 0 0 12 87 86 7 5 5 95 85 44 5 5 5 5 5 5 5 5 14 5 5 5 5 5 4 0 5 5 5 4 0 0 0 0 5 5 19 85
5 5 5 0 5 3 0 5 5 5 5 22 91 100 10 5 5 5 5 5 34 5 82 16 5 5 5 5 3 0 4 5 5 5 0 0 0 0 5 57 81 100 56
24 5 4 30 62 5 45 94 13 5 30 97 100 50 5 5 5 5 8 20 44 92 71 66 5 0 2 5 5 5 5 5 3 0 0 0 2 5 63 100 99 100 70
100 99 69 100 100 100 99 29 6 71 100 100 40 28 5 52 37 36 51 78 76 70 8 4 3 5 4 5 5 5 5 5 5 0 0 0 2 5 12 48 100 100 100
100 92 97 100 100 100 67 32 100 100 100 99 72 79 72 84 71 44 95 89 99 44 5 5 5 5 5 5 5 4 5 5 1 0 2 5 5 5 5 8 90 100 98
93 82 100 100 100 99 14 79 100 100 100 87 61 53 90 76 91 100 80 99 28 5 5 5 5 5 5 5 5 4 5 5 5 68 10 5 5 5 100 87 100 29 5
100 100 100 100 100 52 88 92 100 100 80 44 90 80 51 89 100 100 77 9 5 5 5 43 18 5 5 5 5 5 5 65 14 5 17 29 56 86 100 100 83 56 5
100 100 100 100 94 77 60 84 62 62 42 44 38 86 100 100 99 13 5 3 5 30 97 5 5 5 5 5 5 47 5 5 5 19 5 6 100 100 100 100 98 39 4
100 100 100 80 100 96 71 75 79 76 32 88 98 93 100 95 8 5 5 5 70 12 5 5 5 5 5 5 5 5 17 5 83 16 26 25 86 100 100 100 53 37 100
100 100 100 78 75 94 99 90 58 77 86 38 61 100 69 6 3 6 75 92 35 5 5 5 5 70 58 5 5 5 66 80 100 81 63 74 100 100 82 32 98 100 97
100 100 100 98 100 100 98 99 88 56 59 83 96 42 5 6 68 99 74 6 14 5 5 5 56 36 8 5 5 5 46 82 100 84 100 99 74 5 5 48 100 92 18
100 100 100 100 100 100 100 98 79 100 100 63 5 8 77 98 89 80 64 70 32 5 5 5 5 5 5 3 6 57 61 47 80 75 70 5 5 5 5 8 5 5 91
100 100 100 100 100 100 100 100 100 55 6 5 4 68 41 26 57 56 69 16 5 5 5 4 5 5 5 7 92 100 100 100 100 100 5 5 6 36 28 16 25 86 100
100 100 100 100 100 100 100 100 65 8 4 6 5 5 5 5 5 34 5 5 5 5 0 0 4 4 5 20 79 100 100 100 99 59 12 84 100 100 100 100 100 100 100

GFSMW_prec_cloud_039.txt.gz
Cloud_Cover
0 0 0 0 0 0 0 0 0 7 0 0 1 7 12 50 74 81 100 100 85 100 100 100 100 100 100 100 100 100 100 98 14 5 5 5 5 3 0 0 0 0 0
0 0 0 0 0 0 0 0 0 0 0 0 0 0 0 69 61 73 95 100 95 100 100 100 100 100 100 100 100 81 68 28 12 47 50 7 5 0 0 0 0 0 0
0 0 0 0 0 0 0 0 0 0 0 0 0 0 31 88 100 98 100 100 100 100 100 100 100 100 100 86 28 21 52 75 99 70 48 7 5 0 0 0 0 0 0
0 0 0 0 0 0 0 0 0 0 0 0 0 0 0 12 66 92 100 100 100 100 98 56 100 100 86 64 37 15 51 55 47 16 5 5 0 0 5 1 0 0 0
0 0 0 0 0 0 0 0 0 0 0 0 0 0 0 18 35 100 100 100 100 92 26 60 94 100 100 98 35 38 5 5 5 5 5 5 0 0 0 5 0 4 5
0 0 0 0 0 0 0 0 0 0 0 0 0 0 0 18 72 100 100 100 100 14 56 88 100 100 100 29 16 13 5 5 5 5 5 3 0 0 0 0 0 0 0
0 0 0 0 0 2 0 0 0 0 0 0 0 1 48 88 100 100 100 97 50 40 10 100 100 100 38 5 5 5 5 5 5 5 3 0 0 0 0 0 0 0 0
0 0 0 0 0 2 0 0 0 0 0 0 2 31 69 100 100 100 100 97 11 8 44 100 99 28 5 5 16 5 5 5 4 2 0 0 0 0 0 0 0 0 0
0 0 0 0 4 16 0 0 0 0 0 0 5 74 100 100 100 98 96 60 35 5 53 57 5 5 5 56 23 5 5 5 5 3 0 2 0 0 0 0 0 5 2
1 1 0 0 7 5 0 0 0 0 4 92 100 100 100 100 71 72 68 86 93 6 5 13 22 59 5 5 5 5 5 5 1 0 5 0 0 0 0 0 0 3 5
1 5 8 5 14 12 1 0 0 36 77 100 100 98 57 12 5 61 100 100 99 64 11 39 48 14 5 5 5 5 5 5 5 0 0 0 0 0 0 0 0 5 5
2 17 0 5 25 40 46 40 52 100 100 100 90 67 5 5 5 88 100 100 94 56 8 82 58 5 6 5 5 5 5 4 0 0 0 0 0 2 0 0 1 5 5
18 7 5 8 31 58 84 100 100 100 100 100 98 100 68 10 8 71 87 96 66 21 99 88 5 5 5 5 5 5 2 0 0 1 0 1 1 0 0 3 15 18 87
5 5 7 32 60 74 100 100 100 100 100 100 97 100 91 20 42 28 58 65 55 100 98 15 5 32 24 5 5 5 0 0 5 5 5 0 0 0 7 84 100 100 99
67 23 22 83 98 100 100 100 100 100 100 100 100 99 79 68 69 56 21 61 100 99 26 64 37 71 53 10 3 0 4 5 5 5 4 2 5 5 69 100 100 99 94
85 26 55 100 100 100 100 100 100 94 96 88 100 100 53 71 47 52 100 100 100 44 81 85 94 20 5 5 5 5 5 4 5 5 5 5 0 5 88 84 100 100 100
100 94 98 100 95 75 44 72 53 18 66 100 100 56 93 72 100 100 100 92 92 73 99 71 5 5 3 5 5 5 5 5 5 5 5 5 5 5 5 19 95 92 100
100 100 69 54 43 59 100 100 100 100 100 99 88 100 100 100 96 78 85 98 90 95 9 5 1 4 5 5 5 5 5 5 5 5 3 5 5 5 100 98 92 65 5
89 22 18 41 88 100 100 100 100 100 100 100 95 100 99 100 100 99 98 100 28 5 5 5 5 44 76 5 5 5 5 5 5 4 5 5 89 100 100 100 61 99 70
100 100 100 100 100 100 100 100 100 100 100 73 86 100 100 98 100 100 38 5 5 5 5 17 72 57 5 5 5 5 5 68 44 69 76 39 100 100 100 100 96 90 5
100 100 100 100 100 100 100 100 100 100 89 100 100 81 88 100 94 14 5 5 5 27 81 96 32 5 5 5 4 5 26 93 97 72 60 72 86 100 100 100 87 76 100
100 100 100 100 100 100 100 100 100 100 100 99 100 96 100 91 9 34 9 7 67 66 32 34 39 5 5 4 1 7 73 89 91 94 70 21 100 96 85 29 87 100 100
100 100 100 100 100 100 100 100 100 100 100 100 97 100 61 42 7 5 5 51 15 5 5 5 5 5 5 3 1 5 30 64 100 56 90 98 69 5 5 18 97 95 82
100 100 100 100 100 100 100 100 100 100 100 100 100 54 34 5 5 5 5 5 5 5 5 5 5 5 5 5 6 48 17 27 89 45 85 8 5 5 5 5 8 73 99
100 100 100 100 100 100 100 100 100 100 99 85 96 44 5 5 5 5 5 5 5 5 5 5 5 5 5 7 84 99 95 100 96 100 36 5 6 26 26 52 68 99 99
100 100 100 100 100 100 100 100 100 100 63 10 5 5 5 5 5 5 5 5 5 5 5 1 3 4 5 56 89 100 100 100 100 78 5 39 93 99 99 100 99 99 100

GFSMW_prec_cloud_042.txt.gz
Cloud_Cover
0 0 0 0 0 0 0 0 0 0 0 0 0 28 76 55 15 6 16 52 66 40 13 87 41 5 7 22 100 100 100 100 100 96 100 100 100 96 94 99 64 28 22
0 0 0 0 0 0 0 0 0 0 0 0 0 7 17 59 78 100 90 100 100 100 100 65 6 96 100 100 100 100 100 100 100 100 96 63 92 93 60 44 20 43 5
1 0 0 0 0 0 0 0 0 0 0 0 3 17 8 70 100 100 100 90 94 100 100 95 100 57 42 45 98 92 98 100 98 93 72 74 65 27 5 5 5 5 4
0 0 0 0 0 0 0 0 0 0 0 0 0 0 0 21 98 100 100 100 97 99 80 26 13 59 69 77 100 96 64 63 85 96 83 63 25 18 36 4 1 5 0
0 0 0 0 0 0 0 0 0 0 0 0 0 0 1 61 88 100 100 100 98 100 63 34 55 99 42 69 100 83 52 85 84 42 60 5 6 5 5 7 5 5 5
0 0 0 0 0 0 0 0 0 0 0 0 0 0 16 5 54 100 100 100 100 100 46 5 12 9 32 32 100 58 62 26 44 7 5 5 6 5 5 5 10 5 5
0 0 0 0 0 0 0 0 0 0 0 0 0 0 2 44 81 72 98 100 98 22 97 5 5 5 18 5 42 5 5 5 5 5 5 5 5 5 5 5 5 5 5
0 0 0 0 0 0 0 0 0 0 0 0 0 0 39 100 98 91 100 100 75 98 46 18 5 29 5 57 7 5 5 5 5 5 5 5 6 5 5 4 0 0 0
0 0 0 0 5 0 0 0 0 0 0 0 0 0 36 100 100 100 93 100 84 77 4 24 8 5 5 5 5 5 5 6 7 18 26 5 5 5 5 0 0 0 0
0 0 0 0 5 5 1 0 0 0 0 1 0 0 71 100 100 100 100 100 88 6 5 17 57 6 5 5 5 8 13 33 36 18 5 5 5 4 0 0 0 0 0
0 1 5 5 65 4 0 5 0 0 0 5 4 10 99 100 100 100 100 51 20 5 5 10 21 68 64 44 69 62 43 8 30 5 5 5 5 3 0 0 0 0 0
0 4 53 14 97 48 7 5 4 0 5 5 16 50 100 100 100 100 95 88 89 5 5 5 84 90 61 83 72 22 24 5 10 5 5 2 5 0 0 0 0 0 5
6 49 100 73 44 45 8 5 5 5 54 5 38 100 100 100 98 100 100 74 34 5 5 16 88 63 98 82 5 10 45 51 9 5 4 1 2 0 0 0 5 34 78
13 96 100 100 73 88 99 28 30 97 97 91 100 100 100 100 100 100 100 77 9 5 16 50 75 99 60 5 30 73 65 9 5 2 5 1 0 0 5 5 43 92 100
96 100 100 100 100 100 100 100 98 100 100 100 100 100 99 96 100 100 100 86 66 68 56 89 100 41 58 85 67 24 5 4 5 5 0 2 1 5 6 82 99 100 99
100 100 100 100 100 100 100 100 100 100 100 100 100 100 100 95 100 100 87 100 100 100 100 100 24 77 88 58 2 2 2 5 5 5 5 5 5 17 78 100 100 100 100
100 100 100 100 100 100 100 100 100 100 100 100 100 100 100 99 95 100 98 100 100 100 80 60 91 98 13 4 5 5 5 5 5 5 4 5 5 80 96 100 100 100 100
100 100 100 100 100 100 100 100 100 100 100 97 100 98 68 79 100 100 100 100 100 98 92 99 57 5 5 5 5 5 5 5 5 2 5 34 72 91 100 100 77 100 88
100 100 100 100 100 100 100 100 100 100 95 72 81 100 100 100 100 100 100 100 100 98 58 5 5 5 5 5 5 5 5 2 5 5 44 79 100 100 100 99 67 99 99
100 100 100 100 100 100 100 100 94 65 100 100 100 100 100 100 100 100 100 100 97 60 9 5 13 12 5 5 5 5 0 5 5 10 54 80 100 100 100 100 100 99 84
100 99 91 74 56 41 49 100 100 100 100 100 100 100 100 100 100 100 100 96 40 29 66 16 5 5 5 4 0 5 5 5 45 63 71 99 100 100 100 100 96 98 100
100 97 100 100 100 100 100 100 100 100 100 100 100 100 100 100 100 100 70 77 90 30 5 5 5 5 0 0 2 5 42 75 88 94 100 94 100 86 73 35 47 100 100
100 100 100 100 100 100 100 100 100 100 100 100 100 100 100 100 70 68 67 41 5 5 5 5 2 5 4 5 5 5 61 65 89 100 100 100 70 29 5 10 99 97 99
100 100 100 100 100 100 100 100 100 100 100 100 100 99 85 77 62 12 5 5 5 5 0 0 0 4 5 5 5 18 86 98 100 100 88 51 32 5 5 12 40 96 100
100 100 100 100 100 100 100 100 100 100 100 100 100 94 64 23 8 5 5 5 0 0 0 4 5 5 5 5 36 86 96 100 100 100 48 5 5 25 70 96 98 98 100
100 100 100 100 100 100 100 100 100 100 100 86 64 46 62 52 6 5 1 1 4 5 5 5 5 5 5 16 92 100 100 100 92 68 5 31 86 98 96 99 99 96 100

GFSMW_prec_cloud_045.txt.gz
Cloud_Cover
15 5 3 2 0 0 0 0 0 0 0 0 0 0 20 90 100 100 100 45 18 0 0 3 100 88 89 84 53 5 5 5 6 22 92 100 94 99 100 100 100 100 67
96 100 100 29 5 0 0 0 0 0 0 0 0 0 90 94 100 100 92 34 5 27 14 46 100 95 92 94 78 100 43 5 5 10 6 32 86 67 89 63 8 63 83
5 5 2 4 5 4 0 0 0 0 0 0 0 12 14 21 68 100 74 58 77 100 100 100 100 100 100 100 96 89 68 51 43 74 31 5 5 46 40 12 6 9 13
5 5 0 0 0 5 5 0 0 0 0 0 0 0 0 0 22 89 100 100 100 98 100 100 74 100 100 100 100 41 12 5 56 93 27 5 7 30 50 5 4 5 2
0 0 0 0 0 0 0 0 0 0 0 0 0 0 0 0 45 100 100 100 80 100 100 100 99 100 100 99 72 5 5 7 5 40 40 5 42 10 5 5 0 2 4
0 0 0 0 0 0 0 0 2 0 0 0 0 0 0 0 38 100 100 100 99 100 100 100 97 98 94 57 4 5 5 5 5 5 20 46 6 5 5 0 0 0 2
0 0 0 0 0 0 0 0 5 2 0 0 0 0 27 0 6 78 94 100 100 93 97 100 100 72 5 1 0 1 4 10 5 18 22 5 0 0 2 2 0 5 30
0 0 0 0 0 0 0 0 1 5 5 5 0 60 4 0 8 91 100 100 100 100 100 100 100 100 5 0 0 5 12 18 5 5 5 5 4 1 0 3 5 5 10
0 0 0 0 0 0 0 0 0 0 3 5 10 11 0 1 40 96 100 100 100 100 80 100 100 100 26 5 5 5 29 74 10 8 5 5 5 5 5 5 5 4 3
100 94 12 0 0 0 0 0 0 0 5 5 5 4 0 44 91 100 100 100 100 100 100 94 80 57 5 5 5 5 12 52 64 40 5 5 5 5 5 5 5 5 0
0 4 74 13 0 0 0 42 51 0 25 95 80 8 5 56 100 100 100 100 98 100 100 88 55 71 7 5 5 5 5 47 41 5 21 5 5 5 5 0 1 0 0
64 4 5 99 0 21 28 100 87 3 11 91 98 5 29 90 100 100 100 100 76 100 100 100 87 69 5 5 5 5 72 51 31 13 5 5 5 5 0 0 0 0 0
100 100 100 38 96 100 100 100 63 43 30 100 77 28 100 100 100 100 100 100 100 98 100 100 97 27 56 43 39 85 60 48 11 5 5 4 0 0 0 0 0 2 5
48 7 85 14 100 100 100 100 94 100 99 99 74 100 100 100 100 100 90 98 95 91 86 100 78 67 68 88 85 66 72 22 5 5 2 1 5 0 0 2 5 5 5
54 48 5 95 100 100 99 100 100 100 100 76 98 98 100 100 100 100 87 69 90 100 100 100 100 95 100 89 81 78 63 23 5 5 4 5 3 2 4 34 18 54 72
99 100 100 100 100 100 100 100 100 100 100 97 95 100 100 98 92 23 52 82 92 100 100 100 100 100 100 83 92 88 5 5 5 5 5 5 3 0 6 66 96 100 100
100 100 100 100 100 100 100 100 100 100 100 100 100 100 100 68 62 76 82 100 100 100 100 100 100 100 100 99 59 13 5 5 5 5 4 0 4 5 5 54 96 96 88
100 100 100 100 100 100 100 100 100 100 100 100 100 100 100 80 94 100 100 100 100 100 100 100 100 100 100 61 67 7 5 5 5 0 0 5 5 9 80 70 58 100 94
100 100 100 100 100 100 100 100 100 100 100 100 100 100 100 100 98 100 100 100 100 100 100 100 100 100 100 97 98 12 5 4 2 5 0 5 26 51 99 100 72 76 10
100 100 100 100 100 100 100 100 100 100 100 100 100 100 100 100 100 100 100 100 100 100 100 100 100 100 100 80 22 5 5 5 1 1 4 5 63 97 100 100 96 8 5
100 100 100 100 100 100 100 100 100 100 100 100 98 86 99 100 100 100 100 100 100 100 100 100 100 98 21 5 8 5 5 5 5 5 5 5 87 100 100 100 54 29 100
100 100 100 100 100 100 100 98 76 81 90 89 100 100 100 100 100 100 100 100 100 100 100 100 47 27 33 38 9 5 5 28 74 34 22 40 100 100 83 64 69 100 100
100 100 100 93 76 85 98 100 100 100 100 100 100 100 100 100 100 100 100 100 100 100 98 98 90 40 5 5 4 0 14 60 51 48 90 100 82 64 6 17 99 99 36
100 100 100 100 100 100 100 100 100 100 100 100 100 100 100 100 100 100 100 100 100 100 100 71 9 5 5 1 2 4 5 6 34 26 21 67 31 5 5 14 5 5 41
100 100 90 100 100 100 100 100 100 100 100 100 100 100 100 100 100 100 100 100 95 39 8 5 4 5 5 5 10 39 29 82 100 100 11 5 5 5 5 5 5 5 64
100 100 100 100 100 100 100 100 100 100 100 100 100 100 100 100 100 100 66 5 5 5 5 5 5 5 5 16 66 87 99 100 96 60 5 5 5 5 7 74 91 100 100

GFSMW_prec_cloud_048.txt.gz
Cloud_Cover
5 3 2 0 0 5 0 4 0 0 0 0 0 0 0 38 100 100 100 89 28 4 2 1 0 0 0 0 5 72 100 40 68 59 79 77 8 5 88 100 16 5 10
0 5 3 0 4 1 5 58 64 5 13 0 0 0 1 14 54 70 97 100 93 1 4 5 5 8 69 100 99 90 99 55 20 5 5 26 80 37 55 100 56 5 5
5 5 4 2 3 5 24 43 16 10 5 0 0 0 0 54 10 3 79 50 90 5 4 33 100 100 100 100 99 95 100 99 88 78 11 12 7 5 100 100 73 5 5
0 0 0 0 0 0 1 47 46 5 0 5 0 0 0 1 0 0 0 16 100 41 91 89 71 100 100 100 100 100 100 100 90 68 55 5 5 5 18 6 5 71 5
3 4 4 4 5 0 0 1 5 46 1 0 0 0 0 0 8 53 24 100 100 100 100 100 79 100 100 100 100 100 100 96 94 49 5 5 5 0 4 5 44 5 0
5 5 5 2 0 0 3 5 0 4 11 1 0 0 0 0 0 44 96 100 100 100 100 100 66 74 100 100 100 100 100 84 50 5 4 0 0 0 2 5 6 2 0
5 5 5 2 0 0 0 0 0 0 5 5 0 0 0 0 0 0 35 40 100 100 100 100 86 100 100 100 100 100 100 100 49 5 5 4 0 5 4 5 1 5 3
0 0 0 0 0 0 0 0 0 0 2 2 3 0 0 5 5 3 6 50 100 100 100 100 87 64 100 100 100 100 100 100 9 26 5 5 5 5 5 26 9 5 5
0 0 0 0 0 0 0 0 0 0 0 0 0 11 4 5 5 6 72 100 100 100 100 100 100 99 99 100 100 100 100 100 100 100 35 15 5 5 5 5 5 5 5
1 5 5 62 67 14 0 0 0 0 0 0 8 73 23 4 5 21 99 100 100 100 100 100 53 99 100 100 100 100 100 100 100 100 49 23 5 5 5 5 5 5 0
4 6 92 95 35 5 6 6 0 0 36 28 98 83 5 5 5 59 100 100 100 100 100 100 100 100 99 100 100 98 100 98 82 56 53 26 29 5 5 5 5 4 0
4 5 3 3 0 0 0 5 0 27 100 100 100 29 2 5 31 100 100 100 100 100 100 61 81 88 100 90 100 100 100 97 79 49 44 32 5 5 5 5 2 0 0
93 29 33 5 7 89 99 27 86 100 100 99 29 4 2 68 100 100 100 100 100 100 100 100 79 100 94 86 91 100 100 100 99 68 42 5 5 5 5 5 0 0 0
82 54 100 1 100 100 100 100 100 100 92 4 5 70 86 100 100 100 100 100 100 100 100 100 100 100 100 100 100 100 100 100 100 100 75 19 5 5 5 5 2 5 5
74 100 53 41 100 97 100 100 100 100 81 5 32 100 100 100 100 100 100 100 100 100 100 100 100 100 100 100 100 100 100 100 100 100 97 54 6 5 5 5 5 19 72
94 38 4 93 100 100 100 100 100 100 79 10 100 100 100 100 100 100 100 100 100 100 100 100 100 100 100 99 98 100 100 100 100 100 100 60 6 5 5 5 37 86 99
86 22 60 100 100 100 100 100 96 100 100 100 100 100 100 100 100 100 100 100 100 100 100 99 100 100 100 99 100 100 100 100 100 100 88 32 5 5 4 5 47 29 36
100 100 100 100 100 100 100 100 100 100 100 100 100 100 100 100 100 100 100 100 99 100 98 100 100 100 100 100 100 100 95 100 100 100 78 6 5 5 22 9 70 70 5
100 100 100 100 100 100 100 100 100 100 100 100 100 100 100 100 100 100 100 100 100 92 100 100 100 100 100 100 96 100 100 100 100 14 5 4 4 5 78 92 76 5 5
100 100 100 100 100 100 100 100 100 100 100 100 100 100 100 100 100 100 100 100 100 100 100 100 100 100 100 100 100 100 99 47 5 5 5 4 22 79 100 100 84 87 5
100 100 100 100 100 100 100 100 100 100 100 100 100 100 100 100 100 100 100 100 100 100 100 100 100 100 100 100 100 64 5 5 5 5 5 5 50 100 100 100 83 32 98
100 100 100 100 100 100 100 100 100 100 100 100 100 100 100 100 100 98 100 100 100 100 100 100 100 100 100 100 54 5 5 5 7 5 5 5 68 100 77 66 27 99 100
100 100 100 100 100 100 100 100 100 100 100 100 100 100 100 100 100 100 100 100 100 100 100 100 100 99 13 5 5 5 4 5 5 5 46 99 89 34 26 5 75 83 5
100 100 100 100 98 100 100 100 100 100 100 100 100 100 100 100 100 100 100 100 100 100 100 90 12 5 5 5 5 5 5 5 5 11 79 22 5 4 4 4 5 5 5
100 100 100 100 100 100 100 100 100 100 100 100 100 100 100 100 100 100 100 100 100 75 9 5 5 5 5 5 45 73 80 91 100 98 5 3 5 4 5 5 5 5 9
100 100 100 100 100 100 100 100 100 100 100 100 100 100 100 100 100 100 100 49 6 5 5 5 5 5 5 37 41 79 88 87 86 38 5 5 5 5 5 5 5 6 78

GFSMW_prec_cloud_051.txt.gz
Cloud_Cover
5 5 5 4 0 0 0 0 0 0 0 0 0 0 0 0 0 0 63 0 0 0 0 0 0 1 0 3 0 0 5 5 5 48 47 42 44 17 63 56 44 41 21
8 57 7 4 1 5 5 2 0 0 0 0 0 1 5 8 4 5 98 99 8 0 0 0 4 2 0 1 5 5 19 41 99 100 98 100 100 80 100 100 24 5 5
5 10 5 7 66 56 23 5 4 0 0 0 0 0 4 21 25 14 22 98 7 0 3 1 0 3 5 5 33 99 86 100 100 95 68 80 81 96 91 59 14 4 5
97 83 5 5 5 5 5 5 5 5 4 5 1 0 2 8 69 6 3 11 9 2 84 88 6 8 35 32 35 100 100 100 100 100 100 68 20 68 90 88 94 5 5
90 21 5 5 5 4 5 1 0 5 5 5 5 0 0 15 87 20 5 91 42 38 54 90 100 100 100 98 34 59 98 100 100 100 100 100 55 50 61 88 32 5 5
5 3 1 2 5 5 3 0 0 5 0 0 0 0 0 4 1 45 7 20 47 59 67 85 100 100 100 100 73 100 89 97 100 100 100 100 100 96 88 75 49 27 72
5 5 5 0 0 1 1 1 1 1 0 0 0 0 0 0 0 4 5 9 51 80 9 79 100 100 100 100 93 100 72 89 100 100 100 100 100 100 100 73 65 93 97
36 27 23 29 27 6 5 4 0 0 0 0 0 0 0 0 0 2 5 47 95 86 5 100 100 100 100 100 73 99 99 100 100 100 100 100 100 94 91 59 16 41 83
9 5 5 5 5 4 0 3 2 0 0 0 0 0 0 0 3 7 63 100 100 100 49 89 100 100 100 100 100 85 100 100 100 100 74 100 100 100 100 100 100 30 75
13 15 4 0 0 0 0 0 0 0 0 0 0 0 0 3 51 62 18 92 100 100 100 100 100 100 100 84 99 100 89 93 100 73 99 100 100 78 89 91 91 25 5
26 5 5 2 0 0 0 0 5 5 0 0 0 0 0 5 3 7 5 43 100 100 100 100 100 100 100 100 96 100 81 100 76 96 100 90 100 100 100 100 97 76 7
4 53 21 5 3 66 0 0 0 3 35 0 0 1 5 5 0 15 5 92 100 100 100 100 100 100 100 100 100 100 100 81 99 94 83 100 98 100 91 97 100 96 42
69 17 100 100 100 3 3 5 4 0 38 100 42 31 54 40 97 82 91 100 100 100 100 100 100 100 100 100 100 100 51 93 100 81 86 70 80 83 42 38 35 41 5
86 100 100 100 67 78 33 45 5 5 61 20 100 94 100 100 100 99 100 100 100 100 100 100 100 100 100 100 100 100 69 91 100 90 73 94 72 82 19 5 5 5 5
100 100 100 100 24 91 94 29 98 99 100 99 83 100 100 100 99 100 100 100 100 100 100 100 100 100 100 100 100 65 94 100 98 98 82 79 100 88 5 14 5 5 5
100 100 100 57 72 5 60 100 100 100 100 100 100 100 100 100 100 100 100 100 100 100 100 100 100 100 100 100 88 88 100 98 100 100 99 100 100 96 56 5 5 41 64
100 100 100 90 6 17 96 100 100 100 100 100 100 100 46 100 100 100 100 100 100 100 100 100 100 100 98 78 92 100 100 100 100 100 100 100 100 99 83 56 5 38 46
100 100 100 67 89 100 100 100 100 100 100 100 100 93 100 100 100 100 100 100 100 100 100 100 100 100 99 99 94 100 100 100 100 100 100 100 100 100 72 22 99 88 19
100 100 100 100 100 100 100 100 100 100 100 100 100 100 100 100 100 100 100 100 100 100 100 100 100 99 100 100 100 100 100 100 100 100 100 100 61 5 23 98 75 85 5
100 100 100 100 100 100 100 100 100 100 100 100 100 100 100 100 100 100 100 100 100 100 100 100 100 100 100 100 100 100 100 100 100 99 38 5 5 57 92 100 100 85 17
100 100 100 100 100 100 100 100 100 100 100 100 100 100 100 100 100 100 100 100 100 91 99 100 100 100 100 100 100 97 90 72 37 5 5 12 8 98 100 100 79 18 97
100 100 100 100 100 100 100 100 100 100 100 100 100 100 100 100 100 100 100 100 100 100 100 99 100 100 100 100 83 74 11 5 5 15 10 15 93 100 88 52 21 86 91
100 100 100 100 100 100 100 100 100 100 100 100 100 100 100 100 100 100 100 100 100 100 100 100 100 100 31 38 26 8 5 6 5 14 81 100 100 11 4 4 8 17 5
100 100 100 99 100 100 100 100 100 100 100 100 100 100 100 100 100 100 100 100 100 100 100 100 84 22 22 57 6 5 5 5 5 28 99 25 3 4 4 2 4 5 5
100 100 100 100 100 100 100 100 100 100 100 100 100 100 100 100 100 100 100 100 100 100 82 31 56 59 12 5 37 41 44 95 99 83 5 0 2 5 5 5 5 5 8
100 100 100 100 100 100 100 100 100 100 100 100 100 100 100 100 100 100 100 100 97 32 47 62 19 5 5 13 49 67 96 87 76 4 3 5 5 5 5 5 5 21 85

GFSMW_prec_cloud_054.txt.gz
Cloud_Cover
99 98 100 52 5 5 4 4 8 52 5 2 2 20 5 9 99 95 98 14 7 1 0 0 4 0 0 0 0 0 0 0 5 5 25 65 78 82 99 100 100 100 100
100 100 96 62 79 90 5 5 1 1 4 1 0 0 0 5 5 93 100 100 100 86 57 5 6 5 5 5 0 1 3 5 5 5 6 39 89 98 73 100 100 100 97
100 100 100 100 100 73 34 5 5 5 11 13 9 62 49 56 73 69 80 100 70 54 29 5 8 26 65 65 30 14 5 34 6 5 36 96 100 94 100 100 100 100 100
100 100 100 100 100 85 80 61 82 74 18 34 11 24 14 14 14 5 5 21 13 5 35 18 56 100 100 83 54 57 54 82 22 13 5 80 100 100 100 100 100 72 85
100 100 100 100 100 100 100 100 100 100 91 47 72 7 5 10 32 16 5 5 51 93 93 100 100 100 100 98 100 100 98 100 51 65 57 60 86 100 100 100 100 100 100
100 100 100 100 100 100 100 100 100 100 74 60 10 4 7 24 76 25 13 5 4 4 10 100 100 100 100 82 100 100 100 100 49 100 43 68 76 96 97 100 100 100 100
42 51 97 100 100 100 100 84 9 5 5 1 1 0 3 5 8 41 22 3 4 15 67 90 100 100 100 100 100 100 100 100 86 100 60 100 8 33 92 100 100 100 100
87 90 62 20 5 5 5 4 4 2 0 0 0 0 0 0 0 6 1 2 0 4 5 63 100 100 100 100 100 100 100 100 51 100 67 92 45 5 6 10 82 94 100
98 65 50 28 22 5 7 4 3 4 5 5 0 1 0 1 0 0 0 0 0 1 9 81 100 100 100 100 100 100 100 38 100 72 100 100 34 56 5 5 5 5 20
61 57 49 26 16 5 3 3 0 3 2 0 0 0 0 0 0 1 2 0 3 2 48 100 100 100 100 100 100 100 100 100 97 96 100 70 100 57 31 16 5 5 5
100 86 11 3 2 2 5 5 1 0 10 0 0 0 12 7 0 0 1 5 4 46 100 100 100 100 100 100 100 100 100 98 100 100 100 100 88 92 66 6 5 5 5
1 2 2 0 0 5 5 5 4 2 0 0 3 0 0 22 21 45 64 100 100 100 100 100 100 100 100 100 100 100 100 100 100 100 100 100 99 66 69 5 5 5 5
5 6 5 5 5 41 94 14 7 14 1 1 0 2 25 47 56 26 50 67 99 100 100 100 100 100 100 100 100 100 100 100 100 95 100 99 77 73 14 60 5 10 35
100 100 100 91 92 98 100 50 78 100 100 100 68 7 38 36 71 60 76 100 100 100 100 100 100 100 100 100 100 100 100 100 100 100 100 100 67 95 82 67 93 68 96
67 100 100 100 100 100 100 100 100 100 100 100 87 98 56 26 82 100 100 100 100 100 100 100 100 100 100 100 100 100 100 100 100 100 100 91 72 76 83 57 69 78 100
100 100 100 100 100 75 29 5 5 97 96 100 100 100 100 100 100 100 100 100 100 100 100 100 100 100 100 100 100 100 100 95 72 95 96 68 50 38 58 54 91 100 100
100 100 100 100 100 44 11 12 89 100 100 100 100 100 100 91 100 100 100 100 100 100 100 100 100 100 100 100 100 96 100 100 100 95 23 62 62 69 77 100 100 100 100
100 100 100 96 94 100 100 100 100 100 100 100 100 100 100 100 100 100 100 100 100 100 100 100 100 100 100 100 100 100 100 96 44 43 57 69 81 100 100 100 100 41 21
100 100 100 100 100 100 100 100 100 100 100 100 100 100 100 100 100 100 100 100 100 100 100 100 100 100 100 100 100 84 70 96 100 88 96 100 100 100 94 89 99 94 18
100 100 100 100 100 100 100 100 100 100 100 100 100 100 100 100 100 100 100 100 100 100 100 100 100 100 100 95 38 98 99 96 99 89 34 15 5 13 96 100 100 73 19
100 100 100 100 100 100 100 100 100 100 100 100 100 100 100 100 100 100 100 100 100 100 100 100 100 100 100 100 100 97 100 92 83 15 5 7 40 99 100 99 67 6 88
100 100 100 100 100 100 100 100 100 100 100 100 100 100 100 100 100 100 100 100 100 100 100 76 100 100 100 100 69 81 40 5 26 18 26 87 100 93 42 22 5 85 91
100 100 97 100 100 100 100 100 100 100 100 100 100 100 100 93 100 100 100 95 95 84 100 100 100 100 100 100 71 6 28 59 27 5 80 76 72 9 3 4 38 16 5
100 100 100 100 100 100 100 100 100 100 100 100 100 96 95 89 100 100 100 100 100 100 100 100 100 100 85 57 77 48 5 5 5 10 5 5 1 4 5 2 5 5 5
86 83 55 100 100 100 100 100 100 100 100 100 100 100 100 100 100 100 100 100 100 100 100 80 46 30 82 76 60 45 7 38 26 10 2 1 4 5 5 5 5 5 9
100 100 100 87 84 100 100 100 100 100 100 100 100 100 100 100 100 100 100 96 67 46 8 5 43 22 6 48 65 73 70 80 65 4 5 5 5 5 5 7 39 64 80

GFSMW_prec_cloud_057.txt.gz
Cloud_Cover
100 100 100 71 42 22 5 5 7 14 4 8 92 100 100 61 33 50 67 48 12 13 55 0 5 32 22 5 78 9 11 4 2 3 5 4 0 2 14 5 18 34 60
100 100 100 100 100 59 17 10 5 6 40 6 11 17 34 44 23 67 86 54 51 6 10 16 5 9 14 5 16 58 57 24 4 1 5 5 3 5 5 5 5 5 51
100 100 100 100 100 100 84 83 18 5 7 64 100 79 76 96 91 72 21 92 68 5 39 18 9 24 49 59 86 100 91 91 5 18 11 0 4 5 5 5 5 5 6
100 100 100 100 100 100 87 35 32 41 73 94 100 95 9 9 20 17 4 5 5 5 5 5 15 97 100 100 100 100 100 53 69 95 54 5 9 9 5 5 5 5 66
100 100 100 100 100 98 100 100 100 89 12 38 65 41 5 49 92 100 33 17 6 7 5 37 67 33 100 100 100 100 100 100 100 100 100 100 43 60 67 100 26 5 7
100 100 100 100 100 100 100 100 100 100 100 100 98 87 100 100 100 100 100 79 47 6 22 15 65 97 89 100 100 100 100 100 100 100 100 100 57 46 5 29 44 5 5
98 74 100 100 100 100 100 100 100 100 100 100 100 68 26 29 96 100 94 76 93 80 58 85 56 86 88 97 100 100 100 100 100 100 100 100 100 100 83 40 37 8 71
100 98 100 100 100 100 100 100 89 56 49 77 89 95 89 54 16 18 26 91 43 86 43 50 40 65 94 100 100 100 100 100 100 100 100 100 100 100 74 66 44 24 5
100 92 45 86 95 67 46 40 16 6 5 5 4 4 13 19 5 6 9 6 51 97 55 24 42 56 99 100 100 100 100 100 100 100 100 100 100 100 84 89 71 42 11
41 17 51 76 86 90 60 26 5 6 5 4 5 1 11 7 28 57 77 32 0 1 3 6 60 93 100 100 100 100 100 100 100 100 100 100 100 80 65 56 98 100 19
4 5 5 5 5 4 5 4 3 4 2 2 4 25 46 33 19 15 5 5 5 5 4 2 10 90 100 100 100 100 100 100 100 100 100 100 100 92 100 75 72 100 99
6 5 5 5 10 5 5 5 5 4 0 5 18 48 64 45 31 38 41 23 21 18 29 55 90 100 100 100 100 100 100 100 100 100 100 100 100 100 100 97 100 99 97
96 78 38 42 98 20 5 5 5 5 5 27 64 47 58 64 88 100 100 100 100 83 73 99 100 100 100 100 100 100 100 100 100 100 100 100 100 100 97 100 100 100 100
5 5 5 10 23 5 14 68 92 87 82 100 100 88 100 100 100 100 100 100 100 100 100 100 100 100 100 100 100 100 100 100 100 100 100 100 100 100 100 100 100 93 100
32 5 9 32 84 68 100 24 37 100 90 100 100 100 100 100 100 100 100 100 100 100 100 100 100 100 100 100 100 100 100 100 100 100 100 100 100 100 100 100 100 95 52
52 52 99 100 100 100 15 13 64 15 71 100 100 100 100 100 100 100 100 100 100 100 100 100 100 100 100 100 100 100 100 100 100 100 100 100 100 99 100 90 24 97 99
94 100 100 100 100 100 67 99 77 100 93 100 100 100 100 100 100 100 100 100 100 100 100 100 100 100 100 100 100 100 100 100 100 100 100 100 100 76 63 96 100 71 99
100 100 100 100 100 100 100 100 100 100 100 100 100 100 100 100 100 100 100 100 100 100 100 100 100 100 100 100 100 100 100 100 100 100 98 96 62 100 100 100 99 18 19
100 100 100 100 100 100 100 100 100 100 100 100 100 100 100 100 100 100 100 100 100 100 100 100 100 100 100 100 100 100 100 100 100 100 97 100 100 100 94 8 82 88 5
100 100 100 100 100 100 100 100 100 100 100 100 100 100 100 100 100 100 100 100 100 100 100 100 100 100 100 100 100 100 100 100 98 99 99 100 72 46 83 98 87 8 5
100 100 100 100 100 100 100 100 100 100 100 100 100 100 100 100 100 100 100 100 100 100 100 100 100 100 100 100 97 100 100 82 74 95 97 7 16 96 98 94 46 6 76
100 100 100 100 100 100 100 100 100 100 100 100 100 100 100 100 100 100 100 100 100 99 100 100 100 100 100 100 100 100 100 100 100 70 36 34 84 67 38 5 10 87 90
100 90 100 100 100 100 100 100 100 100 100 100 100 100 100 100 100 100 100 100 100 100 91 87 72 99 100 100 100 100 100 99 63 42 64 16 7 5 3 5 33 20 5
100 100 96 100 100 100 100 100 100 100 100 100 100 100 100 100 100 100 100 100 100 100 100 100 100 100 100 100 98 60 30 12 15 8 5 4 0 4 5 5 5 5 5
100 84 100 100 100 100 100 100 100 100 100 100 100 100 100 100 100 100 100 100 100 100 100 95 84 94 93 84 71 74 82 93 25 12 1 1 5 5 5 5 5 5 8
97 75 100 100 100 100 100 100 100 92 100 100 100 100 100 100 95 82 100 80 68 64 58 85 92 78 36 89 78 79 81 66 26 4 5 5 5 5 21 59 60 60 69

GFSMW_prec_cloud_060.txt.gz
Cloud_Cover
100 100 100 100 100 98 100 69 73 49 32 97 100 100 100 100 100 99 94 100 71 11 5 5 21 83 28 5 4 2 0 0 0 5 5 5 5 5 4 2 4 5 0
100 100 100 100 100 100 100 96 99 100 94 54 75 80 70 100 100 100 98 97 26 17 95 59 64 75 89 78 5 5 5 8 10 11 38 5 5 5 2 5 5 5 5
100 100 100 100 100 100 100 100 100 100 100 100 100 100 100 100 100 100 99 21 8 6 74 57 47 94 98 88 27 89 24 72 47 96 59 16 41 64 10 5 5 5 5
100 100 100 100 100 100 100 100 100 96 98 100 100 100 100 97 100 72 61 67 48 15 5 5 44 56 87 70 85 98 100 100 100 100 100 99 99 99 100 90 58 5 5
80 100 100 100 100 100 100 100 100 100 100 100 100 100 100 100 100 100 100 81 46 87 37 7 69 100 100 70 92 100 95 61 100 100 100 100 100 100 100 100 100 100 100
69 46 9 36 82 100 100 100 100 100 73 82 62 98 100 100 100 100 100 100 100 99 86 90 82 98 100 100 100 99 98 99 100 94 100 100 100 100 100 100 100 100 100
100 100 100 92 100 100 100 100 100 100 100 100 100 97 97 100 100 100 100 100 100 100 100 97 33 37 95 100 100 93 75 100 100 100 100 100 100 100 100 100 100 100 100
100 96 100 100 97 77 30 74 99 100 100 100 100 100 100 92 6 5 8 59 100 100 100 100 100 100 100 99 100 98 100 100 100 100 100 100 100 100 100 100 100 100 100
100 100 100 84 80 99 100 100 100 92 61 99 100 100 100 99 82 13 8 20 10 47 99 100 100 100 90 97 100 100 100 100 100 100 100 100 100 100 100 100 100 100 100
26 81 100 100 94 55 72 68 65 58 44 11 19 44 38 6 5 24 37 31 49 70 100 100 100 98 100 100 100 100 100 100 100 100 100 100 100 100 100 100 100 100 100
5 5 13 35 86 68 35 29 27 13 12 5 5 4 15 41 48 50 55 51 52 94 100 100 100 100 100 100 100 100 100 100 100 100 100 100 100 100 100 100 100 100 100
5 5 5 5 2 6 6 6 5 0 2 8 22 87 100 100 100 100 100 97 100 100 100 100 100 100 100 100 100 100 100 100 100 100 100 100 100 100 100 100 100 100 100
23 5 5 5 5 4 1 2 3 4 5 5 12 100 100 100 100 100 100 100 100 100 100 100 100 100 100 100 100 100 100 100 100 100 100 100 100 100 100 100 100 100 100
18 5 5 26 5 5 5 14 5 5 5 5 6 68 100 100 100 100 100 100 100 100 100 100 100 100 100 100 100 100 100 100 100 100 100 100 100 100 100 100 100 100 100
27 40 26 9 5 26 22 92 11 5 5 5 5 91 100 100 100 100 100 100 100 100 100 100 100 100 100 100 100 100 100 100 100 100 100 100 100 100 100 100 100 100 100
59 53 54 9 98 54 28 5 5 5 5 28 20 100 100 100 100 100 100 100 100 100 100 100 100 100 100 100 100 100 100 100 100 100 100 100 100 100 100 100 100 100 100
100 100 94 81 59 99 100 65 51 89 52 100 100 100 100 100 100 100 100 100 100 100 100 100 100 100 100 100 100 100 100 100 100 100 100 100 100 100 98 97 100 100 100
100 100 100 40 100 100 100 100 100 100 100 100 100 100 100 100 100 100 100 100 100 100 100 100 100 100 100 100 100 100 100 100 100 100 100 100 100 100 100 100 100 100 86
65 100 100 100 100 100 100 100 100 100 100 100 100 100 100 100 100 100 100 100 100 100 100 100 100 100 100 100 100 100 100 100 100 97 100 100 100 100 100 79 100 100 100
85 100 100 100 100 100 100 100 100 100 100 100 100 100 100 100 100 100 100 100 100 100 100 100 100 100 100 100 100 100 100 99 100 100 100 88 91 100 100 100 100 100 94
100 100 100 100 100 100 100 100 100 100 100 100 100 100 100 100 100 100 100 100 100 100 100 100 100 100 100 100 100 100 100 100 100 78 79 97 99 100 100 98 41 6 57
100 100 100 100 100 39 90 100 100 100 100 100 100 100 100 100 100 100 100 100 100 100 100 100 84 91 99 100 100 100 100 100 100 100 100 100 100 71 6 5 23 98 89
98 100 100 100 100 99 100 100 100 100 100 100 100 100 100 98 100 100 100 100 100 100 100 100 100 100 100 100 100 100 100 100 100 100 76 68 7 5 4 10 64 24 5
100 100 100 100 100 100 100 100 100 100 100 100 81 85 88 100 100 100 98 100 96 100 100 100 100 100 100 100 100 94 100 99 52 24 9 5 4 5 5 5 5 5 5
99 100 100 100 100 100 100 100 100 100 100 100 100 100 100 100 100 100 100 100 100 100 95 76 68 99 100 98 92 58 56 59 84 68 5 2 5 5 5 5 5 5 6
68 100 100 99 100 100 100 100 99 67 88 100 95 100 100 100 98 90 78 73 48 44 55 80 67 68 60 74 74 85 88 50 27 4 5 5 5 5 14 44 50 19 27

GFSMW_prec_cloud_063.txt.gz
Cloud_Cover
100 100 100 100 100 100 96 46 8 54 56 100 100 100 100 100 100 100 88 83 97 100 100 88 94 48 63 42 7 5 67 93 8 5 5 5 5 5 5 0 2 0 0
100 100 100 100 100 100 100 100 100 100 80 76 100 100 100 100 100 100 100 89 53 71 97 100 100 100 100 100 98 34 24 26 5 31 8 17 5 80 5 5 5 5 5
100 100 100 100 100 100 100 100 100 98 73 70 100 100 96 97 100 100 100 100 71 100 95 99 100 100 100 100 91 75 46 57 31 100 75 39 42 51 80 46 27 28 46
66 56 100 100 100 100 100 100 100 100 100 100 100 100 100 100 100 100 100 100 100 100 100 100 100 100 100 100 100 100 100 100 100 95 56 88 100 100 100 100 99 92 98
87 99 99 98 92 98 100 100 100 100 100 100 100 100 100 100 100 100 100 100 100 100 100 100 95 100 62 98 100 100 100 100 100 100 100 100 100 100 100 100 100 100 100
59 46 21 5 5 16 79 100 100 96 100 100 100 100 100 100 100 100 100 100 100 100 100 100 100 100 100 100 100 97 100 100 100 100 98 100 100 100 100 100 100 100 100
74 89 76 52 9 5 5 71 100 100 100 100 100 100 100 100 100 100 100 100 100 100 100 100 100 100 100 100 100 100 100 100 100 100 100 100 100 100 100 100 100 100 100
100 100 100 98 100 97 91 100 100 100 99 92 100 100 99 90 94 100 100 100 100 100 100 100 100 99 99 100 100 100 100 100 100 100 100 100 100 100 100 100 100 99 100
100 100 100 100 100 100 100 77 48 31 36 94 100 99 98 100 100 100 100 100 99 100 100 100 100 100 100 100 100 100 100 100 100 100 100 100 100 100 100 100 100 100 100
100 100 100 100 100 100 100 100 100 100 100 100 95 53 44 9 5 8 5 38 44 78 99 100 100 100 100 100 100 100 100 100 100 100 100 100 100 100 100 100 100 100 100
59 94 99 97 100 100 100 97 40 54 46 32 15 50 91 92 90 86 88 98 100 100 100 100 100 100 100 100 100 100 100 100 100 100 100 100 100 100 100 100 100 100 100
20 13 5 14 36 95 99 76 10 7 5 5 61 100 100 100 100 100 100 100 100 100 100 100 100 100 100 100 100 100 100 100 100 100 100 100 100 100 100 100 100 100 100
5 20 45 36 32 76 25 3 4 3 0 1 9 52 23 46 74 100 100 100 100 100 100 100 100 100 100 100 100 100 100 100 100 100 100 100 100 100 100 100 100 100 100
5 7 5 38 32 5 4 5 5 5 4 5 10 49 98 70 49 100 100 100 100 100 100 100 100 100 100 100 100 100 100 100 100 100 100 100 100 100 100 100 100 100 100
5 17 98 5 5 5 5 5 5 3 0 0 0 16 53 84 99 100 100 100 100 100 100 100 100 100 100 100 100 100 100 100 100 100 100 100 100 100 100 100 100 100 100
100 94 100 35 5 5 5 5 5 4 0 5 0 28 100 100 100 100 100 100 100 100 100 100 100 100 100 100 100 100 100 100 100 100 100 100 100 100 100 100 100 100 100
24 100 100 99 5 5 5 5 5 5 76 59 100 96 100 100 100 100 100 100 100 100 100 100 100 100 100 100 100 100 100 100 100 100 100 100 100 100 100 100 100 100 100
44 67 100 98 13 5 5 5 5 41 59 98 100 100 99 100 100 100 100 100 100 100 100 100 100 100 100 100 100 100 100 100 100 100 100 100 100 100 100 100 100 100 100
17 98 100 100 100 95 83 62 97 90 100 100 100 100 100 100 100 100 100 100 100 100 100 100 100 100 100 100 100 100 100 100 100 100 100 100 100 100 100 100 100 100 100
26 90 100 100 100 100 96 100 99 100 100 100 100 100 100 100 100 100 100 100 100 100 100 100 100 100 100 100 100 100 100 98 99 100 100 100 100 100 100 100 100 100 90
96 100 100 100 100 100 100 100 100 100 100 100 100 100 100 100 100 100 100 100 100 100 100 100 100 100 100 100 85 98 100 100 100 100 100 100 100 100 100 100 99 59 83
58 100 100 100 96 80 100 100 100 100 100 100 100 100 100 100 100 86 79 82 100 100 100 100 98 98 100 100 100 100 100 100 100 100 100 100 100 100 88 20 68 96 30
100 100 65 100 98 96 100 100 100 100 100 100 100 97 62 66 99 100 100 100 100 100 100 100 100 100 100 100 100 100 100 100 100 100 100 100 44 34 56 29 34 12 5
98 100 100 100 100 100 100 100 100 99 72 56 43 6 34 83 100 100 100 100 98 85 82 58 53 45 82 85 87 100 98 97 74 81 94 59 38 5 5 5 5 5 8
100 96 97 99 100 100 100 99 100 75 34 6 21 95 100 100 79 19 5 7 35 37 40 38 46 34 19 14 54 90 96 100 100 75 20 6 5 5 5 5 5 5 14
100 98 71 87 100 100 100 100 93 50 92 100 100 100 100 98 48 26 49 57 56 56 57 57 55 13 5 29 80 83 86 32 38 5 5 5 5 5 18 13 29 43 77

GFSMW_prec_cloud_066.txt.gz
Cloud_Cover
100 100 100 100 100 100 78 64 5 5 5 30 100 100 100 100 100 99 34 32 7 7 5 5 5 5 8 100 100 100 100 100 100 100 100 100 52 28 5 6 5 5 5
100 100 100 100 100 100 100 100 22 57 29 7 46 20 75 100 100 100 100 100 83 30 15 85 91 98 70 77 99 100 100 100 100 100 100 100 100 58 10 26 33 46 50
100 100 100 100 100 100 100 100 69 91 16 8 5 30 68 100 100 100 100 100 100 100 100 89 100 100 82 12 25 100 100 100 100 100 100 100 100 100 100 21 61 78 96
98 100 100 100 100 100 100 100 100 100 96 84 26 57 90 83 100 100 100 100 100 100 100 100 100 100 100 100 80 99 100 100 100 100 100 99 73 98 67 86 50 44 100
100 72 97 100 100 100 100 100 100 100 100 100 100 100 100 100 93 100 100 100 100 100 100 100 100 100 100 100 100 100 100 100 82 100 100 100 100 96 96 82 100 100 100
100 100 100 76 53 98 100 100 100 100 100 100 100 100 100 100 100 100 100 100 100 100 100 100 100 100 100 100 100 100 100 100 100 100 100 100 100 100 100 100 100 100 100
93 92 100 97 100 100 90 67 93 97 100 100 92 90 97 100 100 100 100 100 100 100 100 100 100 100 100 100 100 100 100 100 100 100 100 100 100 100 100 100 100 100 100
100 74 95 94 45 16 10 6 56 95 84 75 82 94 100 100 100 100 100 100 100 100 100 100 100 100 100 100 100 100 100 100 100 100 100 100 100 100 100 100 100 100 100
100 100 100 99 100 97 97 81 45 48 74 100 100 100 100 100 100 100 100 100 100 100 100 100 100 100 100 100 100 100 100 100 100 100 100 100 100 100 100 100 100 100 100
100 100 94 27 22 14 34 96 94 69 72 100 100 100 100 100 100 100 100 100 100 100 100 100 100 100 100 100 100 100 100 100 100 100 100 100 100 100 100 100 100 100 100
100 100 63 79 98 99 95 93 100 100 100 100 100 100 96 56 95 89 50 22 42 92 100 100 100 100 100 100 100 100 100 100 100 100 100 100 100 100 100 100 100 100 100
100 100 100 97 54 6 12 11 10 35 53 49 73 42 20 6 14 13 34 65 96 96 100 86 100 100 100 100 100 100 100 100 100 100 100 100 100 100 100 100 100 100 100
10 5 5 5 2 2 3 5 30 30 18 57 32 36 16 1 8 5 5 16 56 91 100 100 100 100 100 100 100 100 100 100 100 100 100 100 100 100 100 100 100 100 100
5 5 5 5 5 5 3 3 2 2 3 1 4 38 94 64 0 1 10 80 100 100 100 100 100 100 100 100 100 100 100 100 100 100 100 100 100 100 100 100 100 100 100
66 53 81 78 5 5 5 5 2 0 1 0 0 1 13 60 81 100 100 100 100 100 100 100 100 100 100 100 100 100 100 100 100 100 100 100 100 100 100 100 100 100 100
100 90 44 90 7 5 5 5 5 5 5 12 3 10 54 98 70 99 100 100 100 100 100 100 100 100 100 100 100 100 100 100 100 100 100 100 100 100 100 100 100 100 100
100 87 39 93 98 6 5 5 5 5 5 78 82 23 56 72 94 94 91 99 100 100 100 100 100 100 100 100 100 100 100 100 100 100 100 100 100 100 100 100 100 100 100
100 11 93 98 94 18 38 50 16 18 16 92 54 52 52 78 94 100 100 100 100 100 100 100 100 100 100 100 100 100 100 100 100 100 100 100 100 100 98 100 100 100 100
79 7 25 85 100 98 81 94 94 82 77 42 100 90 98 97 100 100 100 100 100 100 100 100 100 100 100 100 100 100 100 100 100 100 100 100 100 100 100 100 100 100 100
51 88 100 100 98 88 100 100 100 100 99 100 100 100 100 100 100 100 100 100 100 100 100 100 100 98 100 100 100 100 100 100 100 100 100 100 100 100 100 100 100 100 100
19 100 100 100 88 96 100 100 100 100 100 100 100 100 100 100 100 100 100 96 89 92 100 97 98 100 100 100 100 100 100 100 100 100 100 100 100 100 100 100 100 100 95
16 97 100 100 100 98 98 100 100 100 100 100 100 100 100 100 77 49 61 92 97 100 100 99 98 100 100 100 100 100 100 100 100 100 100 100 100 100 100 97 83 88 37
64 100 100 100 100 100 100 100 100 100 100 100 100 89 86 9 5 42 61 90 74 47 6 5 12 42 45 6 5 5 18 100 100 100 100 94 68 23 5 5 6 5 5
88 100 91 100 100 100 100 100 100 100 100 98 33 5 5 5 9 60 58 66 65 46 7 5 5 5 5 5 5 13 36 82 83 54 49 17 5 5 5 4 5 5 5
76 100 100 100 100 100 100 100 100 96 50 5 5 7 49 100 49 51 72 78 51 5 5 5 5 7 30 20 43 47 8 22 6 5 5 5 5 5 5 5 5 5 6
59 100 100 100 100 99 95 78 48 42 5 5 27 91 100 96 100 83 52 5 5 5 13 36 44 19 34 67 85 74 76 10 5 5 2 3 5 5 5 5 28 87 92

GFSMW_prec_cloud_069.txt.gz
Cloud_Cover
100 100 100 100 100 100 100 89 91 99 74 15 38 74 100 72 27 5 9 17 5 5 5 10 6 5 5 38 95 76 95 66 58 59 92 85 100 100 100 100 100 100 89
100 100 100 100 100 100 100 100 75 65 53 52 97 94 91 100 100 100 15 9 13 5 10 25 46 46 80 100 100 100 90 100 44 66 74 100 100 100 100 100 100 100 99
100 100 100 100 100 100 100 100 100 100 100 94 19 95 96 89 88 99 100 100 66 62 32 9 100 100 100 100 100 100 100 100 100 100 84 100 100 99 100 100 100 87 96
100 100 100 100 100 100 100 100 100 100 100 85 83 8 8 8 25 6 36 70 100 100 100 100 99 100 100 100 100 100 100 99 100 98 100 100 99 100 100 100 100 100 100
100 100 100 100 100 100 100 100 100 100 100 100 56 16 5 5 9 7 5 5 40 66 99 100 100 100 100 100 100 100 100 100 100 100 100 100 100 100 100 100 100 100 100
100 100 100 100 100 100 100 100 100 100 100 100 100 76 67 42 61 90 100 93 78 25 92 100 100 100 100 100 100 100 100 100 100 100 100 100 100 100 100 100 100 100 100
100 100 100 100 100 100 100 100 100 100 100 100 95 96 96 100 100 93 100 100 100 100 100 98 100 100 100 100 100 100 100 100 100 100 100 100 100 100 100 100 100 100 100
100 100 100 100 100 100 100 95 87 93 97 100 61 71 78 64 73 100 100 100 100 100 100 100 100 100 100 100 100 100 100 100 100 100 100 100 100 100 100 100 100 100 100
60 74 100 100 100 89 83 98 100 100 100 100 95 93 97 100 100 100 100 100 100 100 100 100 100 100 100 100 100 100 100 100 100 100 100 100 100 100 100 100 100 100 100
100 100 100 98 76 28 12 62 95 100 100 100 99 100 99 100 99 87 55 72 85 77 99 100 100 100 100 100 100 100 100 100 100 100 100 100 100 100 100 100 100 100 100
100 100 100 100 96 99 100 100 100 81 50 85 100 99 88 89 95 100 100 100 100 100 100 100 91 47 82 98 100 100 100 100 100 100 100 100 100 100 100 100 100 100 100
100 100 100 100 100 100 100 70 98 31 34 76 90 90 92 90 38 17 13 47 89 36 47 80 96 94 91 98 100 100 100 100 100 100 100 100 100 100 100 100 100 100 100
100 100 100 100 100 100 100 100 99 80 93 96 41 12 5 4 3 2 1 0 0 0 36 89 97 75 100 100 100 100 100 100 100 100 100 100 100 83 100 98 100 100 100
100 100 100 100 100 100 100 87 100 55 22 19 4 2 0 0 0 0 0 0 8 32 99 100 100 100 100 100 100 100 100 100 100 100 100 100 100 100 100 100 100 100 100
100 100 100 100 100 100 100 79 29 2 0 0 0 16 12 3 3 51 86 92 100 85 61 85 100 100 100 100 100 100 100 100 100 100 100 100 100 100 100 100 100 100 99
100 100 83 36 57 14 5 5 5 5 5 1 0 19 56 80 78 74 45 57 88 65 73 98 100 100 100 100 100 100 100 100 100 100 100 100 100 100 100 100 100 100 100
100 98 53 95 100 34 11 5 5 5 5 5 7 31 91 92 100 100 100 100 100 100 100 100 100 100 100 100 100 100 100 100 100 100 100 100 100 100 100 100 100 100 100
100 100 100 100 45 94 42 5 5 5 5 20 66 77 100 100 100 100 100 100 100 100 100 100 100 100 100 100 100 100 100 100 100 100 100 100 100 100 100 100 100 100 100
100 46 32 6 96 100 72 37 73 50 51 58 100 100 100 100 100 100 100 100 100 100 100 100 100 97 72 70 71 88 100 100 100 100 100 100 100 100 100 100 100 100 100
100 100 93 91 88 85 96 100 97 93 100 100 100 100 100 100 100 100 100 100 100 100 100 70 41 24 19 98 100 100 100 100 100 100 100 100 100 100 100 100 100 100 100
5 5 70 99 100 100 100 100 100 100 100 100 100 100 100 100 100 100 100 92 80 42 5 5 6 9 5 6 31 60 69 84 96 100 100 100 100 100 100 100 100 100 89
31 37 89 100 100 100 96 100 100 100 100 100 100 100 100 100 72 45 22 2 5 5 5 5 5 5 5 5 5 5 5 5 5 5 5 6 8 17 14 8 16 70 63
73 60 100 100 100 100 100 100 100 100 100 100 100 82 37 5 5 4 4 5 5 5 5 5 5 18 5 5 5 5 5 5 5 5 5 5 5 5 5 5 5 5 5
47 33 48 100 100 100 100 100 100 100 100 70 73 6 5 5 5 24 97 39 13 45 47 7 37 5 5 5 42 21 5 5 5 5 5 5 5 1 1 2 5 5 5
69 75 93 100 100 100 100 100 100 100 98 71 16 5 5 11 99 100 100 100 99 60 18 12 11 5 5 5 5 5 5 5 5 5 5 2 1 5 5 5 5 5 5
47 100 99 100 100 100 100 100 100 58 5 5 32 30 70 99 100 100 100 100 40 8 11 5 5 5 5 5 5 10 68 11 5 5 5 0 5 5 5 5 5 43 84

GFSMW_prec_cloud_072.txt.gz
Cloud_Cover
100 100 100 100 100 100 100 99 100 100 100 87 98 48 92 65 72 98 100 18 5 7 5 5 5 5 5 1 5 5 5 5 5 23 65 74 100 100 100 99 100 96 74
100 100 100 100 100 100 100 99 100 100 87 63 89 30 47 100 100 100 99 25 5 6 5 5 5 5 5 5 15 5 63 98 30 7 22 44 70 100 100 100 100 100 100
100 100 100 100 100 100 100 98 100 100 100 93 100 100 100 100 100 100 97 41 8 5 5 5 5 39 16 17 28 70 100 99 100 89 44 89 94 100 100 100 100 100 100
100 100 100 100 100 100 100 100 100 100 100 100 100 100 100 100 100 20 6 13 50 5 5 12 11 61 99 85 100 98 100 100 100 99 100 100 100 100 100 100 100 100 100
100 100 100 100 100 100 100 100 100 100 100 100 100 100 62 98 98 43 16 5 5 5 5 2 9 96 84 73 75 97 100 100 100 100 100 100 100 100 100 100 100 100 100
100 100 100 100 100 100 100 100 100 100 100 100 92 97 98 13 47 92 41 5 5 7 69 74 99 94 100 100 100 100 100 76 100 100 100 100 100 100 100 100 100 100 100
100 100 100 100 100 100 100 100 100 100 100 100 100 89 100 70 12 5 5 66 82 73 76 98 100 100 100 100 100 100 100 100 100 100 100 100 100 100 100 100 100 100 100
100 100 100 100 100 100 100 100 100 100 100 100 72 100 33 57 19 16 14 5 16 41 78 100 100 100 100 100 100 100 100 100 100 100 100 100 100 100 100 100 100 100 100
100 100 100 100 100 100 100 100 100 100 100 100 100 100 70 88 95 70 71 96 99 100 100 99 100 100 100 100 100 100 100 100 100 100 100 100 100 100 100 100 100 100 100
100 100 100 100 100 100 100 100 100 100 100 100 100 100 100 100 100 100 100 100 93 86 99 82 37 61 100 100 100 100 100 100 100 100 100 100 100 100 100 100 100 100 100
100 100 100 100 100 100 98 87 70 92 100 100 100 100 100 97 89 19 43 10 35 37 21 26 97 100 100 68 91 86 100 100 100 100 100 100 100 100 100 100 100 100 100
100 100 100 100 100 100 100 99 72 74 100 100 100 100 100 98 98 42 16 7 32 74 78 50 65 77 63 60 98 100 100 100 100 100 100 100 100 100 100 100 100 100 100
100 100 100 100 100 100 100 100 100 100 100 100 100 100 100 100 84 56 100 53 88 16 23 0 0 4 6 54 98 100 100 100 100 100 100 100 100 100 100 100 100 100 100
100 100 100 100 100 100 100 100 100 100 100 100 100 100 100 100 99 81 88 21 64 0 0 0 1 19 72 76 87 98 100 100 100 100 100 100 100 100 100 100 100 100 100
100 100 100 100 100 100 100 100 100 100 100 100 100 93 97 100 63 76 24 11 18 23 79 72 90 61 72 52 72 84 100 100 100 100 100 100 100 100 100 100 100 100 100
100 100 100 100 100 100 100 100 100 100 100 100 99 80 38 73 96 89 100 100 100 100 100 100 96 85 76 83 93 44 100 100 100 100 100 100 100 100 100 100 100 100 100
100 100 100 100 100 100 100 100 100 100 100 89 52 42 88 100 100 100 100 100 100 100 100 100 100 100 100 100 86 41 58 91 93 100 99 100 99 100 100 100 100 100 100
100 100 100 95 88 100 100 95 84 30 5 6 36 98 100 100 100 100 100 100 100 100 100 100 100 100 100 100 90 62 80 100 85 64 64 76 100 100 100 100 100 100 100
100 100 100 100 91 80 100 32 26 41 41 10 92 96 100 100 100 100 100 100 100 100 100 99 39 51 37 66 18 10 6 6 5 11 94 100 100 100 100 100 100 100 100
100 100 100 100 100 100 100 82 100 100 98 100 100 100 100 100 100 100 100 100 100 96 81 21 5 5 5 5 5 1 4 3 2 1 4 5 5 52 63 5 5 5 5
100 100 100 81 100 100 100 100 100 100 100 100 100 100 100 100 100 100 78 62 12 4 5 5 5 5 5 5 5 5 5 5 5 5 5 5 5 5 5 5 5 4 15
100 100 100 100 100 100 100 100 100 100 100 100 100 100 100 100 98 38 7 3 1 0 3 19 17 5 5 5 5 5 5 5 5 5 5 5 6 5 5 5 47 70 26
6 5 76 100 98 91 94 100 100 100 100 100 100 100 70 11 5 4 2 5 5 5 52 85 20 5 5 5 5 5 2 1 5 5 5 5 5 5 2 5 5 5 2
5 13 33 98 100 100 100 100 100 100 100 100 100 10 5 5 5 5 5 6 84 100 100 75 5 5 5 5 5 5 5 5 5 5 5 5 5 4 5 2 2 5 5
97 71 58 100 100 100 100 100 100 100 100 92 8 6 5 5 5 5 12 90 100 100 100 100 28 5 5 5 5 5 5 5 5 5 5 5 5 5 5 5 5 5 5
38 31 85 100 100 100 100 100 100 100 89 100 72 6 5 39 29 48 100 100 100 100 100 85 6 5 5 5 5 5 5 5 5 8 12 5 5 5 5 5 5 6 94

GFSMW_prec_cloud_075.txt.gz
Cloud_Cover
100 100 100 100 26 5 39 94 71 5 17 5 5 5 51 95 100 100 100 58 20 12 49 100 67 5 5 5 5 5 3 4 3 0 1 1 5 15 68 81 95 100 100
100 100 100 100 100 100 100 100 72 94 76 5 5 65 78 100 94 98 100 90 77 100 100 96 30 31 6 5 5 5 5 9 47 18 26 20 30 97 96 90 100 100 100
100 100 100 100 100 100 100 100 100 69 95 75 30 52 84 100 100 100 95 100 100 100 100 97 100 93 65 5 5 5 5 5 24 23 13 20 6 34 89 100 100 100 100
100 100 100 100 100 100 100 100 100 100 100 100 100 100 100 100 100 100 100 100 100 96 99 100 100 29 5 5 5 54 46 91 90 96 100 100 100 74 66 100 100 100 100
100 100 100 100 100 100 100 100 100 62 39 66 49 93 100 100 100 100 98 6 65 100 77 96 29 47 81 25 27 45 78 58 62 100 100 100 100 100 100 100 100 100 100
100 100 100 100 100 100 100 100 100 89 78 46 52 80 98 100 100 100 100 90 38 26 85 26 72 92 41 22 84 98 100 100 100 100 100 100 92 100 100 100 100 100 100
100 100 100 100 100 100 100 100 100 100 100 100 59 92 100 74 28 41 84 100 100 98 28 12 36 5 20 39 100 100 100 100 100 70 100 100 100 100 100 100 100 100 100
100 100 100 100 100 100 100 100 100 100 100 100 100 99 99 64 79 96 69 54 80 78 98 79 98 81 100 100 100 100 100 100 100 98 100 100 100 100 100 100 100 100 100
99 100 100 100 100 100 100 100 100 100 100 100 100 100 98 100 100 100 74 25 89 41 27 100 81 100 100 100 46 98 100 100 100 100 100 100 100 100 100 100 100 100 100
100 99 100 100 100 100 100 100 100 71 62 76 82 99 100 93 90 87 41 81 99 100 100 92 37 98 43 16 72 62 82 90 100 100 100 100 100 100 100 100 100 100 100
100 100 100 100 100 100 100 100 100 100 100 100 100 100 100 100 94 100 100 100 100 100 100 86 65 78 44 74 73 88 99 99 100 100 100 100 100 100 100 100 100 100 100
100 79 91 100 100 100 100 100 100 100 100 100 100 100 98 100 100 100 100 100 100 100 99 97 83 98 75 49 98 100 98 100 100 100 100 100 100 100 100 100 100 100 100
100 100 100 100 100 100 100 100 100 100 100 100 100 100 100 100 100 100 100 100 100 100 100 84 100 81 86 5 3 0 15 63 100 100 100 100 100 100 100 100 100 100 100
100 100 100 100 100 100 100 100 100 100 100 100 100 100 100 100 100 100 100 100 100 98 100 93 59 10 5 0 0 0 21 47 85 100 100 100 100 100 100 100 100 100 100
100 100 100 100 100 100 100 100 100 100 100 100 100 100 100 100 100 100 100 100 100 94 77 36 21 68 30 70 12 44 73 100 100 100 100 100 100 100 100 100 100 100 100
100 100 100 100 100 100 100 100 100 100 100 100 100 100 100 100 100 100 100 100 100 100 100 100 99 70 99 80 47 16 86 56 90 72 100 100 100 100 100 100 100 100 100
100 100 100 100 100 100 100 100 100 100 100 100 100 100 100 100 100 100 100 100 100 100 100 100 100 100 100 100 95 33 12 24 62 80 55 36 71 95 63 58 18 42 76
100 100 100 100 100 100 100 100 100 100 100 100 100 100 100 100 100 100 100 100 100 100 100 100 100 100 100 100 94 68 49 25 22 26 20 9 5 5 5 5 13 33 26
100 100 100 100 100 100 100 100 100 100 100 100 97 100 100 100 100 100 100 100 100 100 100 96 44 10 7 4 5 6 5 5 5 5 5 3 4 22 80 5 6 5 5
100 100 100 100 100 100 100 100 100 100 100 82 100 100 100 100 100 100 100 100 100 41 30 13 5 2 5 5 5 5 5 3 3 4 0 5 5 5 11 5 5 2 0
92 91 97 100 100 100 100 100 100 100 100 100 100 100 100 100 100 100 100 21 16 6 5 5 5 1 5 5 5 5 2 0 0 0 0 0 5 5 5 5 4 3 28
98 92 100 100 100 100 100 100 100 100 100 100 100 100 100 100 100 75 16 5 5 6 0 0 5 5 58 14 5 5 5 5 0 0 4 2 5 5 5 5 22 70 19
100 100 100 100 100 100 100 100 100 100 100 100 100 100 100 70 43 5 5 5 3 0 4 5 5 70 93 5 12 5 5 5 4 2 5 5 5 5 6 5 5 5 0
100 100 100 100 100 100 100 100 100 100 100 99 94 80 15 19 5 5 5 5 5 5 5 5 21 90 82 52 6 5 5 5 5 5 5 9 42 13 5 5 5 5 5
73 7 5 5 47 100 100 100 100 100 100 100 78 5 2 5 9 5 5 5 5 5 5 18 76 100 100 96 10 5 5 5 5 5 15 6 5 5 5 5 5 5 6
100 100 100 50 94 100 100 100 100 98 97 100 16 45 72 98 93 38 6 5 5 8 52 78 100 100 63 5 5 5 5 5 5 12 5 5 5 5 5 5 5 5 94

GFSMW_prec_cloud_078.txt.gz
Cloud_Cover
100 100 82 31 100 80 5 5 78 92 76 100 96 78 48 5 5 5 5 5 5 6 63 49 63 84 100 100 100 97 57 95 44 8 5 5 10 9 5 5 74 100 100
100 100 100 100 100 100 100 52 51 94 96 88 100 74 55 43 35 19 19 5 5 53 80 100 92 99 100 94 52 100 100 94 12 61 90 87 25 38 14 53 75 98 100
66 100 100 100 100 100 100 100 90 15 5 29 93 100 99 100 95 96 97 72 100 100 83 72 81 100 71 88 90 41 84 100 100 100 75 80 29 7 5 17 25 5 30
12 100 100 100 100 100 100 100 100 99 45 23 8 60 99 100 100 99 100 100 100 100 100 100 100 100 100 73 79 100 100 100 100 31 66 33 5 38 25 5 5 35 64
100 100 100 100 100 100 100 100 100 100 100 100 100 44 34 72 100 100 100 100 100 100 100 100 99 100 61 61 100 100 100 100 100 98 99 58 83 100 100 100 100 21 32
100 100 100 100 100 100 100 100 100 100 100 100 100 100 100 75 18 6 6 28 49 54 50 42 46 95 100 100 100 100 100 96 76 100 100 100 100 78 100 51 95 100 100
80 100 100 100 100 100 100 100 100 100 100 100 100 100 100 100 100 100 99 96 79 76 5 76 14 19 48 71 93 100 48 98 84 83 82 99 100 57 96 100 100 100 100
100 100 100 100 100 100 100 100 100 100 100 100 100 100 100 100 100 100 100 100 100 100 100 96 64 76 43 100 100 100 100 100 100 100 100 98 98 100 100 100 100 100 100
100 100 100 100 100 100 100 100 100 100 100 100 100 100 100 100 100 100 100 100 100 100 100 100 100 100 98 97 100 98 77 71 100 100 100 100 100 100 100 100 100 100 100
100 100 100 100 100 100 100 88 77 68 65 73 99 100 100 100 100 100 100 100 100 100 93 94 95 100 86 94 100 94 98 77 100 100 61 99 100 100 100 100 100 100 100
100 100 100 100 100 100 100 100 100 86 78 41 71 67 79 90 100 77 98 97 93 96 86 94 94 100 100 100 100 100 85 94 99 98 100 98 93 100 100 100 100 100 100
100 100 100 100 100 100 100 100 100 100 99 95 78 12 67 88 78 83 88 100 81 99 96 100 100 100 79 100 100 100 98 75 100 100 100 94 90 88 100 100 100 100 100
31 100 100 100 100 100 99 99 100 100 100 100 99 87 80 100 100 100 100 100 98 100 100 100 100 100 100 100 100 74 88 96 99 96 96 71 96 99 94 100 100 100 100
5 100 100 100 100 100 100 100 100 100 100 100 100 100 100 100 100 100 98 98 99 100 100 100 100 100 100 100 100 65 44 68 41 25 22 39 79 95 94 100 68 100 100
100 51 100 100 100 100 100 100 100 100 100 100 100 100 100 100 100 100 98 100 100 100 100 100 100 100 100 100 76 99 100 100 100 98 73 62 57 62 31 46 37 59 100
100 100 100 95 100 100 100 100 100 100 100 100 100 100 100 100 100 100 100 100 100 100 100 100 100 100 100 100 60 91 99 99 96 100 100 100 99 99 100 100 89 75 75
100 100 100 100 100 100 100 100 100 100 100 100 100 100 100 100 100 100 100 100 100 100 100 100 100 100 100 100 89 20 10 48 84 82 28 21 66 71 49 6 5 5 5
100 100 100 100 100 100 100 100 100 100 100 100 100 100 100 100 100 100 100 100 100 100 100 100 100 100 100 96 80 36 30 14 16 10 5 5 5 5 5 5 5 5 5
100 97 99 100 100 100 100 100 100 100 100 100 100 100 100 100 100 100 100 100 100 100 100 100 78 8 5 5 5 5 5 5 5 5 5 4 5 29 27 3 5 5 5
100 80 97 100 100 82 100 100 100 100 100 100 100 100 100 100 100 100 100 100 99 68 12 5 5 2 5 5 4 4 4 5 5 5 4 5 5 5 5 4 5 5 5
100 100 100 100 100 100 100 88 100 100 100 100 100 100 100 100 100 100 100 94 43 17 16 5 5 5 5 5 5 3 5 5 6 15 16 5 5 5 5 5 5 5 16
100 100 100 100 100 100 100 100 100 100 100 100 100 100 100 100 100 98 69 17 5 5 5 5 5 5 4 1 5 5 5 10 47 21 6 5 5 5 5 5 6 74 30
100 100 100 100 100 100 100 100 100 100 100 100 100 100 100 100 100 44 7 5 3 5 0 2 3 2 2 5 5 5 80 100 100 14 5 5 5 5 5 5 64 23 5
100 100 100 100 100 100 100 100 100 100 100 100 100 100 100 100 57 5 5 5 5 5 5 5 5 5 5 8 74 91 100 76 12 13 14 5 8 5 5 5 5 5 5
99 100 99 100 100 100 100 100 100 100 100 100 100 100 66 26 5 5 5 3 5 5 5 5 5 5 21 52 74 90 44 60 65 14 5 5 5 3 5 5 5 5 5
100 100 100 100 100 99 100 100 100 100 100 99 90 57 44 5 5 5 5 15 5 69 7 5 5 14 47 41 21 25 60 32 5 5 5 5 5 5 5 5 5 5 57

GFSMW_prec_cloud_081.txt.gz
Cloud_Cover
100 100 100 100 100 88 88 5 85 100 100 100 100 100 100 100 100 96 93 100 100 97 63 22 5 5 5 5 67 96 100 84 29 35 5 41 13 45 5 7 100 19 48
98 98 93 100 100 100 100 100 100 99 81 68 75 88 93 100 100 95 99 100 100 18 15 17 37 9 18 86 100 100 100 100 77 100 100 100 84 88 18 60 12 52 5
70 25 78 100 100 100 100 100 100 100 100 95 28 70 100 100 100 100 100 100 100 100 100 100 95 100 100 100 100 100 100 100 69 47 89 100 100 90 64 11 44 5 4
38 8 45 98 100 100 100 100 100 100 100 100 100 100 100 100 100 100 100 100 100 100 100 100 100 100 100 100 99 100 63 74 100 100 100 100 100 100 98 100 32 21 59
100 52 5 5 46 82 100 100 100 100 100 100 100 100 100 100 100 100 100 100 100 100 100 100 100 100 100 100 100 100 100 77 97 76 82 89 48 100 100 100 87 46 23
100 100 83 37 70 91 100 100 100 100 100 100 100 100 100 100 100 100 100 100 100 100 100 100 100 100 100 100 100 100 98 83 99 100 100 100 100 100 100 100 55 94 47
48 39 95 100 99 100 100 100 100 100 100 100 100 100 100 98 100 100 100 100 100 100 100 100 100 100 100 100 100 100 100 100 100 100 100 96 100 90 100 100 99 97 99
52 78 56 62 100 100 97 99 96 100 100 100 100 100 100 100 99 99 97 97 97 100 97 98 98 98 56 84 94 84 94 100 100 100 100 100 100 100 100 100 100 100 100
99 100 98 100 100 100 100 80 38 57 99 100 100 100 100 100 100 100 100 100 100 100 100 100 100 100 100 97 98 96 100 100 100 100 70 97 100 56 99 100 100 100 100
100 87 99 100 100 100 100 100 83 9 5 10 58 98 100 100 100 100 100 100 100 100 100 100 100 100 100 100 100 100 97 100 100 100 100 78 66 87 100 97 81 100 100
5 74 33 100 98 93 95 70 82 83 96 5 6 7 11 69 85 89 99 100 100 100 100 100 100 100 100 100 100 100 100 100 100 100 100 100 100 99 55 100 72 92 100
5 6 26 80 94 100 100 100 99 100 100 56 80 55 98 5 7 7 100 100 100 100 100 100 100 100 100 100 100 100 100 100 100 100 100 100 100 100 75 90 58 99 100
82 97 32 99 100 100 100 100 100 100 100 100 100 96 100 96 66 43 95 99 74 100 100 100 100 97 95 100 100 100 100 100 100 100 100 100 100 97 86 100 98 50 5
100 100 100 90 100 100 100 100 100 100 100 100 100 100 100 97 100 86 100 100 97 76 89 95 84 100 100 100 100 100 100 100 100 100 100 35 37 19 16 9 5 5 5
100 100 100 100 100 100 100 100 100 100 100 100 100 100 96 74 100 96 97 90 96 100 100 100 100 100 100 100 100 100 100 100 100 100 93 87 81 82 24 6 10 5 7
100 100 95 100 100 100 100 100 100 100 100 100 100 100 100 100 100 100 100 100 100 100 100 100 100 100 100 100 100 100 100 100 100 100 100 100 98 100 100 99 43 61 10
100 100 100 100 92 92 100 100 100 100 100 100 100 100 100 100 100 100 100 100 100 100 100 100 100 100 100 100 100 100 100 100 99 43 16 5 20 6 5 5 5 4 11
100 100 100 100 100 98 73 100 100 100 100 100 100 100 100 100 100 100 100 100 100 100 100 100 100 100 100 100 100 100 100 9 5 5 5 5 5 8 8 20 5 5 5
100 100 100 100 100 100 100 100 100 100 100 100 100 100 100 100 100 100 100 100 100 100 100 100 100 100 100 100 100 76 5 5 5 5 5 5 5 34 94 6 5 5 5
100 100 100 100 100 100 100 100 100 100 100 100 100 100 100 100 100 100 100 100 100 100 100 100 100 100 100 65 53 6 5 5 5 0 2 5 64 100 50 5 5 5 5
100 99 100 100 100 100 100 100 100 100 100 100 100 100 100 100 100 100 100 100 100 100 100 100 100 96 57 35 5 4 1 1 1 1 11 84 100 99 34 6 5 5 5
100 100 100 100 100 100 84 74 100 100 100 100 100 100 100 100 100 100 100 100 100 100 100 71 88 26 8 5 5 5 4 0 5 9 76 100 85 64 42 7 5 44 9
100 100 100 100 100 96 89 98 100 100 100 100 100 100 100 100 100 100 100 100 100 71 84 12 29 6 5 4 5 5 5 5 81 100 84 58 60 30 5 5 23 19 5
100 100 100 100 100 99 100 100 100 100 100 100 100 100 100 100 100 100 100 100 100 58 28 5 5 5 5 5 5 5 5 21 49 38 55 45 7 5 5 5 5 5 5
82 96 86 98 19 56 63 82 100 100 100 100 100 100 100 100 100 100 100 81 61 17 5 5 5 5 5 5 5 30 64 59 58 64 64 48 5 5 5 5 5 5 5
92 100 100 97 100 94 100 100 100 100 100 100 100 100 100 100 100 100 75 34 5 9 13 5 5 5 5 10 91 37 28 69 68 70 32 5 5 5 5 5 6 5 6

GFSMW_prec_cloud_084.txt.gz
Cloud_Cover
100 95 99 100 100 100 100 100 100 100 100 100 100 100 100 100 100 100 100 100 100 100 100 100 100 100 87 52 49 14 13 5 5 5 5 66 100 28 6 7 5 5 56
100 100 100 100 100 100 100 100 100 100 100 100 100 100 100 100 100 100 100 100 100 100 100 100 94 20 89 100 11 5 17 18 9 93 100 100 100 100 49 80 13 100 92
95 100 100 100 100 100 100 100 100 100 100 100 100 100 100 100 100 100 100 100 100 100 100 86 98 88 72 25 20 21 93 100 100 100 96 100 100 100 100 98 99 83 39
100 94 100 100 100 100 100 100 100 100 100 100 100 100 100 100 100 100 100 100 100 100 100 100 97 100 86 93 98 100 100 100 100 100 100 73 92 100 97 100 100 82 12
100 58 83 100 100 100 100 100 100 100 100 100 100 100 100 100 100 100 100 100 100 100 100 100 100 100 100 100 100 100 100 100 100 100 98 96 92 100 100 100 100 93 100
100 100 92 100 99 91 100 100 100 100 100 100 100 100 100 100 100 100 100 100 100 100 100 100 100 100 100 100 100 100 100 100 100 100 100 100 100 100 100 100 100 98 63
100 100 100 100 100 100 97 99 100 100 100 100 100 100 100 98 100 100 100 100 100 100 100 100 100 100 100 100 94 100 100 100 100 100 100 100 100 100 100 100 100 100 91
100 100 100 100 100 100 96 37 100 100 100 100 100 100 100 100 100 100 100 100 100 100 100 100 100 100 100 100 100 100 100 100 100 100 100 100 100 100 100 100 100 100 100
100 100 100 100 100 66 43 57 47 60 72 96 100 100 100 100 100 100 100 100 100 100 100 100 100 100 100 100 100 100 100 100 100 100 100 100 100 100 98 99 96 98 100
100 100 100 100 100 100 50 56 80 28 31 21 49 73 98 99 100 100 100 100 100 100 100 100 100 100 100 100 100 100 100 100 100 100 100 100 100 100 97 100 58 100 100
100 60 96 92 86 100 94 84 5 7 49 16 5 45 62 98 99 100 100 100 100 100 100 100 100 100 100 100 100 100 100 100 100 100 100 100 100 100 100 100 100 62 80
24 26 18 31 30 31 70 100 81 89 72 34 12 98 58 93 99 100 100 100 100 100 100 98 100 100 100 100 100 100 100 100 100 100 100 100 100 100 100 100 97 55 52
0 2 17 5 7 9 7 100 96 19 86 100 98 84 100 100 100 95 87 99 91 100 100 100 100 100 100 100 100 100 100 100 100 100 100 100 100 100 100 100 100 97 22
0 0 0 0 9 92 96 96 100 100 100 100 100 98 100 99 81 100 80 93 100 78 100 100 100 85 100 100 100 100 100 100 100 100 100 100 100 100 100 95 36 8 5
3 25 35 18 21 96 100 100 100 100 100 100 100 100 100 92 100 100 100 82 100 100 94 100 100 100 100 100 100 100 100 100 100 100 100 100 100 100 100 46 16 4 7
46 10 39 100 100 99 100 100 100 100 100 100 97 85 100 100 100 100 100 100 100 100 100 100 100 100 100 100 100 100 100 100 100 100 100 100 100 100 100 100 64 6 5
72 94 100 86 46 53 98 50 92 100 100 100 100 100 100 100 100 100 100 100 100 100 100 100 100 100 100 100 100 100 100 100 100 100 100 100 100 5 5 5 5 13 36
85 100 97 100 96 100 92 100 59 100 76 100 100 100 100 100 100 100 100 100 100 100 100 100 100 100 100 100 100 100 100 100 100 100 100 80 12 18 5 5 5 70 100
91 91 100 100 100 100 99 100 100 100 100 100 76 100 100 100 100 100 100 100 100 100 100 100 100 100 100 100 100 100 100 100 100 96 28 20 11 6 5 4 5 80 72
100 100 100 100 100 99 100 100 100 88 99 98 96 100 100 100 100 100 100 100 100 100 100 100 100 100 100 100 100 100 100 100 80 80 39 5 5 5 5 33 96 78 5
100 100 100 100 100 100 100 100 100 100 100 96 100 100 100 100 100 100 100 100 100 100 100 100 100 100 100 100 100 100 100 87 45 22 5 2 5 5 94 91 26 13 5
71 100 100 100 100 100 100 100 100 100 100 100 100 100 100 100 100 100 100 100 100 100 100 100 100 100 100 100 100 100 61 14 21 5 3 5 5 8 5 5 5 19 7
100 92 100 100 100 97 95 85 100 100 100 100 100 100 100 100 100 100 100 100 100 100 100 100 100 100 100 100 100 47 6 6 6 5 5 5 5 5 7 5 5 7 5
100 100 88 78 97 97 99 98 100 100 100 100 100 100 100 100 100 100 100 100 100 100 100 100 100 100 100 100 44 37 59 8 5 5 5 5 29 38 14 5 5 5 5
100 91 88 100 99 100 96 100 100 100 100 100 100 100 100 100 100 100 100 100 100 100 100 100 100 100 98 62 66 82 24 5 10 7 5 14 23 5 5 5 5 6 5
81 86 93 100 100 100 100 97 93 98 100 100 100 100 100 100 100 100 100 100 100 100 100 100 91 88 73 65 66 8 5 44 66 5 21 22 5 5 5 8 22 67 11

GFSMW_prec_cloud_087.txt.gz
Cloud_Cover
100 100 100 100 84 100 100 100 100 100 86 100 100 100 100 100 100 100 100 100 100 100 60 98 100 100 100 100 100 100 100 100 47 97 97 43 15 90 5 5 8 5 5
70 98 100 100 100 100 100 100 100 100 100 100 100 100 100 100 100 100 100 100 100 100 100 100 100 100 100 100 100 100 100 99 100 97 87 91 76 6 7 11 5 6 6
27 83 100 100 99 100 100 100 100 100 100 100 100 100 100 100 100 100 100 100 100 100 100 100 100 100 100 100 100 100 100 100 100 100 94 99 95 100 100 100 100 88 100
76 100 100 100 100 100 100 100 100 100 100 100 100 100 100 100 100 100 100 100 100 100 100 100 100 100 100 100 92 68 99 100 93 100 35 94 100 100 100 100 100 100 100
97 100 100 100 100 98 98 100 100 100 100 100 100 100 100 100 100 100 100 100 100 100 100 100 100 100 100 100 100 100 100 64 99 100 99 98 100 100 99 100 100 100 100
78 100 100 100 66 100 100 100 100 100 100 100 100 100 100 100 100 100 100 100 100 100 100 100 100 100 100 100 100 100 96 100 100 100 100 100 100 100 100 100 100 100 100
6 100 100 100 100 100 100 100 100 100 100 100 100 100 100 100 100 100 100 100 100 100 100 100 100 96 100 100 97 100 100 100 100 100 100 100 100 100 100 100 100 100 100
8 52 100 100 100 100 91 100 100 100 100 100 100 100 100 100 100 100 100 100 100 99 100 100 100 100 100 88 100 100 100 100 100 100 100 100 100 100 100 100 100 100 100
0 12 100 100 100 97 86 53 83 100 100 100 100 100 100 100 100 100 100 100 100 100 100 100 100 100 100 100 100 100 100 100 100 100 100 100 100 100 100 100 100 100 100
0 0 82 100 100 100 100 94 100 91 64 98 100 100 100 100 100 100 100 100 100 100 100 100 100 100 100 100 100 100 100 100 100 100 100 100 100 100 100 100 100 100 100
0 0 0 3 100 100 100 100 100 97 97 95 58 38 44 100 100 100 100 100 100 100 100 100 100 100 100 100 100 100 100 100 100 100 100 99 100 100 100 100 100 100 100
0 0 0 0 100 100 100 100 100 60 82 56 53 5 11 6 48 70 100 100 100 100 100 100 100 100 100 100 100 100 100 100 96 100 100 100 100 100 100 100 100 100 100
0 0 0 0 0 47 100 100 100 100 99 100 54 52 57 99 51 20 28 90 100 100 100 100 100 100 100 100 100 100 98 100 99 100 100 100 100 100 100 100 100 100 100
0 0 0 0 0 2 39 97 97 100 89 86 100 95 69 46 68 71 81 100 72 90 94 84 98 100 100 100 100 100 100 100 100 100 100 100 100 100 100 100 100 100 99
2 0 0 0 0 0 0 0 60 100 100 99 99 100 100 100 100 100 100 100 48 86 100 95 100 100 100 100 100 100 100 100 100 98 100 100 100 100 100 100 100 100 92
4 5 5 4 0 5 5 5 4 5 100 100 99 100 100 100 100 100 100 100 100 100 85 85 100 100 100 100 100 100 100 100 100 100 100 100 100 100 100 100 100 100 82
5 5 5 74 5 10 68 15 71 100 55 100 90 100 100 99 100 99 98 98 100 100 100 100 100 100 100 100 100 100 100 100 100 100 100 100 100 100 100 100 100 12 5
5 5 5 21 99 97 100 95 100 100 96 85 60 85 100 100 100 100 100 100 100 100 100 100 100 100 100 100 100 100 100 100 100 100 100 100 100 100 100 100 53 5 5
5 62 74 9 100 94 89 98 82 60 17 6 32 7 52 68 100 100 100 100 100 100 100 100 100 100 100 100 100 100 100 100 100 100 100 100 100 100 100 35 5 5 2
28 92 100 100 100 95 100 100 87 100 98 97 98 97 100 96 97 100 100 100 100 100 100 100 100 100 100 100 100 100 100 100 100 100 100 100 100 98 28 5 5 5 5
91 75 100 99 100 83 92 100 100 84 100 100 97 95 98 100 100 100 100 100 100 100 100 100 100 100 100 100 100 100 100 100 100 100 100 100 92 18 5 5 5 5 5
94 99 100 76 98 100 100 98 100 97 100 100 100 100 100 100 100 100 100 100 100 100 100 100 100 100 100 100 100 100 100 100 100 100 100 97 16 5 7 5 5 35 6
99 100 100 100 90 100 100 100 100 100 100 100 100 100 100 100 100 100 100 100 100 100 100 100 100 100 100 100 100 100 100 100 100 100 61 5 8 33 5 5 5 9 6
48 90 100 98 74 54 87 100 100 100 100 99 100 100 100 100 100 100 100 100 100 100 100 100 100 100 100 100 100 100 100 100 94 30 6 6 44 18 5 5 5 16 36
86 71 87 100 100 100 89 87 100 100 100 100 100 100 100 100 100 100 100 100 100 100 100 100 100 100 100 100 100 100 100 100 47 6 30 34 58 5 5 10 41 56 30
100 100 100 100 100 100 100 100 98 100 100 100 100 100 100 100 100 100 100 100 100 100 100 100 100 100 100 100 100 100 100 81 87 52 78 70 16 5 37 44 61 75 32

GFSMW_prec_cloud_090.txt.gz
Cloud_Cover
48 21 100 100 100 100 100 88 100 100 100 100 100 100 100 100 100 100 100 100 100 95 39 71 97 100 66 72 100 100 100 100 100 100 100 100 100 63 98 5 5 5 5
25 5 68 100 100 100 100 96 47 79 100 100 100 100 100 100 100 100 100 100 100 100 100 100 100 100 100 100 100 100 100 100 100 100 100 100 100 100 33 18 5 5 6
100 96 89 62 100 100 100 54 86 100 100 100 100 100 100 100 100 100 100 100 100 100 100 100 100 100 100 100 100 100 100 100 100 100 100 100 100 99 100 100 84 16 72
54 100 71 64 100 100 100 100 98 100 100 100 100 100 100 100 100 100 100 100 100 100 100 100 100 100 100 100 100 100 100 100 100 100 100 100 100 100 100 100 100 100 100
0 10 100 100 95 32 95 94 100 100 100 100 100 100 100 100 100 100 100 100 100 100 100 100 100 100 100 100 100 100 100 100 100 100 100 100 100 100 100 100 100 76 100
0 2 56 95 92 70 100 100 100 100 100 100 100 100 100 100 100 100 100 100 100 100 100 100 100 100 100 100 100 100 100 100 100 100 100 100 100 100 100 100 100 100 100
0 0 3 72 75 100 100 100 100 100 100 100 100 100 100 100 100 100 100 100 100 100 100 100 100 100 100 100 100 100 100 100 100 100 100 100 100 100 100 71 91 100 100
0 1 6 6 100 100 77 100 100 100 100 100 100 100 100 100 100 100 100 100 100 100 100 100 100 100 100 100 100 100 100 100 100 100 100 100 100 100 100 99 100 100 100
0 5 3 100 100 98 100 100 100 100 100 100 100 100 100 100 100 100 100 90 97 100 100 100 100 100 100 100 100 100 100 100 100 100 100 100 100 100 100 100 100 100 100
3 5 0 99 100 76 100 99 100 100 100 100 100 100 100 100 100 100 100 100 100 100 100 100 100 100 100 100 100 100 100 100 100 100 100 100 100 100 100 100 100 100 99
0 0 0 0 98 100 100 100 100 100 93 100 100 82 100 100 100 100 100 100 100 100 100 100 100 100 100 100 100 100 100 100 100 100 100 100 100 100 100 100 100 100 100
0 0 0 0 0 16 4 100 100 100 100 79 96 100 40 61 100 100 100 100 100 100 100 100 100 100 100 100 100 100 100 100 100 100 100 100 100 100 100 100 100 100 100
0 0 0 0 0 0 0 2 95 100 100 100 100 100 100 81 45 71 98 98 100 100 100 100 100 100 100 100 100 100 100 100 100 100 100 100 100 100 100 87 98 100 100
0 0 0 0 0 0 0 0 14 5 75 100 100 100 100 99 56 6 5 5 45 87 100 99 98 87 100 100 100 100 100 100 100 99 98 100 76 100 99 100 100 100 100
0 0 0 0 0 0 0 0 0 4 5 7 93 99 100 100 92 95 25 5 5 5 5 15 16 44 74 98 91 64 70 100 100 88 100 100 94 99 100 91 100 100 100
0 0 0 0 0 0 0 0 0 0 0 0 14 12 100 100 100 100 100 100 100 91 100 86 72 94 95 100 100 100 100 100 100 100 100 100 100 100 100 100 100 100 100
0 0 0 0 0 5 2 5 0 0 0 0 0 0 43 100 100 98 100 100 100 100 100 100 100 100 100 100 100 100 100 100 100 100 100 100 100 100 100 100 100 100 100
2 2 5 5 0 0 7 12 5 6 5 5 4 5 18 22 100 100 98 87 100 100 100 100 100 100 100 100 100 100 100 100 100 100 100 100 100 100 100 100 100 100 100
9 5 5 4 26 5 4 80 42 17 92 5 5 5 16 54 59 72 98 100 100 100 100 100 100 100 100 100 100 100 100 100 100 100 100 100 100 100 100 100 100 100 100
58 95 5 5 70 100 68 6 80 92 89 80 100 54 78 93 100 100 100 100 100 100 100 100 100 100 100 100 100 100 100 100 100 100 100 100 100 100 100 100 100 100 100
41 99 49 96 81 100 100 71 46 75 84 100 100 100 67 96 100 100 100 100 100 100 100 100 100 100 100 100 100 100 100 100 100 100 100 100 100 100 100 100 100 99 30
85 98 75 100 96 95 99 81 100 100 86 92 100 100 100 99 100 100 100 100 100 100 100 100 100 100 100 100 100 100 100 100 100 100 100 100 100 100 100 100 91 28 5
100 98 10 79 91 100 60 100 100 75 100 99 85 100 100 100 100 100 100 100 100 100 100 100 100 100 100 100 100 100 100 100 100 100 100 100 100 100 100 86 7 43 5
40 72 100 7 100 100 59 61 77 99 100 100 100 100 100 100 100 100 100 100 100 100 100 100 100 100 100 100 100 100 100 100 100 100 100 100 100 100 65 6 6 32 55
28 50 94 81 21 94 95 63 100 67 98 100 100 100 100 100 100 100 100 100 100 100 100 100 100 100 100 100 100 100 100 100 100 100 100 100 99 53 26 6 74 100 90
90 79 86 100 83 100 100 99 100 100 84 88 100 100 100 100 100 100 100 100 100 100 100 100 100 100 100 100 100 100 100 100 100 100 100 99 62 44 42 85 100 100 45

GFSMW_prec_cloud_093.txt.gz
Cloud_Cover
5 5 5 98 100 100 100 100 100 100 100 100 86 66 100 100 100 100 100 100 100 100 100 100 100 98 42 5 6 5 5 41 94 100 100 100 100 100 100 64 28 48 5
5 78 0 36 87 100 100 100 100 100 100 100 100 100 100 100 100 100 100 100 100 100 100 100 100 100 100 100 100 100 97 100 100 100 100 100 100 100 88 36 93 6 26
0 29 8 8 97 75 100 100 100 100 100 94 61 100 100 100 100 100 100 100 100 100 100 100 100 100 100 100 100 100 100 100 100 100 100 100 100 100 100 100 100 86 16
5 10 83 0 73 96 86 86 100 97 100 100 94 100 100 100 100 100 100 100 100 100 100 100 100 100 100 100 100 100 100 100 100 100 100 100 100 100 100 100 100 100 74
0 0 0 0 0 58 14 88 100 100 100 100 100 100 100 100 100 100 100 100 100 100 100 100 100 100 100 100 100 100 100 100 100 100 100 100 100 100 100 100 84 100 100
1 2 0 0 0 48 34 77 58 100 100 100 98 100 100 100 100 100 100 100 100 100 100 100 100 100 100 100 100 100 100 100 100 100 100 100 100 100 100 100 100 100 100
1 0 57 0 0 48 94 100 47 93 100 100 100 90 100 100 100 100 100 100 100 100 100 100 100 100 100 100 100 100 100 100 100 100 100 100 100 100 100 100 100 100 100
5 0 0 0 0 78 67 95 99 100 82 100 100 76 85 100 100 100 100 100 100 100 100 100 100 100 100 100 100 100 100 100 100 100 100 100 100 100 100 100 100 100 100
0 0 0 0 0 3 64 70 100 100 100 66 100 100 99 97 100 100 100 100 100 100 100 100 100 100 100 100 100 100 100 100 100 100 100 100 100 100 100 100 100 100 100
1 0 0 0 0 5 1 63 100 100 94 97 95 96 100 91 100 100 100 100 100 100 100 100 100 100 100 100 100 100 100 100 100 100 100 100 100 100 100 100 100 100 100
0 0 0 0 0 10 5 58 30 100 100 99 100 96 100 100 100 100 100 100 100 100 100 98 95 100 100 100 100 100 100 100 100 100 100 100 100 100 100 100 100 100 100
0 0 0 0 1 76 48 78 34 60 100 100 100 100 100 100 100 100 100 72 100 100 100 100 99 100 100 100 100 100 100 100 100 100 100 100 100 100 100 100 100 100 100
0 0 0 0 0 0 0 0 3 25 54 100 100 100 100 100 100 100 99 100 100 69 63 98 100 100 100 100 100 100 100 100 100 100 100 100 100 100 100 100 100 100 54
3 0 0 0 0 0 0 0 0 0 9 26 100 100 100 100 100 100 93 98 99 87 89 100 100 100 100 100 100 100 100 100 100 100 100 100 100 100 86 99 100 100 90
12 6 5 0 0 0 0 0 0 0 0 0 0 2 24 60 90 99 100 100 100 89 92 23 5 5 13 26 33 83 100 100 100 96 100 66 89 19 50 38 86 100 79
5 5 5 5 5 0 0 0 0 0 0 0 0 0 4 0 84 100 100 100 100 100 100 80 38 29 50 99 100 100 67 81 72 70 88 35 60 57 76 97 100 100 99
5 4 5 4 0 0 0 0 0 0 0 0 0 0 0 0 0 16 82 100 100 100 100 100 99 100 100 100 100 100 100 100 100 100 100 100 100 100 97 100 100 100 100
51 100 7 4 0 0 0 0 0 3 2 3 0 0 0 4 2 5 18 86 87 100 93 100 100 100 100 100 100 100 100 100 100 100 100 99 84 100 100 100 100 100 100
87 99 6 6 0 0 0 0 0 0 5 5 5 5 5 5 5 43 90 100 100 99 100 100 100 100 100 100 100 100 100 100 76 100 76 100 99 100 100 100 100 100 100
100 95 5 5 5 2 0 2 10 33 5 5 95 14 5 10 6 76 100 99 99 100 100 100 100 100 100 100 100 94 99 100 100 100 66 100 100 100 100 100 100 100 100
67 82 6 53 15 5 5 6 12 100 30 5 9 55 41 14 85 99 97 100 100 100 100 100 100 100 100 92 100 100 100 100 100 100 100 100 99 100 100 100 100 100 100
5 9 82 100 59 6 5 69 28 99 60 100 96 99 29 82 100 100 96 100 100 100 100 100 100 100 100 100 100 100 100 100 100 100 100 100 100 100 100 100 100 100 100
5 36 100 19 5 5 5 100 48 34 83 100 89 100 100 100 100 100 100 100 100 100 100 100 100 100 100 100 100 100 100 100 100 100 100 100 100 100 100 100 100 100 100
27 53 5 69 100 56 5 5 38 100 28 53 100 97 100 100 100 100 100 100 100 100 100 100 100 100 100 100 100 100 100 100 100 100 100 100 100 100 100 100 100 100 98
26 5 5 99 81 63 88 25 65 100 100 100 97 69 98 100 100 100 98 100 100 100 100 100 100 100 100 100 100 100 100 100 100 100 100 100 100 100 100 100 100 100 98
95 93 92 93 99 93 79 97 100 100 100 100 100 90 100 100 100 100 100 100 100 100 100 100 100 100 100 100 100 100 100 100 100 100 100 100 100 100 100 100 100 99 64

GFSMW_prec_cloud_096.txt.gz
Cloud_Cover
4 0 0 98 100 100 100 100 100 100 92 100 100 87 59 98 100 100 100 100 100 100 100 100 100 100 100 100 100 100 100 100 100 99 100 100 100 100 98 100 81 72 92
100 2 0 3 27 100 100 100 100 100 100 99 100 95 100 49 100 100 100 100 100 100 100 100 100 100 100 100 100 100 100 100 100 100 100 100 87 82 100 100 17 60 14
17 6 0 1 5 6 85 100 100 100 100 97 78 100 99 100 100 99 100 100 100 100 100 100 100 100 100 100 100 100 100 100 100 100 93 94 98 100 100 100 100 92 91
5 1 0 0 0 0 6 51 100 94 100 100 55 100 100 90 87 96 100 100 100 100 100 100 100 100 100 100 100 100 100 99 90 100 95 96 100 100 100 100 100 98 100
24 54 0 2 4 0 0 23 37 100 100 100 100 85 100 100 84 90 100 100 100 100 100 100 100 100 100 100 100 100 100 100 100 100 100 100 100 100 100 100 100 100 100
96 100 9 2 5 0 0 0 0 5 98 100 100 100 100 100 100 100 100 100 100 100 100 100 100 100 100 100 100 100 100 100 100 100 100 100 100 100 98 100 98 100 84
100 67 2 17 2 0 0 0 0 0 7 88 100 100 100 99 100 100 100 100 100 100 100 100 100 100 100 100 100 100 100 100 100 99 100 100 100 100 100 100 98 96 100
28 36 15 5 0 0 0 0 0 0 5 30 55 100 100 100 100 100 100 100 100 100 100 100 100 100 100 100 98 100 100 100 100 100 100 100 100 100 100 100 100 100 100
100 100 7 3 0 0 0 0 0 0 42 60 94 22 94 100 100 99 100 100 100 100 100 100 100 100 100 100 100 100 100 100 100 100 100 100 100 100 100 100 100 100 100
100 100 63 0 0 0 0 0 0 0 45 100 68 72 90 100 100 100 100 83 100 100 98 100 100 100 100 100 82 96 100 100 100 100 100 100 100 100 100 100 100 100 100
100 100 38 5 0 0 0 0 0 10 55 97 99 75 100 99 100 100 100 95 100 100 100 100 100 100 100 100 100 100 100 100 100 100 100 100 100 100 100 100 100 100 100
100 100 82 8 4 0 0 0 0 5 78 96 100 100 100 99 100 100 100 39 100 100 100 100 100 100 100 100 100 100 100 100 100 100 100 100 100 100 100 100 100 100 100
100 97 99 57 0 0 0 0 1 5 5 5 10 72 100 100 100 100 100 97 99 98 100 100 98 100 100 100 100 100 100 100 100 100 100 100 100 100 100 100 100 100 100
100 98 96 6 0 0 0 0 0 0 1 3 1 16 46 100 100 75 100 100 69 79 100 30 99 72 100 99 84 87 100 100 100 100 100 100 100 100 100 100 100 71 38
100 100 17 5 0 0 0 0 0 0 0 0 0 0 0 0 31 100 100 87 36 96 55 89 99 94 100 91 89 100 100 100 97 100 100 100 100 84 72 7 5 31 45
100 63 3 5 5 4 0 0 0 0 0 0 0 0 0 0 3 2 100 24 99 100 85 96 100 100 100 98 100 78 93 100 82 61 15 36 100 97 52 91 95 68 92
100 100 7 5 6 5 5 5 0 0 0 0 0 0 0 1 3 2 0 0 31 30 0 2 80 100 100 100 100 100 100 100 100 100 100 100 99 57 99 100 98 97 100
100 98 32 13 32 4 4 5 0 0 0 0 0 0 1 4 3 0 0 2 12 68 98 100 19 74 100 100 100 100 100 100 100 100 100 100 98 100 100 100 100 92 100
100 100 100 100 84 5 98 90 3 0 0 0 0 0 5 5 5 5 5 100 100 100 98 85 52 74 100 100 100 100 100 100 100 100 99 100 100 100 100 100 100 86 100
100 100 100 100 57 73 100 36 5 0 0 0 0 5 7 5 5 5 53 100 100 100 100 87 100 100 100 100 100 100 100 100 100 100 100 100 100 100 100 100 100 100 100
35 34 97 100 100 100 100 23 5 5 5 5 1 6 42 5 24 16 97 100 100 94 100 100 100 100 100 100 100 100 100 100 100 100 100 88 100 100 100 100 100 100 100
13 5 5 60 97 97 84 32 45 6 5 5 5 16 87 60 17 97 100 100 100 100 100 100 100 100 100 100 100 99 100 100 100 100 100 100 100 100 100 100 100 100 100
85 10 37 50 61 35 5 5 5 5 5 5 7 17 64 41 75 100 100 100 100 100 100 100 100 100 100 100 65 9 19 100 100 97 100 100 100 100 100 100 100 100 100
82 62 30 73 62 72 19 5 5 25 60 40 5 22 77 86 100 100 100 100 100 100 100 100 100 100 100 100 100 49 100 100 100 100 100 100 100 100 100 100 100 100 100
39 90 20 39 40 38 7 12 5 13 92 75 84 100 100 100 100 100 100 100 100 100 100 100 100 100 100 100 100 100 99 100 100 100 100 100 100 100 100 100 100 100 100
98 93 100 98 54 45 27 48 18 74 100 99 100 100 100 100 100 100 100 100 100 100 100 100 100 100 100 100 100 100 100 100 100 100 100 100 100 100 100 100 100 100 100

GFSMW_prec_cloud_102.txt.gz
Cloud_Cover
86 58 100 100 100 100 100 100 86 100 100 100 100 100 100 82 100 100 100 100 100 100 100 85 100 100 100 100 100 100 100 100 100 100 100 100 62 14 5 9 5 5 43
88 6 5 25 100 100 100 100 100 100 100 100 100 100 100 100 64 100 100 100 100 100 100 96 100 100 100 100 100 100 100 100 100 97 96 100 95 98 87 71 98 100 83
56 79 23 56 33 96 100 100 100 100 100 100 100 100 96 99 100 100 100 100 100 100 100 100 100 100 100 100 100 100 100 100 100 100 100 98 76 60 96 84 61 47 100
100 100 100 44 70 5 36 100 100 100 100 100 100 100 100 100 100 99 100 100 100 100 100 100 100 100 100 100 100 100 100 100 100 100 100 100 100 100 100 98 95 91 71
100 82 100 82 5 10 9 5 28 98 100 100 100 100 99 95 99 100 100 100 100 100 100 100 100 100 100 100 100 100 100 100 100 100 100 100 100 100 100 100 100 64 100
100 100 85 78 5 5 51 5 4 91 30 85 81 100 100 84 57 86 100 100 100 100 100 100 100 100 100 100 100 100 100 100 100 100 100 100 100 100 100 100 100 100 100
90 99 58 13 22 69 66 100 83 78 89 40 20 32 100 100 97 100 100 100 99 100 99 100 100 100 100 100 100 100 100 100 100 100 100 100 100 100 100 100 100 100 100
100 100 90 100 100 18 1 8 23 98 51 39 6 4 0 12 100 100 100 100 100 50 85 100 100 100 100 100 100 100 100 100 100 100 100 100 100 100 100 100 100 100 100
100 100 100 100 100 72 93 69 90 38 100 100 72 5 5 2 5 8 96 100 100 100 100 96 100 100 100 96 100 100 100 100 100 100 100 100 100 100 100 100 100 100 100
100 100 100 100 83 100 87 4 31 82 62 10 11 3 0 0 0 0 0 7 62 97 100 98 71 94 100 100 100 100 97 94 85 91 100 100 100 100 100 100 100 100 100
56 92 100 100 100 100 100 100 100 79 7 5 0 4 5 0 0 2 3 5 5 65 80 20 88 100 100 100 100 100 97 100 100 96 99 99 100 100 100 100 100 100 100
100 100 100 98 26 9 85 100 20 93 8 5 6 9 1 0 5 19 5 67 53 5 5 40 26 17 86 89 100 100 100 100 100 100 100 100 100 100 100 100 100 100 100
46 24 82 92 42 86 100 100 96 28 53 61 26 5 4 3 5 5 7 25 72 34 61 5 25 62 75 89 82 86 100 100 100 100 100 100 100 100 100 100 100 100 100
58 79 23 14 5 84 49 98 100 100 100 100 61 5 0 0 2 7 35 18 5 5 5 4 2 51 57 62 62 46 46 100 100 100 100 100 100 100 100 100 100 100 100
28 100 96 100 100 100 100 100 100 100 100 100 58 5 0 0 0 2 4 5 5 3 0 0 0 3 0 0 14 63 99 99 58 100 100 100 100 100 100 100 100 100 100
11 100 100 100 100 100 100 100 100 100 100 100 36 3 0 0 0 0 0 0 0 0 5 5 2 2 0 0 0 2 0 0 100 100 58 72 100 100 100 100 100 100 100
100 100 100 100 100 100 99 99 100 100 100 56 5 5 4 0 0 0 1 5 5 5 3 2 0 0 0 0 6 93 94 100 99 100 100 100 100 100 100 100 100 100 100
100 100 100 100 100 100 100 100 100 100 100 89 75 20 4 1 0 0 0 0 0 0 4 100 100 5 5 5 81 59 96 100 100 100 100 100 100 100 100 100 100 100 100
100 100 100 100 100 100 100 100 100 100 100 100 78 5 5 0 4 2 4 5 4 5 56 100 100 18 5 5 100 69 82 100 100 100 100 100 100 100 100 100 100 100 100
100 100 100 100 100 100 100 100 100 100 100 100 8 5 5 7 4 5 5 88 5 68 100 100 97 27 20 94 100 99 100 100 100 100 100 100 100 100 100 100 100 98 100
100 100 100 100 100 100 100 100 100 100 100 64 91 100 86 90 87 12 92 45 30 100 100 100 48 87 100 100 100 100 100 100 100 100 100 100 100 100 100 100 100 100 100
100 100 100 100 100 100 100 100 100 100 100 100 100 100 100 100 100 100 90 83 94 100 100 99 71 100 100 100 100 100 100 100 100 100 100 100 100 100 100 100 100 100 100
100 100 100 100 100 100 100 100 100 100 100 100 100 100 100 100 92 99 85 97 100 100 100 100 100 99 100 100 100 100 100 100 100 100 100 100 100 100 100 97 100 100 100
100 100 100 100 100 100 100 100 100 100 100 78 100 97 83 67 72 99 100 100 100 100 100 100 100 96 100 100 100 100 93 90 100 100 100 100 99 98 100 96 93 100 100
100 100 100 100 97 100 100 100 100 100 100 96 74 71 86 100 100 100 100 100 100 100 100 100 100 100 100 100 100 100 99 78 82 99 100 100 97 100 100 100 100 100 100
100 100 98 100 100 100 100 100 98 98 87 66 87 84 78 80 97 100 100 100 100 100 100 100 100 100 100 100 100 100 93 78 78 79 100 100 100 100 100 100 100 100 100

GFSMW_prec_cloud_105.txt.gz
Cloud_Cover
100 100 100 100 100 100 100 100 100 100 100 100 100 100 100 100 100 100 100 100 100 100 100 100 100 100 100 100 100 100 100 100 100 100 100 100 97 16 98 87 52 65 96
100 100 100 100 100 100 100 100 100 100 100 100 100 100 100 100 100 100 100 100 100 100 100 100 100 100 100 97 100 100 100 100 100 100 100 100 87 91 39 64 11 18 74
100 94 29 100 100 100 100 100 100 100 100 100 100 100 100 100 100 100 100 100 99 100 100 100 100 100 100 100 100 100 100 100 100 100 100 100 100 92 99 92 74 90 100
98 100 100 57 100 100 100 100 100 100 100 100 100 100 100 100 100 100 100 100 100 100 100 100 100 100 100 100 100 100 100 100 100 100 100 100 100 100 100 100 100 100 98
14 77 100 100 100 100 100 100 100 100 100 100 100 100 100 100 100 100 100 100 100 100 100 100 100 100 100 100 100 100 100 100 100 100 100 100 100 100 100 100 100 100 100
77 99 100 100 100 100 100 100 100 100 100 100 100 100 100 100 100 100 100 71 98 100 100 100 100 100 100 100 100 100 100 100 100 100 100 100 100 100 100 100 100 100 100
100 74 100 100 60 99 100 100 100 100 100 100 100 64 73 100 100 100 100 100 100 100 100 100 100 95 100 100 100 93 100 100 100 100 100 100 100 100 100 100 100 100 100
100 99 99 100 69 50 100 100 71 100 100 97 98 97 100 100 100 100 100 100 100 100 100 100 100 100 74 85 100 100 98 100 100 100 100 100 100 100 100 100 100 100 100
100 100 66 82 100 97 82 71 87 100 99 43 16 68 64 78 100 100 100 100 100 100 100 85 78 59 73 76 100 100 100 100 100 100 100 100 100 100 100 100 100 100 100
100 100 100 100 70 45 34 7 9 72 56 19 5 11 36 80 89 43 66 100 65 54 71 93 100 100 82 99 84 99 98 100 100 100 100 100 98 100 100 100 100 100 100
100 100 100 100 96 58 26 3 4 7 32 7 5 38 43 85 100 53 60 63 94 25 5 7 3 9 53 20 90 100 100 100 100 99 100 100 100 100 100 100 100 100 100
100 100 100 100 100 97 25 34 5 73 94 90 58 36 11 5 11 7 5 5 5 30 65 5 5 0 5 8 74 96 96 100 100 100 100 100 98 100 100 100 100 100 100
100 100 100 100 100 100 100 100 65 81 75 4 0 2 11 61 50 0 1 12 34 18 5 86 5 4 2 0 4 5 47 88 98 100 100 100 100 100 100 100 100 100 100
100 100 100 100 100 100 100 100 39 8 4 21 42 36 7 2 0 0 53 51 88 68 98 18 4 1 0 0 0 0 1 91 99 5 67 80 100 99 100 100 100 100 100
98 100 100 72 100 100 100 100 48 99 100 100 100 98 20 27 8 30 60 10 5 5 5 4 0 0 0 0 0 0 0 0 0 0 0 0 42 100 100 100 100 100 100
8 6 5 5 5 14 100 100 100 80 13 11 79 5 92 100 100 100 100 100 5 4 0 0 0 0 0 0 0 0 0 0 0 0 0 23 33 94 100 100 100 100 100
67 95 100 100 100 100 100 100 100 100 79 51 84 24 100 100 100 100 100 95 5 3 0 13 13 0 0 0 9 7 6 19 25 98 100 100 100 100 100 100 100 100 100
22 89 58 94 100 100 100 81 92 78 100 100 96 100 100 100 100 100 100 5 5 0 19 100 100 24 0 0 82 91 0 2 10 54 100 100 100 100 100 100 100 100 100
94 100 100 100 99 24 100 100 89 100 100 100 100 100 100 100 100 75 56 21 5 1 1 68 100 98 2 2 57 70 74 21 24 98 99 100 100 100 100 100 100 100 100
98 38 95 100 100 100 100 100 100 100 100 100 100 100 100 100 100 100 100 97 18 25 40 100 100 100 19 1 88 100 100 97 62 100 100 100 100 100 100 100 100 100 100
100 100 98 56 100 100 100 100 100 100 100 100 100 100 100 100 100 100 100 98 79 71 88 100 100 41 5 37 100 100 100 100 87 77 100 100 100 100 100 100 100 100 100
100 100 100 100 100 100 100 100 100 100 100 100 100 100 100 100 100 100 100 49 16 81 100 98 54 51 20 65 100 100 100 100 97 39 63 100 100 100 100 100 100 100 100
82 100 100 100 100 100 100 100 100 100 100 100 100 100 100 100 100 97 41 79 95 100 100 100 100 84 47 38 86 100 100 100 100 38 46 78 100 100 100 100 100 100 100
100 100 90 100 100 100 100 100 100 100 100 100 100 100 100 96 47 99 100 100 100 100 100 100 100 100 98 75 99 100 100 100 100 51 45 84 80 100 100 100 100 100 100
100 100 100 100 100 100 100 100 100 100 100 100 100 100 100 100 100 100 100 87 45 62 97 100 100 100 88 95 90 100 100 100 100 80 20 75 79 94 86 100 100 100 100
95 100 100 100 100 100 100 100 100 100 100 100 100 100 100 100 100 100 100 95 97 100 88 93 95 100 93 92 100 100 100 100 87 87 100 69 74 84 98 89 100 100 100

GFSMW_prec_cloud_108.txt.gz
Cloud_Cover
100 100 100 100 100 100 100 100 100 100 100 100 100 100 100 100 100 100 100 100 100 100 100 100 100 100 99 78 100 100 100 100 100 100 100 100 100 100 100 98 71 62 37
100 100 100 100 100 100 100 100 100 100 100 100 100 100 100 100 100 100 100 100 100 100 100 100 100 100 100 100 100 100 100 100 100 100 100 100 100 90 97 88 23 67 81
100 100 100 100 100 100 100 100 100 100 100 100 100 100 100 100 100 100 100 100 100 100 100 100 100 100 64 100 100 100 100 100 100 100 100 100 100 100 100 100 100 100 66
100 100 100 100 100 100 100 100 100 100 100 100 100 100 100 100 100 100 100 100 100 100 100 100 99 98 98 100 100 100 100 100 100 100 100 100 100 100 100 100 100 100 100
100 100 100 100 100 100 100 100 100 100 100 100 100 100 100 100 100 100 100 100 100 100 100 99 100 100 100 100 100 100 100 100 100 100 100 100 100 100 100 100 100 100 100
100 100 100 100 100 100 100 100 100 100 100 100 100 100 100 100 100 100 100 100 100 69 95 100 100 100 100 100 100 100 100 100 85 100 100 100 100 100 100 100 100 100 100
100 100 88 100 100 100 100 100 100 100 100 100 100 100 100 100 100 100 100 100 100 100 100 100 100 100 100 100 72 93 100 100 100 72 100 100 100 100 100 100 100 100 100
100 100 100 100 100 100 100 100 100 100 100 100 100 100 100 100 100 100 100 100 100 100 100 100 100 100 100 100 100 100 100 100 100 100 100 78 78 69 100 100 78 100 100
100 100 100 100 100 100 100 100 100 100 100 100 100 100 100 100 100 100 100 100 100 100 100 100 100 100 100 100 100 100 100 100 100 100 100 100 100 100 100 100 100 100 100
100 87 100 100 100 100 100 100 100 100 100 100 100 100 100 100 100 100 100 100 100 100 100 100 100 100 100 100 100 100 100 96 88 100 81 100 100 100 100 100 100 100 100
100 100 95 100 100 100 100 100 100 100 99 100 99 100 100 100 100 100 100 100 100 100 100 100 100 100 100 100 100 100 100 100 91 100 99 95 100 94 100 92 100 100 100
100 100 100 100 100 89 100 100 90 100 100 100 100 100 100 100 100 100 100 100 100 100 100 94 15 5 5 5 1 2 5 5 14 18 62 100 100 100 98 100 100 100 100
100 100 100 100 100 92 57 87 65 6 23 98 100 100 100 100 100 100 98 95 92 70 6 38 10 5 7 5 0 0 0 0 2 14 22 51 57 55 61 70 96 100 100
100 100 100 100 100 100 48 80 5 4 26 14 5 29 95 35 17 64 79 98 64 46 95 67 37 14 5 3 0 1 0 0 0 0 0 0 1 30 98 100 100 100 100
100 100 100 100 100 100 100 99 79 5 3 0 1 5 26 99 100 62 12 55 99 73 84 30 5 5 5 5 1 0 0 0 0 0 0 0 0 10 44 100 100 100 100
100 100 100 100 100 100 100 100 100 100 77 11 7 87 4 6 52 10 5 5 5 8 5 5 4 4 100 29 4 0 0 0 0 0 0 0 0 42 54 98 100 98 100
81 79 100 86 98 87 98 99 99 100 100 94 5 52 43 10 99 52 5 19 51 11 10 52 100 100 100 49 14 68 4 42 0 2 0 11 33 81 100 100 100 100 100
80 100 81 26 45 99 88 58 100 100 100 27 79 100 100 99 61 58 4 87 100 80 95 100 100 100 90 5 51 100 0 0 0 0 11 63 91 92 90 100 100 100 100
69 44 45 100 94 64 65 14 100 100 100 100 92 100 100 18 47 55 100 60 97 100 76 100 100 100 60 5 11 33 66 73 12 0 100 84 100 100 73 100 100 100 100
100 89 62 52 80 96 100 100 100 100 100 89 51 42 55 100 100 100 100 95 100 100 100 100 100 100 76 6 5 43 74 93 95 3 30 88 100 100 100 93 100 100 100
100 100 100 100 100 100 100 81 59 40 96 100 100 100 100 100 100 99 96 100 100 100 100 100 100 100 100 68 5 59 74 76 82 71 5 18 90 100 100 99 100 100 100
100 100 100 100 100 100 100 100 77 93 100 100 100 100 100 100 100 100 100 100 100 100 100 100 100 100 95 95 22 24 91 93 100 95 75 5 7 65 98 72 100 100 100
100 100 100 100 100 100 100 100 100 100 100 100 100 100 100 100 100 100 100 100 100 100 100 100 100 100 100 100 99 89 64 100 100 100 100 20 5 6 47 78 100 100 100
100 100 100 100 100 100 100 100 100 100 100 100 100 100 100 100 100 100 100 100 99 100 100 100 100 100 100 100 100 98 89 96 100 100 78 33 9 100 32 77 86 93 100
90 100 100 100 100 100 100 100 100 100 100 100 100 100 100 100 100 100 100 100 100 100 100 100 100 100 100 82 51 64 65 80 100 100 88 28 18 43 90 66 87 88 78
100 100 100 91 61 92 73 93 99 100 100 100 100 100 100 100 100 100 100 100 100 98 89 84 96 100 97 88 94 100 100 97 98 98 99 46 16 33 89 68 82 73 76

GFSMW_prec_cloud_114.txt.gz
Cloud_Cover
100 100 100 100 100 100 100 100 100 100 100 100 94 100 100 100 100 100 97 43 100 100 100 100 100 100 100 100 100 100 100 100 100 100 100 83 100 56 100 98 30 74 86
100 100 100 100 100 100 100 100 100 100 100 100 73 99 100 100 100 99 100 100 100 100 100 100 100 100 100 100 100 100 100 100 99 100 96 85 45 10 5 23 98 79 67
100 100 100 100 100 100 100 100 100 100 100 99 69 86 99 98 91 100 100 100 100 100 100 100 100 100 100 100 100 89 100 97 96 100 92 66 51 27 13 5 83 100 100
100 100 100 100 100 100 100 100 100 100 100 100 100 100 100 100 89 100 100 100 100 100 100 100 100 100 94 100 100 94 58 99 90 100 100 100 87 100 100 49 58 73 98
100 100 100 100 100 100 100 100 100 100 100 100 100 100 100 100 100 100 100 100 100 100 100 100 100 100 88 93 99 100 100 100 99 100 100 100 100 100 100 100 100 100 100
100 100 100 100 100 100 100 100 100 100 100 100 100 100 100 100 100 100 100 100 100 100 100 100 100 100 100 100 100 100 100 100 100 100 100 100 100 100 100 100 100 100 100
100 100 100 100 100 100 100 100 100 100 100 100 100 100 100 100 100 100 100 100 100 83 100 100 100 100 100 100 100 100 100 100 100 100 100 100 99 100 100 96 100 100 100
100 100 100 100 100 100 100 100 100 100 100 100 100 100 100 100 100 100 100 100 100 100 100 100 100 100 100 100 100 100 100 100 100 100 100 100 100 100 100 100 100 84 100
100 100 100 100 100 100 100 100 100 100 100 100 100 100 100 100 100 100 100 100 100 100 100 100 100 100 100 100 100 100 100 100 100 100 100 100 93 100 100 100 96 100 100
100 100 100 100 100 100 100 100 100 100 100 100 100 100 100 100 100 100 100 100 100 100 100 100 100 100 100 100 100 100 100 100 100 100 100 100 100 100 100 100 100 100 99
100 100 100 100 100 100 100 100 100 100 100 100 100 100 100 100 100 100 100 100 100 100 100 100 100 100 100 100 100 100 100 100 100 100 100 100 100 100 100 100 100 100 100
100 100 100 100 100 100 100 100 100 100 100 100 100 100 100 100 100 100 100 100 100 100 100 100 100 100 100 100 100 100 100 100 100 100 50 100 100 100 100 92 56 100 100
100 100 100 100 100 100 100 100 100 100 100 100 100 100 100 100 100 100 100 100 100 100 100 100 100 100 100 100 100 100 100 100 100 99 100 100 100 76 100 100 100 100 100
100 100 100 100 100 100 100 100 100 100 100 100 100 100 100 100 100 100 100 100 100 100 100 100 100 100 100 100 100 93 100 100 100 100 100 100 100 100 84 100 85 100 99
100 97 100 100 100 100 100 100 100 100 100 100 100 100 100 100 100 100 100 100 100 100 100 100 100 100 100 100 100 100 88 100 100 100 100 100 100 100 100 95 97 100 100
100 100 100 100 100 100 100 100 100 100 100 100 100 100 100 100 100 100 100 100 100 100 100 100 100 100 100 100 100 100 100 95 100 100 100 100 100 100 100 100 95 15 87
100 74 100 100 100 100 100 100 100 100 100 100 100 100 100 100 100 100 100 100 100 100 100 100 100 100 100 100 100 100 100 100 100 100 100 100 100 100 98 78 10 11 9
100 78 100 100 100 100 100 100 100 100 100 100 100 100 100 100 100 100 100 100 100 100 100 100 100 100 100 100 100 100 100 100 100 100 100 100 100 100 100 28 21 58 33
93 100 79 100 82 100 100 100 100 100 100 100 100 100 100 100 100 100 100 100 100 100 100 100 100 100 100 100 100 100 100 100 62 100 100 100 100 100 34 56 98 42 28
99 29 12 81 94 5 8 98 97 100 100 100 100 100 100 100 100 100 100 100 100 100 100 100 100 100 100 100 100 100 100 100 100 100 100 100 99 91 59 96 74 53 10
71 100 98 100 100 90 21 5 100 100 100 100 100 100 100 98 100 100 100 100 100 100 100 100 100 100 100 100 100 100 100 100 100 82 67 96 22 22 10 98 100 100 40
48 47 100 100 100 81 95 87 24 40 39 89 100 100 100 93 100 100 100 100 100 100 100 100 100 100 100 100 100 100 100 99 100 100 26 11 46 81 32 42 100 98 20
34 5 2 3 82 100 100 82 96 92 100 98 78 33 18 6 9 35 39 9 48 99 100 100 98 88 54 78 74 94 100 100 100 100 98 45 98 100 58 9 37 29 70
5 5 26 34 75 98 100 100 100 100 79 82 78 79 96 99 93 31 38 99 94 6 16 45 72 86 92 90 22 60 70 67 65 89 100 100 90 100 98 35 5 9 5
5 5 5 5 7 32 41 74 100 100 100 100 100 100 100 100 100 100 100 100 94 84 86 75 65 100 99 65 83 6 62 82 94 98 98 98 81 100 100 65 9 5 5
5 5 5 5 5 5 89 91 90 100 100 100 100 100 100 100 100 100 100 100 100 100 100 100 100 100 100 99 61 64 87 61 54 95 100 88 100 100 100 84 6 5 5

GFSMW_prec_cloud_117.txt.gz
Cloud_Cover
100 100 86 100 100 100 100 100 100 100 100 100 100 100 100 100 100 100 100 100 100 100 100 100 100 100 100 100 100 100 100 100 100 100 100 18 86 40 31 37 5 5 84
83 62 77 100 100 100 100 100 100 100 100 100 100 100 100 100 100 99 100 100 100 100 100 100 100 100 100 100 100 100 100 100 100 94 94 100 74 93 78 35 5 5 30
87 100 98 91 100 100 100 100 100 100 100 100 100 100 100 100 100 100 100 100 100 100 100 100 100 100 100 100 100 93 100 99 100 70 100 92 89 58 49 5 14 51 100
91 100 100 58 100 100 100 100 100 100 100 100 100 100 100 100 100 100 100 95 96 99 100 100 100 100 100 100 94 100 100 100 100 99 99 70 22 98 99 51 53 100 100
98 86 72 100 100 100 100 100 100 100 100 100 100 100 100 100 100 100 100 94 100 100 100 100 100 100 100 100 100 100 100 100 100 100 97 100 96 100 100 100 100 40 98
100 87 100 100 100 100 100 100 100 100 100 100 100 100 100 100 100 100 100 100 100 100 100 100 100 100 100 100 98 100 100 100 100 100 89 89 90 100 100 98 98 77 25
98 100 100 100 100 100 100 100 100 100 100 100 100 100 100 100 100 100 100 100 100 100 100 100 100 100 100 100 100 100 100 100 100 100 100 100 100 100 100 100 100 100 100
100 100 100 100 100 100 100 100 100 100 100 100 100 100 100 100 100 100 100 100 100 100 100 100 100 100 100 100 100 100 100 100 100 100 100 100 100 100 99 100 100 85 59
100 100 100 100 100 100 100 100 100 100 100 100 100 100 100 100 100 100 100 100 100 100 100 100 100 100 100 100 100 100 100 100 100 100 100 100 100 100 91 100 100 100 100
100 100 100 100 100 100 100 100 100 100 100 100 100 100 100 100 100 100 100 100 100 100 100 100 100 100 100 100 100 100 100 100 100 100 100 100 100 100 100 100 100 100 100
100 100 100 100 100 100 100 100 100 100 100 100 100 100 100 100 100 100 100 100 100 100 100 100 100 100 100 100 100 100 100 100 100 100 100 95 98 100 100 100 100 100 100
100 100 100 100 100 100 100 100 100 100 100 100 100 100 100 100 100 100 100 100 100 100 100 100 100 100 100 100 100 100 100 100 95 100 80 100 100 100 100 100 100 100 100
100 100 100 100 100 100 100 100 100 100 100 100 100 100 100 100 100 100 100 100 100 100 100 100 100 100 100 100 100 100 100 100 99 89 100 100 100 100 100 100 94 99 100
100 100 100 100 100 100 100 100 100 100 100 100 100 100 100 100 100 100 100 100 100 100 100 100 100 100 100 100 100 100 100 100 100 100 100 100 100 81 95 65 92 80 82
100 100 100 100 100 100 100 100 100 100 100 100 100 100 100 100 100 100 100 100 100 100 100 100 100 100 100 100 100 100 100 100 100 100 100 100 100 98 100 91 100 99 99
100 100 100 100 100 100 100 100 100 100 100 100 100 100 100 100 100 100 100 100 100 100 100 100 100 100 100 100 100 100 100 100 100 100 100 100 100 100 100 99 100 100 100
100 100 100 100 100 100 100 100 100 100 100 100 100 100 100 100 100 100 100 100 100 100 100 100 100 100 100 100 100 100 100 100 100 100 100 100 100 100 100 100 100 100 100
100 100 100 100 100 100 100 100 100 100 100 100 100 100 100 100 100 100 100 100 100 100 100 100 100 100 100 100 100 100 100 100 100 100 100 100 100 100 100 100 100 59 98
100 100 100 100 100 100 100 100 100 100 100 100 100 100 100 100 100 100 100 100 100 100 100 100 100 100 100 100 100 100 100 100 100 100 100 100 100 100 100 100 100 55 99
51 100 100 100 100 100 100 100 100 100 100 100 100 100 100 100 100 100 100 100 100 100 100 100 100 100 100 100 100 100 100 100 100 100 100 100 100 100 100 100 100 70 100
4 45 78 80 95 100 100 100 100 100 100 100 100 100 100 100 100 100 100 100 100 100 100 100 100 100 100 100 100 100 100 100 100 100 100 100 100 100 100 100 100 100 97
99 40 16 14 9 9 100 100 100 100 100 100 100 99 84 100 100 100 100 100 100 100 100 100 100 100 100 100 100 100 100 100 100 100 100 100 100 100 100 100 100 94 100
99 100 92 17 11 8 51 95 98 97 98 100 100 100 100 100 100 100 100 100 100 100 100 100 100 100 100 100 100 100 100 100 100 100 100 100 100 100 100 100 100 100 96
3 1 4 5 42 63 86 37 63 60 95 97 81 98 83 79 80 100 100 100 100 100 100 83 84 100 100 100 100 100 100 100 100 100 100 100 97 100 94 70 100 100 88
5 5 5 5 3 5 25 6 5 16 86 99 100 100 100 100 100 100 100 100 100 100 100 100 100 100 100 100 100 100 100 100 100 100 100 100 100 100 76 100 100 36 6
5 5 5 5 5 5 5 5 5 5 5 15 86 100 100 100 100 100 100 100 100 100 100 100 100 100 100 100 100 100 100 100 99 69 87 95 81 62 94 100 100 80 7

GFSMW_prec_cloud_120.txt.gz
Cloud_Cover
5 11 27 29 5 80 100 100 100 100 100 100 100 100 100 100 100 100 100 100 100 100 100 100 100 100 100 100 100 100 100 100 100 100 100 100 100 65 5 5 1 5 2
91 28 77 0 5 100 100 100 100 100 100 100 100 100 100 100 100 100 100 100 100 100 100 97 100 100 100 100 100 100 100 100 100 100 100 100 48 5 5 3 4 3 4
67 49 5 24 69 100 100 100 100 100 100 100 100 100 100 100 100 100 100 100 100 100 100 100 98 99 100 100 100 100 100 100 100 100 100 92 8 48 20 8 5 64 45
22 72 15 98 100 100 100 100 100 100 100 100 100 100 100 100 100 100 100 100 100 99 100 97 90 100 100 100 100 100 100 100 100 100 95 98 6 58 88 36 21 8 15
100 78 100 100 100 100 100 100 100 100 100 100 100 100 100 100 100 100 100 100 100 100 100 100 100 100 100 100 100 100 100 100 100 100 100 100 88 84 95 76 7 5 5
98 97 20 100 100 100 100 100 100 100 100 100 100 100 100 100 100 100 100 100 100 100 100 100 98 100 100 100 100 100 100 100 100 100 98 100 94 100 90 99 100 41 30
98 13 36 95 100 100 100 100 100 100 100 100 100 100 100 100 100 100 100 64 100 100 100 100 100 100 100 100 100 100 100 100 100 100 100 100 100 100 100 100 100 49 61
64 35 98 100 100 100 100 100 100 100 100 100 100 100 100 100 100 100 100 100 100 100 100 100 96 100 100 100 100 100 100 100 100 100 95 88 100 100 100 88 100 99 100
100 11 46 100 100 100 100 100 100 100 100 100 100 100 100 100 100 100 100 100 100 100 100 100 98 100 100 100 100 100 100 100 100 100 100 100 100 100 94 100 100 100 100
100 89 98 100 100 100 100 100 100 100 100 100 100 100 100 100 100 100 100 100 100 100 100 100 100 100 100 100 100 100 100 100 100 100 100 100 97 99 17 43 88 100 100
100 100 100 100 100 100 100 100 100 100 100 100 100 100 100 100 100 100 100 100 100 100 100 100 100 100 100 100 100 100 100 100 100 100 100 100 47 35 85 77 100 100 100
100 100 100 100 100 100 100 100 100 100 100 100 100 100 100 100 100 100 100 100 100 100 100 100 100 100 100 100 100 100 100 100 100 100 19 6 22 93 100 100 100 100 100
100 100 100 100 100 100 100 100 100 100 100 100 100 100 100 100 100 100 100 100 100 100 100 100 100 100 100 100 100 100 100 100 100 100 100 100 75 100 22 100 100 100 100
100 100 100 100 100 100 100 100 100 100 100 100 100 100 100 100 100 100 100 100 100 100 100 100 100 100 100 100 100 100 100 100 100 100 100 100 100 100 100 100 100 100 100
100 100 100 100 100 100 100 100 100 100 100 100 100 100 100 100 100 100 100 100 100 100 100 100 100 100 100 100 100 100 100 100 100 100 100 100 100 100 100 100 100 100 100
100 100 100 100 100 100 100 100 100 100 100 100 100 100 100 100 100 100 100 100 100 100 100 100 100 100 100 100 100 100 100 100 100 100 100 100 100 100 100 100 100 100 100
100 100 100 100 100 100 100 100 100 100 100 100 100 100 100 100 100 100 100 100 100 100 100 100 100 100 100 100 100 100 100 100 100 100 100 100 100 100 100 100 100 100 100
100 100 100 100 100 100 100 100 100 100 100 100 100 100 100 100 100 100 100 100 100 100 100 100 100 100 100 100 100 100 100 100 100 100 100 100 100 100 100 100 100 100 100
100 100 100 100 100 100 100 100 100 100 100 100 100 100 100 100 100 100 100 100 100 100 100 100 100 100 100 100 100 100 100 100 100 100 100 100 100 100 100 100 100 100 100
100 100 100 100 100 100 100 100 100 100 100 100 100 100 100 100 100 100 100 100 100 100 100 100 100 100 100 100 100 100 100 100 100 100 100 100 100 100 100 100 100 100 100
100 100 100 100 100 100 100 100 100 100 100 100 100 100 100 100 100 100 100 100 100 100 100 100 100 100 100 100 100 100 100 100 100 100 100 100 100 100 100 100 100 100 100
100 100 100 100 100 100 100 100 100 100 100 100 100 100 100 100 100 100 100 99 100 100 100 100 100 100 100 100 100 100 100 100 100 100 100 100 100 100 100 100 100 100 100
100 100 100 100 100 100 100 100 100 100 100 100 100 100 100 100 100 100 100 100 100 100 100 100 100 100 100 100 100 100 100 100 100 100 100 100 100 100 100 100 100 100 100
5 8 45 89 98 100 100 100 100 100 100 100 100 100 100 100 100 100 100 100 90 100 100 100 100 100 100 100 100 100 100 100 100 100 100 100 100 100 100 100 100 100 100
5 5 5 5 5 5 5 5 5 14 4 2 18 60 95 88 79 89 100 100 100 100 100 100 100 100 100 100 100 100 100 100 100 100 100 100 100 100 100 100 100 100 100
5 5 5 5 5 5 5 5 5 5 5 5 5 2 9 18 80 100 100 100 100 100 100 100 100 100 100 100 100 100 100 100 100 100 100 100 100 100 100 100 100 100 100

GFSMW_prec_cloud_123.txt.gz
Cloud_Cover
0 0 0 0 0 4 0 0 11 100 100 100 100 100 100 100 100 100 100 100 100 100 100 100 100 100 100 100 100 100 80 79 100 100 100 87 100 100 100 100 100 59 5
0 3 0 0 5 5 0 22 31 90 99 100 100 100 100 100 100 100 100 100 100 100 100 100 100 100 100 100 100 100 100 100 100 100 100 100 100 100 59 94 57 5 5
5 0 0 4 3 0 16 29 9 90 100 100 100 100 100 100 100 100 51 100 100 100 100 100 100 100 100 100 100 100 100 100 100 100 100 100 100 100 92 28 5 5 4
5 5 3 2 0 5 0 5 56 100 100 100 100 100 100 100 100 100 100 100 100 100 100 100 100 100 100 100 100 100 100 100 100 100 100 100 100 100 100 11 5 52 3
36 97 2 0 5 5 4 50 15 100 100 100 100 100 100 100 100 100 100 100 100 100 100 100 100 100 100 100 100 100 100 100 100 100 100 100 100 100 92 16 7 31 5
94 5 3 4 46 38 100 99 100 100 100 100 100 100 100 100 100 100 100 100 100 100 100 100 100 100 100 100 100 100 100 100 100 100 100 100 100 51 43 23 64 24 17
97 8 99 100 34 86 79 100 100 100 100 100 100 100 100 100 100 100 100 100 100 100 100 100 100 100 100 100 99 100 100 100 100 100 100 100 100 100 96 71 99 50 4
96 40 100 9 7 33 100 100 100 100 100 100 100 100 100 100 100 100 100 100 100 100 100 100 100 78 100 100 100 100 100 100 100 100 100 100 97 100 100 100 97 100 100
69 96 6 5 100 100 100 100 100 100 100 100 100 100 100 100 100 100 100 100 100 100 100 100 100 100 97 99 100 100 100 100 100 100 100 100 100 100 100 99 98 100 100
94 88 91 98 100 100 100 100 100 100 100 100 100 100 100 100 100 100 100 100 100 100 100 100 100 100 100 100 100 100 100 100 100 100 100 100 100 100 100 100 100 100 87
100 100 98 100 100 100 100 100 100 100 100 100 100 100 100 100 100 100 100 100 100 100 100 100 100 100 100 100 100 100 100 100 100 100 100 100 100 100 99 95 95 100 100
100 91 84 100 100 100 100 100 100 100 100 100 100 100 100 100 100 100 100 100 100 100 100 100 100 100 100 100 100 100 100 100 100 100 100 100 100 86 71 97 100 100 100
100 100 100 100 100 100 100 100 100 100 100 100 100 100 100 100 100 100 100 100 100 100 100 100 100 100 100 100 100 100 100 100 100 100 100 100 100 100 100 100 100 100 100
100 100 100 100 100 100 100 100 100 100 100 100 100 100 100 100 100 100 100 100 100 100 100 100 100 100 100 100 100 100 100 100 100 100 100 100 100 100 100 100 100 100 100
100 100 100 100 100 100 100 100 100 100 100 100 100 100 100 100 100 100 100 100 100 100 100 100 100 100 100 100 100 100 100 100 100 100 100 100 100 100 100 100 100 100 100
100 100 100 100 100 100 100 100 100 100 100 100 100 100 100 100 100 100 100 100 100 100 100 100 100 100 100 100 100 100 100 100 100 100 100 100 100 98 100 100 100 100 100
100 100 100 100 100 100 100 100 100 100 100 100 100 100 100 100 100 100 100 100 100 100 100 100 100 100 100 100 100 100 100 100 100 100 100 99 95 100 100 100 100 100 100
100 100 100 100 100 100 100 100 100 100 100 100 100 100 100 100 100 100 100 100 100 100 100 100 100 100 100 100 100 100 100 100 100 100 100 100 100 94 100 100 100 100 100
100 100 100 100 100 100 100 100 100 100 100 100 100 100 100 100 100 100 100 100 100 100 100 100 100 100 100 100 100 100 100 100 100 100 100 100 100 100 100 100 100 100 100
100 100 100 100 100 100 100 100 100 100 100 100 100 100 100 100 100 100 100 100 100 100 100 100 100 100 100 100 100 100 100 100 92 100 100 100 100 100 100 100 100 100 100
100 100 100 100 100 100 100 100 100 100 100 100 100 100 100 100 100 100 100 100 100 100 100 100 100 100 100 100 100 100 100 100 100 100 100 100 100 100 100 100 100 100 100
100 100 100 100 100 100 100 100 100 100 100 100 100 100 100 100 100 100 100 100 100 100 100 100 100 100 100 100 100 100 100 100 100 100 100 100 100 100 100 100 100 100 100
100 100 100 100 100 100 100 100 100 100 100 100 100 81 96 100 100 100 100 100 100 100 100 100 100 100 100 100 100 100 100 100 100 100 100 100 100 100 100 100 100 100 100
100 100 100 100 100 100 100 100 100 100 100 100 100 100 100 100 100 91 100 100 100 98 43 41 72 100 100 100 100 100 100 100 100 100 100 100 100 100 100 100 100 100 100
100 100 100 100 100 100 100 100 100 100 100 100 100 100 100 100 100 100 100 95 100 100 100 100 100 100 100 100 100 100 100 100 100 100 100 100 100 100 100 100 100 100 100
5 26 62 100 100 100 100 100 100 100 100 100 100 100 100 100 100 63 68 99 100 100 100 100 100 100 100 100 100 100 100 100 100 100 100 100 100 100 100 100 100 100 100

GFSMW_prec_cloud_126.txt.gz
Cloud_Cover
0 0 0 0 0 0 0 0 0 0 0 19 71 100 100 100 100 100 100 100 100 100 34 88 100 100 100 100 100 100 100 100 100 100 100 100 95 82 100 100 100 100 100
0 0 0 0 0 0 0 0 0 0 0 0 0 10 62 100 96 100 100 100 100 100 100 100 100 100 100 100 100 100 100 100 100 100 100 100 94 100 100 100 100 100 100
0 0 0 0 0 0 0 0 0 0 0 0 3 38 62 98 83 100 100 100 100 100 100 100 100 100 100 100 100 100 100 100 100 100 100 100 100 100 100 100 100 100 35
0 0 0 0 0 0 0 0 0 0 0 1 33 16 89 46 100 100 100 99 100 100 100 100 100 100 100 100 100 100 100 100 100 100 100 100 100 100 100 100 100 100 18
0 1 0 0 0 0 0 0 0 0 0 4 26 35 99 100 100 100 100 100 100 100 100 100 100 100 100 100 100 100 100 100 100 100 100 100 100 100 100 100 100 98 5
17 12 4 1 0 0 0 0 2 4 0 0 78 54 100 100 100 100 100 100 100 100 100 100 100 100 100 100 100 100 100 100 100 100 100 100 100 100 100 100 81 61 9
86 100 8 4 5 5 5 5 27 1 20 23 100 97 94 100 100 100 100 100 100 100 100 100 100 100 100 100 100 100 100 100 100 100 100 100 99 100 100 96 18 82 98
21 100 5 5 5 3 5 6 8 60 80 100 93 100 100 100 100 100 100 100 100 100 100 100 100 100 100 100 100 100 100 100 100 100 100 100 100 100 100 96 72 22 49
100 100 100 66 62 90 100 100 100 79 100 98 100 100 100 100 100 100 100 100 100 100 100 100 100 100 100 100 100 100 100 100 100 100 100 100 100 100 100 100 78 56 82
62 9 28 13 100 100 100 100 95 100 100 100 100 100 100 100 100 100 100 100 100 100 100 100 100 100 100 100 100 100 100 100 100 100 100 100 100 100 100 100 100 80 100
69 63 89 100 100 100 100 100 100 100 100 100 100 99 100 100 100 100 100 100 100 100 100 100 100 100 100 100 100 100 100 100 100 100 100 100 100 100 100 100 100 100 100
99 100 100 100 100 100 100 100 100 100 100 100 100 100 100 100 100 100 100 100 100 100 100 100 100 100 100 100 100 100 100 100 100 100 100 100 100 100 100 100 100 100 100
100 100 100 100 100 100 100 100 100 100 100 100 100 100 100 100 100 100 100 100 100 100 100 100 100 100 100 100 100 100 100 100 100 100 100 100 100 100 100 100 100 100 100
100 100 100 100 100 100 100 100 100 100 100 100 100 100 100 100 100 100 100 100 100 100 100 100 100 100 100 100 100 100 100 100 100 100 100 100 100 100 100 100 100 100 100
100 100 100 100 100 100 100 100 100 100 100 100 100 100 100 100 100 100 100 100 100 100 100 100 100 100 100 100 100 100 100 100 100 100 100 100 100 100 100 100 100 100 100
100 100 100 100 100 100 100 100 100 100 100 100 100 100 100 100 100 100 100 100 100 100 100 100 100 100 100 100 100 100 100 100 100 100 100 100 100 100 100 100 100 99 98
100 100 100 100 100 100 100 100 100 100 100 100 100 100 100 100 100 100 100 100 100 100 100 100 100 100 100 100 100 100 100 100 100 100 100 100 100 100 100 100 100 100 100
100 100 100 100 100 100 100 100 100 100 100 100 100 100 100 100 100 100 100 100 100 100 100 100 100 100 100 100 100 100 100 100 100 100 100 100 100 100 100 100 100 100 100
100 100 100 100 100 100 100 100 100 100 100 100 100 100 100 100 100 100 100 100 100 100 100 100 100 100 100 100 100 100 100 100 100 100 100 100 100 100 100 100 100 100 100
100 100 100 100 100 100 100 100 100 100 100 100 100 100 100 100 100 100 100 100 100 100 100 100 100 100 100 100 100 100 100 100 100 100 100 100 100 100 100 100 100 100 100
100 100 100 100 100 100 100 100 100 100 100 100 100 100 100 100 100 100 100 100 100 100 100 100 100 100 100 100 100 100 100 100 100 100 100 100 100 100 100 100 100 100 100
100 100 100 100 100 100 99 100 100 100 100 100 100 100 100 100 100 100 100 100 87 100 100 100 100 100 100 100 100 100 100 100 100 100 100 100 100 100 100 100 100 100 100
91 99 100 100 100 53 97 99 100 100 100 100 100 100 100 55 100 100 100 100 100 100 100 100 100 100 100 100 100 100 100 100 100 100 100 100 100 100 100 100 100 100 100
0 2 27 100 73 100 100 97 81 100 100 100 100 100 100 100 100 100 100 100 100 100 100 100 100 100 100 100 100 100 100 100 100 100 100 100 100 100 100 100 100 100 100
46 56 34 43 90 100 100 100 100 100 100 100 100 100 100 100 100 100 100 100 100 100 100 100 100 100 100 100 100 100 100 100 100 100 100 100 100 100 100 100 100 100 100
28 86 45 28 87 100 100 100 100 100 100 100 100 100 100 100 100 100 94 100 100 99 98 100 100 100 100 100 100 100 100 100 100 100 100 100 100 100 100 100 100 100 100